Wetterdaten: Freitag, 19.08.2016
Datum Zeit Temp. A. Temp. A. max Feuchte A. Luftdruck Regen Wind Richtung Richtung Sonnenschein ET UV Solar Taupunkt Windben
19.08.2016 00:00 12,6 C 12,7 C 95 % 1010,4 hPa 0,0 mm 0,0 km/h (0 Bft) SO 145 0 min 0,000 mm 0,0 UV-I 0 W/m 11,8 C 0,0 km/h (0 Bft)
19.08.2016 00:01 12,6 C 12,6 C 95 % 1010,4 hPa 0,0 mm 0,0 km/h (0 Bft) SO 145 0 min 0,000 mm 0,0 UV-I 0 W/m 11,8 C 0,0 km/h (0 Bft)
19.08.2016 00:02 12,6 C 12,6 C 95 % 1010,4 hPa 0,0 mm 0,0 km/h (0 Bft) SO 145 0 min 0,000 mm 0,0 UV-I 0 W/m 11,8 C 0,0 km/h (0 Bft)
19.08.2016 00:03 12,6 C 12,7 C 95 % 1010,4 hPa 0,0 mm 0,0 km/h (0 Bft) SO 145 0 min 0,000 mm 0,0 UV-I 0 W/m 11,8 C 0,0 km/h (0 Bft)
19.08.2016 00:04 12,6 C 12,7 C 95 % 1010,5 hPa 0,0 mm 0,0 km/h (0 Bft) SO 145 0 min 0,000 mm 0,0 UV-I 0 W/m 11,8 C 0,0 km/h (0 Bft)
19.08.2016 00:05 12,7 C 12,7 C 95 % 1010,5 hPa 0,0 mm 0,0 km/h (0 Bft) SO 145 0 min 0,000 mm 0,0 UV-I 0 W/m 11,9 C 0,0 km/h (0 Bft)
19.08.2016 00:06 12,7 C 12,7 C 95 % 1010,5 hPa 0,0 mm 0,0 km/h (0 Bft) SO 145 0 min 0,000 mm 0,0 UV-I 0 W/m 11,9 C 0,0 km/h (0 Bft)
19.08.2016 00:07 12,7 C 12,7 C 95 % 1010,5 hPa 0,0 mm 0,0 km/h (0 Bft) SO 145 0 min 0,000 mm 0,0 UV-I 0 W/m 11,9 C 0,0 km/h (0 Bft)
19.08.2016 00:08 12,7 C 12,7 C 95 % 1010,5 hPa 0,0 mm 0,0 km/h (0 Bft) SO 145 0 min 0,000 mm 0,0 UV-I 0 W/m 11,9 C 0,0 km/h (0 Bft)
19.08.2016 00:09 12,7 C 12,7 C 95 % 1010,5 hPa 0,0 mm 0,0 km/h (0 Bft) SO 145 0 min 0,000 mm 0,0 UV-I 0 W/m 11,9 C 0,0 km/h (0 Bft)
19.08.2016 00:10 12,6 C 12,7 C 95 % 1010,5 hPa 0,0 mm 0,0 km/h (0 Bft) SO 145 0 min 0,000 mm 0,0 UV-I 0 W/m 11,8 C 0,0 km/h (0 Bft)
19.08.2016 00:11 12,6 C 12,7 C 95 % 1010,5 hPa 0,0 mm 0,0 km/h (0 Bft) SO 145 0 min 0,000 mm 0,0 UV-I 0 W/m 11,8 C 0,0 km/h (0 Bft)
19.08.2016 00:12 12,6 C 12,6 C 95 % 1010,5 hPa 0,0 mm 0,0 km/h (0 Bft) SO 145 0 min 0,000 mm 0,0 UV-I 0 W/m 11,8 C 0,0 km/h (0 Bft)
19.08.2016 00:13 12,6 C 12,6 C 95 % 1010,5 hPa 0,0 mm 0,0 km/h (0 Bft) SO 145 0 min 0,000 mm 0,0 UV-I 0 W/m 11,8 C 0,0 km/h (0 Bft)
19.08.2016 00:14 12,6 C 12,6 C 95 % 1010,6 hPa 0,0 mm 0,0 km/h (0 Bft) SO 145 0 min 0,000 mm 0,0 UV-I 0 W/m 11,8 C 0,0 km/h (0 Bft)
19.08.2016 00:15 12,7 C 12,7 C 95 % 1010,6 hPa 0,0 mm 0,0 km/h (0 Bft) SO 145 0 min 0,000 mm 0,0 UV-I 0 W/m 11,9 C 0,0 km/h (0 Bft)
19.08.2016 00:16 12,7 C 12,7 C 95 % 1010,6 hPa 0,0 mm 0,0 km/h (0 Bft) W-SW 245 0 min 0,000 mm 0,0 UV-I 0 W/m 11,9 C 0,0 km/h (0 Bft)
19.08.2016 00:17 12,7 C 12,7 C 95 % 1010,6 hPa 0,0 mm 0,0 km/h (0 Bft) W-SW 245 0 min 0,000 mm 0,0 UV-I 0 W/m 11,9 C 0,0 km/h (0 Bft)
19.08.2016 00:18 12,7 C 12,7 C 95 % 1010,6 hPa 0,0 mm 0,0 km/h (0 Bft) SW 223 0 min 0,000 mm 0,0 UV-I 0 W/m 11,9 C 0,0 km/h (0 Bft)
19.08.2016 00:19 12,6 C 12,7 C 95 % 1010,6 hPa 0,0 mm 0,0 km/h (0 Bft) SW 223 0 min 0,000 mm 0,0 UV-I 0 W/m 11,8 C 0,0 km/h (0 Bft)
19.08.2016 00:20 12,6 C 12,6 C 95 % 1010,6 hPa 0,0 mm 0,0 km/h (0 Bft) SW 223 0 min 0,000 mm 0,0 UV-I 0 W/m 11,8 C 0,0 km/h (0 Bft)
19.08.2016 00:21 12,6 C 12,6 C 95 % 1010,6 hPa 0,0 mm 0,0 km/h (0 Bft) SW 223 0 min 0,000 mm 0,0 UV-I 0 W/m 11,8 C 0,0 km/h (0 Bft)
19.08.2016 00:22 12,6 C 12,6 C 95 % 1010,5 hPa 0,0 mm 0,0 km/h (0 Bft) SW 223 0 min 0,000 mm 0,0 UV-I 0 W/m 11,8 C 0,0 km/h (0 Bft)
19.08.2016 00:23 12,6 C 12,6 C 95 % 1010,5 hPa 0,0 mm 0,0 km/h (0 Bft) SW 223 0 min 0,000 mm 0,0 UV-I 0 W/m 11,8 C 0,0 km/h (0 Bft)
19.08.2016 00:24 12,6 C 12,6 C 95 % 1010,6 hPa 0,0 mm 0,0 km/h (0 Bft) SW 223 0 min 0,000 mm 0,0 UV-I 0 W/m 11,8 C 0,0 km/h (0 Bft)
19.08.2016 00:25 12,6 C 12,6 C 95 % 1010,6 hPa 0,0 mm 0,0 km/h (0 Bft) SW 223 0 min 0,000 mm 0,0 UV-I 0 W/m 11,8 C 0,0 km/h (0 Bft)
19.08.2016 00:26 12,5 C 12,6 C 95 % 1010,6 hPa 0,0 mm 1,5 km/h (1 Bft) S-SW 208 0 min 0,000 mm 0,0 UV-I 0 W/m 11,7 C 3,2 km/h (1 Bft)
19.08.2016 00:27 12,5 C 12,5 C 95 % 1010,7 hPa 0,0 mm 3,0 km/h (1 Bft) O-NO 64 0 min 0,000 mm 0,0 UV-I 0 W/m 11,7 C 4,8 km/h (1 Bft)
19.08.2016 00:28 12,5 C 12,5 C 95 % 1010,6 hPa 0,0 mm 1,5 km/h (1 Bft) O-NO 64 0 min 0,000 mm 0,0 UV-I 0 W/m 11,7 C 3,2 km/h (1 Bft)
19.08.2016 00:29 12,4 C 12,5 C 95 % 1010,7 hPa 0,0 mm 1,4 km/h (1 Bft) O-NO 64 0 min 0,000 mm 0,0 UV-I 0 W/m 11,6 C 3,2 km/h (1 Bft)
19.08.2016 00:30 12,4 C 12,5 C 95 % 1010,7 hPa 0,0 mm 0,2 km/h (0 Bft) O-NO 64 0 min 0,000 mm 0,0 UV-I 0 W/m 11,6 C 1,6 km/h (1 Bft)
19.08.2016 00:31 12,4 C 12,4 C 95 % 1010,7 hPa 0,0 mm 1,0 km/h (0 Bft) O-NO 64 0 min 0,000 mm 0,0 UV-I 0 W/m 11,6 C 1,6 km/h (1 Bft)
19.08.2016 00:32 12,4 C 12,4 C 94 % 1010,7 hPa 0,0 mm 0,2 km/h (0 Bft) O-NO 64 0 min 0,000 mm 0,0 UV-I 0 W/m 11,5 C 1,6 km/h (1 Bft)
19.08.2016 00:33 12,3 C 12,4 C 94 % 1010,7 hPa 0,0 mm 0,1 km/h (0 Bft) O-NO 64 0 min 0,000 mm 0,0 UV-I 0 W/m 11,4 C 1,6 km/h (1 Bft)
19.08.2016 00:34 12,3 C 12,3 C 94 % 1010,7 hPa 0,0 mm 0,1 km/h (0 Bft) O-NO 64 0 min 0,000 mm 0,0 UV-I 0 W/m 11,4 C 1,6 km/h (1 Bft)
19.08.2016 00:35 12,3 C 12,3 C 94 % 1010,7 hPa 0,0 mm 0,1 km/h (0 Bft) O-NO 64 0 min 0,000 mm 0,0 UV-I 0 W/m 11,4 C 1,6 km/h (1 Bft)
19.08.2016 00:36 12,2 C 12,3 C 94 % 1010,8 hPa 0,0 mm 0,0 km/h (0 Bft) O-NO 64 0 min 0,000 mm 0,0 UV-I 0 W/m 11,3 C 0,0 km/h (0 Bft)
19.08.2016 00:37 12,2 C 12,3 C 93 % 1010,8 hPa 0,0 mm 0,0 km/h (0 Bft) O-NO 64 0 min 0,000 mm 0,0 UV-I 0 W/m 11,1 C 0,0 km/h (0 Bft)
19.08.2016 00:38 12,2 C 12,2 C 94 % 1010,8 hPa 0,0 mm 0,0 km/h (0 Bft) O-NO 64 0 min 0,000 mm 0,0 UV-I 0 W/m 11,3 C 0,0 km/h (0 Bft)
19.08.2016 00:39 12,2 C 12,2 C 94 % 1010,7 hPa 0,0 mm 0,0 km/h (0 Bft) O-NO 64 0 min 0,000 mm 0,0 UV-I 0 W/m 11,3 C 0,0 km/h (0 Bft)
19.08.2016 00:40 12,2 C 12,2 C 94 % 1010,7 hPa 0,0 mm 0,3 km/h (0 Bft) O-NO 64 0 min 0,000 mm 0,0 UV-I 0 W/m 11,3 C 1,6 km/h (1 Bft)
19.08.2016 00:41 12,2 C 12,3 C 95 % 1010,7 hPa 0,0 mm 0,8 km/h (0 Bft) O-NO 64 0 min 0,000 mm 0,0 UV-I 0 W/m 11,4 C 1,6 km/h (1 Bft)
19.08.2016 00:42 12,2 C 12,2 C 95 % 1010,7 hPa 0,0 mm 0,4 km/h (0 Bft) O-NO 64 0 min 0,000 mm 0,0 UV-I 0 W/m 11,4 C 1,6 km/h (1 Bft)
19.08.2016 00:43 12,2 C 12,3 C 94 % 1010,7 hPa 0,0 mm 1,0 km/h (0 Bft) O-NO 64 0 min 0,000 mm 0,0 UV-I 0 W/m 11,3 C 1,6 km/h (1 Bft)
19.08.2016 00:44 12,2 C 12,2 C 95 % 1010,7 hPa 0,0 mm 0,1 km/h (0 Bft) O-NO 64 0 min 0,000 mm 0,0 UV-I 0 W/m 11,4 C 1,6 km/h (1 Bft)
19.08.2016 00:45 12,2 C 12,2 C 95 % 1010,7 hPa 0,0 mm 1,0 km/h (0 Bft) O-NO 64 0 min 0,000 mm 0,0 UV-I 0 W/m 11,4 C 3,2 km/h (1 Bft)
19.08.2016 00:46 12,2 C 12,2 C 95 % 1010,7 hPa 0,0 mm 0,5 km/h (0 Bft) O-NO 64 0 min 0,000 mm 0,0 UV-I 0 W/m 11,4 C 1,6 km/h (1 Bft)
19.08.2016 00:47 12,2 C 12,2 C 95 % 1010,6 hPa 0,0 mm 0,0 km/h (0 Bft) O-NO 64 0 min 0,000 mm 0,0 UV-I 0 W/m 11,4 C 0,0 km/h (0 Bft)
19.08.2016 00:48 12,2 C 12,2 C 95 % 1010,6 hPa 0,0 mm 0,3 km/h (0 Bft) O-NO 64 0 min 0,000 mm 0,0 UV-I 0 W/m 11,4 C 1,6 km/h (1 Bft)
19.08.2016 00:49 12,2 C 12,2 C 95 % 1010,6 hPa 0,0 mm 0,5 km/h (0 Bft) O-NO 64 0 min 0,000 mm 0,0 UV-I 0 W/m 11,4 C 1,6 km/h (1 Bft)
19.08.2016 00:50 12,2 C 12,2 C 95 % 1010,6 hPa 0,0 mm 0,0 km/h (0 Bft) O-NO 64 0 min 0,000 mm 0,0 UV-I 0 W/m 11,4 C 0,0 km/h (0 Bft)
19.08.2016 00:51 12,2 C 12,2 C 95 % 1010,6 hPa 0,0 mm 1,1 km/h (1 Bft) O-NO 64 0 min 0,000 mm 0,0 UV-I 0 W/m 11,4 C 3,2 km/h (1 Bft)
19.08.2016 00:52 12,2 C 12,2 C 95 % 1010,6 hPa 0,0 mm 2,2 km/h (1 Bft) O-NO 57 0 min 0,000 mm 0,0 UV-I 0 W/m 11,4 C 3,2 km/h (1 Bft)
19.08.2016 00:53 12,2 C 12,2 C 95 % 1010,7 hPa 0,0 mm 0,2 km/h (0 Bft) O-NO 57 0 min 0,000 mm 0,0 UV-I 0 W/m 11,4 C 1,6 km/h (1 Bft)
19.08.2016 00:54 12,2 C 12,2 C 95 % 1010,6 hPa 0,0 mm 0,0 km/h (0 Bft) O-NO 57 0 min 0,000 mm 0,0 UV-I 0 W/m 11,4 C 0,0 km/h (0 Bft)
19.08.2016 00:55 12,2 C 12,2 C 95 % 1010,7 hPa 0,0 mm 0,0 km/h (0 Bft) O-NO 57 0 min 0,000 mm 0,0 UV-I 0 W/m 11,4 C 0,0 km/h (0 Bft)
19.08.2016 00:56 12,2 C 12,2 C 95 % 1010,6 hPa 0,0 mm 0,1 km/h (0 Bft) O-NO 57 0 min 0,000 mm 0,0 UV-I 0 W/m 11,4 C 1,6 km/h (1 Bft)
19.08.2016 00:57 12,2 C 12,2 C 95 % 1010,6 hPa 0,0 mm 0,0 km/h (0 Bft) O-NO 57 0 min 0,000 mm 0,0 UV-I 0 W/m 11,4 C 0,0 km/h (0 Bft)
19.08.2016 00:58 12,2 C 12,2 C 95 % 1010,6 hPa 0,0 mm 0,4 km/h (0 Bft) O-NO 57 0 min 0,000 mm 0,0 UV-I 0 W/m 11,4 C 1,6 km/h (1 Bft)
19.08.2016 00:59 12,2 C 12,2 C 95 % 1010,6 hPa 0,0 mm 0,0 km/h (0 Bft) O-NO 57 0 min 0,000 mm 0,0 UV-I 0 W/m 11,4 C 0,0 km/h (0 Bft)
19.08.2016 01:00 12,2 C 12,2 C 95 % 1010,6 hPa 0,0 mm 0,0 km/h (0 Bft) O-NO 57 0 min 0,000 mm 0,0 UV-I 0 W/m 11,4 C 0,0 km/h (0 Bft)
19.08.2016 01:01 12,2 C 12,3 C 95 % 1010,6 hPa 0,0 mm 0,5 km/h (0 Bft) O-NO 57 0 min 0,000 mm 0,0 UV-I 0 W/m 11,4 C 1,6 km/h (1 Bft)
19.08.2016 01:02 12,3 C 12,3 C 95 % 1010,6 hPa 0,0 mm 0,3 km/h (0 Bft) O-NO 57 0 min 0,000 mm 0,0 UV-I 0 W/m 11,5 C 1,6 km/h (1 Bft)
19.08.2016 01:03 12,3 C 12,3 C 95 % 1010,6 hPa 0,0 mm 0,2 km/h (0 Bft) O-NO 57 0 min 0,000 mm 0,0 UV-I 0 W/m 11,5 C 1,6 km/h (1 Bft)
19.08.2016 01:04 12,3 C 12,3 C 95 % 1010,6 hPa 0,0 mm 0,5 km/h (0 Bft) O-NO 57 0 min 0,000 mm 0,0 UV-I 0 W/m 11,5 C 1,6 km/h (1 Bft)
19.08.2016 01:05 12,2 C 12,3 C 95 % 1010,7 hPa 0,0 mm 0,0 km/h (0 Bft) O-NO 57 0 min 0,000 mm 0,0 UV-I 0 W/m 11,4 C 0,0 km/h (0 Bft)
19.08.2016 01:06 12,2 C 12,3 C 95 % 1010,7 hPa 0,0 mm 0,0 km/h (0 Bft) O-NO 57 0 min 0,000 mm 0,0 UV-I 0 W/m 11,4 C 0,0 km/h (0 Bft)
19.08.2016 01:07 12,2 C 12,3 C 95 % 1010,7 hPa 0,0 mm 0,0 km/h (0 Bft) O-NO 57 0 min 0,000 mm 0,0 UV-I 0 W/m 11,4 C 0,0 km/h (0 Bft)
19.08.2016 01:08 12,2 C 12,2 C 95 % 1010,7 hPa 0,0 mm 0,0 km/h (0 Bft) O-NO 57 0 min 0,000 mm 0,0 UV-I 0 W/m 11,4 C 0,0 km/h (0 Bft)
19.08.2016 01:09 12,2 C 12,2 C 95 % 1010,7 hPa 0,0 mm 0,0 km/h (0 Bft) O-NO 57 0 min 0,000 mm 0,0 UV-I 0 W/m 11,4 C 0,0 km/h (0 Bft)
19.08.2016 01:10 12,2 C 12,2 C 95 % 1010,7 hPa 0,0 mm 0,0 km/h (0 Bft) O-NO 57 0 min 0,000 mm 0,0 UV-I 0 W/m 11,4 C 0,0 km/h (0 Bft)
19.08.2016 01:11 12,2 C 12,3 C 95 % 1010,8 hPa 0,0 mm 0,0 km/h (0 Bft) O-NO 57 0 min 0,000 mm 0,0 UV-I 0 W/m 11,4 C 0,0 km/h (0 Bft)
19.08.2016 01:12 12,2 C 12,2 C 95 % 1010,8 hPa 0,0 mm 0,5 km/h (0 Bft) O-NO 57 0 min 0,000 mm 0,0 UV-I 0 W/m 11,4 C 1,6 km/h (1 Bft)
19.08.2016 01:13 12,2 C 12,2 C 95 % 1010,8 hPa 0,0 mm 0,3 km/h (0 Bft) O-NO 57 0 min 0,000 mm 0,0 UV-I 0 W/m 11,4 C 1,6 km/h (1 Bft)
19.08.2016 01:14 12,2 C 12,2 C 95 % 1010,7 hPa 0,0 mm 0,1 km/h (0 Bft) O-NO 57 0 min 0,000 mm 0,0 UV-I 0 W/m 11,4 C 1,6 km/h (1 Bft)
19.08.2016 01:15 12,2 C 12,3 C 95 % 1010,8 hPa 0,0 mm 0,5 km/h (0 Bft) O-NO 57 0 min 0,000 mm 0,0 UV-I 0 W/m 11,4 C 1,6 km/h (1 Bft)
19.08.2016 01:16 12,2 C 12,2 C 95 % 1010,7 hPa 0,0 mm 0,4 km/h (0 Bft) O-NO 57 0 min 0,000 mm 0,0 UV-I 0 W/m 11,4 C 1,6 km/h (1 Bft)
19.08.2016 01:17 12,2 C 12,2 C 95 % 1010,7 hPa 0,0 mm 0,0 km/h (0 Bft) O-NO 57 0 min 0,000 mm 0,0 UV-I 0 W/m 11,4 C 0,0 km/h (0 Bft)
19.08.2016 01:18 12,2 C 12,2 C 95 % 1010,8 hPa 0,0 mm 0,0 km/h (0 Bft) O-NO 57 0 min 0,000 mm 0,0 UV-I 0 W/m 11,4 C 0,0 km/h (0 Bft)
19.08.2016 01:19 12,3 C 12,3 C 95 % 1010,7 hPa 0,0 mm 0,0 km/h (0 Bft) O-NO 57 0 min 0,000 mm 0,0 UV-I 0 W/m 11,5 C 0,0 km/h (0 Bft)
19.08.2016 01:20 12,3 C 12,3 C 95 % 1010,8 hPa 0,0 mm 0,0 km/h (0 Bft) O-NO 57 0 min 0,000 mm 0,0 UV-I 0 W/m 11,5 C 0,0 km/h (0 Bft)
19.08.2016 01:21 12,2 C 12,3 C 95 % 1010,7 hPa 0,0 mm 0,0 km/h (0 Bft) O-NO 57 0 min 0,000 mm 0,0 UV-I 0 W/m 11,4 C 0,0 km/h (0 Bft)
19.08.2016 01:22 12,3 C 12,3 C 95 % 1010,7 hPa 0,0 mm 0,2 km/h (0 Bft) O-NO 57 0 min 0,000 mm 0,0 UV-I 0 W/m 11,5 C 1,6 km/h (1 Bft)
19.08.2016 01:23 12,2 C 12,3 C 95 % 1010,7 hPa 0,0 mm 0,5 km/h (0 Bft) O-NO 57 0 min 0,000 mm 0,0 UV-I 0 W/m 11,4 C 1,6 km/h (1 Bft)
19.08.2016 01:24 12,3 C 12,3 C 95 % 1010,8 hPa 0,0 mm 0,2 km/h (0 Bft) O-NO 57 0 min 0,000 mm 0,0 UV-I 0 W/m 11,5 C 1,6 km/h (1 Bft)
19.08.2016 01:25 12,3 C 12,3 C 95 % 1010,8 hPa 0,0 mm 1,2 km/h (1 Bft) O-NO 57 0 min 0,000 mm 0,0 UV-I 0 W/m 11,5 C 1,6 km/h (1 Bft)
19.08.2016 01:26 12,3 C 12,3 C 95 % 1010,8 hPa 0,0 mm 0,2 km/h (0 Bft) O-NO 57 0 min 0,000 mm 0,0 UV-I 0 W/m 11,5 C 1,6 km/h (1 Bft)
19.08.2016 01:27 12,3 C 12,3 C 95 % 1010,8 hPa 0,0 mm 0,3 km/h (0 Bft) O-NO 57 0 min 0,000 mm 0,0 UV-I 0 W/m 11,5 C 1,6 km/h (1 Bft)
19.08.2016 01:28 12,3 C 12,3 C 95 % 1010,8 hPa 0,0 mm 0,4 km/h (0 Bft) O-NO 57 0 min 0,000 mm 0,0 UV-I 0 W/m 11,5 C 1,6 km/h (1 Bft)
19.08.2016 01:29 12,3 C 12,3 C 95 % 1010,8 hPa 0,0 mm 0,7 km/h (0 Bft) O-NO 57 0 min 0,000 mm 0,0 UV-I 0 W/m 11,5 C 1,6 km/h (1 Bft)
19.08.2016 01:30 12,3 C 12,3 C 95 % 1010,8 hPa 0,0 mm 0,2 km/h (0 Bft) O-NO 57 0 min 0,000 mm 0,0 UV-I 0 W/m 11,5 C 1,6 km/h (1 Bft)
19.08.2016 01:31 12,3 C 12,3 C 95 % 1010,8 hPa 0,0 mm 0,1 km/h (0 Bft) O-NO 57 0 min 0,000 mm 0,0 UV-I 0 W/m 11,5 C 1,6 km/h (1 Bft)
19.08.2016 01:32 12,3 C 12,3 C 95 % 1010,7 hPa 0,0 mm 0,0 km/h (0 Bft) O-NO 57 0 min 0,000 mm 0,0 UV-I 0 W/m 11,5 C 0,0 km/h (0 Bft)
19.08.2016 01:33 12,3 C 12,3 C 95 % 1010,7 hPa 0,0 mm 0,0 km/h (0 Bft) O-NO 57 0 min 0,000 mm 0,0 UV-I 0 W/m 11,5 C 0,0 km/h (0 Bft)
19.08.2016 01:34 12,3 C 12,3 C 95 % 1010,8 hPa 0,0 mm 0,9 km/h (0 Bft) O-NO 57 0 min 0,000 mm 0,0 UV-I 0 W/m 11,5 C 1,6 km/h (1 Bft)
19.08.2016 01:35 12,3 C 12,3 C 96 % 1010,7 hPa 0,0 mm 0,6 km/h (0 Bft) O-NO 57 0 min 0,000 mm 0,0 UV-I 0 W/m 11,7 C 1,6 km/h (1 Bft)
19.08.2016 01:36 12,3 C 12,3 C 96 % 1010,7 hPa 0,0 mm 0,0 km/h (0 Bft) O-NO 57 0 min 0,000 mm 0,0 UV-I 0 W/m 11,7 C 0,0 km/h (0 Bft)
19.08.2016 01:37 12,3 C 12,3 C 96 % 1010,7 hPa 0,0 mm 0,0 km/h (0 Bft) O-NO 57 0 min 0,000 mm 0,0 UV-I 0 W/m 11,7 C 0,0 km/h (0 Bft)
19.08.2016 01:38 12,3 C 12,3 C 96 % 1010,7 hPa 0,0 mm 0,0 km/h (0 Bft) O-NO 57 0 min 0,000 mm 0,0 UV-I 0 W/m 11,7 C 0,0 km/h (0 Bft)
19.08.2016 01:39 12,3 C 12,3 C 96 % 1010,7 hPa 0,0 mm 0,0 km/h (0 Bft) O-NO 57 0 min 0,000 mm 0,0 UV-I 0 W/m 11,7 C 0,0 km/h (0 Bft)
19.08.2016 01:40 12,3 C 12,3 C 96 % 1010,7 hPa 0,0 mm 0,0 km/h (0 Bft) O-NO 57 0 min 0,000 mm 0,0 UV-I 0 W/m 11,7 C 0,0 km/h (0 Bft)
19.08.2016 01:41 12,3 C 12,3 C 96 % 1010,7 hPa 0,0 mm 0,0 km/h (0 Bft) O-NO 57 0 min 0,000 mm 0,0 UV-I 0 W/m 11,7 C 0,0 km/h (0 Bft)
19.08.2016 01:42 12,3 C 12,4 C 95 % 1010,7 hPa 0,0 mm 0,0 km/h (0 Bft) O-NO 57 0 min 0,000 mm 0,0 UV-I 0 W/m 11,5 C 0,0 km/h (0 Bft)
19.08.2016 01:43 12,3 C 12,4 C 95 % 1010,7 hPa 0,0 mm 0,0 km/h (0 Bft) O-NO 57 0 min 0,000 mm 0,0 UV-I 0 W/m 11,5 C 0,0 km/h (0 Bft)
19.08.2016 01:44 12,3 C 12,3 C 95 % 1010,8 hPa 0,0 mm 0,0 km/h (0 Bft) O-NO 57 0 min 0,000 mm 0,0 UV-I 0 W/m 11,5 C 0,0 km/h (0 Bft)
19.08.2016 01:45 12,4 C 12,4 C 95 % 1010,8 hPa 0,0 mm 0,0 km/h (0 Bft) O-NO 57 0 min 0,000 mm 0,0 UV-I 0 W/m 11,6 C 0,0 km/h (0 Bft)
19.08.2016 01:46 12,3 C 12,4 C 95 % 1010,7 hPa 0,0 mm 0,0 km/h (0 Bft) O-NO 57 0 min 0,000 mm 0,0 UV-I 0 W/m 11,5 C 0,0 km/h (0 Bft)
19.08.2016 01:47 12,3 C 12,3 C 95 % 1010,7 hPa 0,0 mm 0,0 km/h (0 Bft) O-NO 57 0 min 0,000 mm 0,0 UV-I 0 W/m 11,5 C 0,0 km/h (0 Bft)
19.08.2016 01:48 12,3 C 12,3 C 95 % 1010,7 hPa 0,0 mm 0,0 km/h (0 Bft) O-NO 57 0 min 0,000 mm 0,0 UV-I 0 W/m 11,5 C 0,0 km/h (0 Bft)
19.08.2016 01:49 12,3 C 12,3 C 95 % 1010,7 hPa 0,0 mm 0,0 km/h (0 Bft) O-NO 57 0 min 0,000 mm 0,0 UV-I 0 W/m 11,5 C 0,0 km/h (0 Bft)
19.08.2016 01:50 12,3 C 12,4 C 95 % 1010,7 hPa 0,0 mm 0,0 km/h (0 Bft) O-NO 57 0 min 0,000 mm 0,0 UV-I 0 W/m 11,5 C 0,0 km/h (0 Bft)
19.08.2016 01:51 12,3 C 12,3 C 95 % 1010,7 hPa 0,0 mm 0,0 km/h (0 Bft) O-NO 57 0 min 0,000 mm 0,0 UV-I 0 W/m 11,5 C 0,0 km/h (0 Bft)
19.08.2016 01:52 12,3 C 12,3 C 96 % 1010,7 hPa 0,0 mm 0,0 km/h (0 Bft) O-NO 57 0 min 0,000 mm 0,0 UV-I 0 W/m 11,7 C 0,0 km/h (0 Bft)
19.08.2016 01:53 12,3 C 12,3 C 96 % 1010,6 hPa 0,0 mm 0,0 km/h (0 Bft) O-NO 57 0 min 0,000 mm 0,0 UV-I 0 W/m 11,7 C 0,0 km/h (0 Bft)
19.08.2016 01:54 12,3 C 12,3 C 96 % 1010,7 hPa 0,0 mm 0,0 km/h (0 Bft) O-NO 57 0 min 0,000 mm 0,0 UV-I 0 W/m 11,7 C 0,0 km/h (0 Bft)
19.08.2016 01:55 12,3 C 12,3 C 96 % 1010,6 hPa 0,0 mm 0,0 km/h (0 Bft) O-NO 57 0 min 0,000 mm 0,0 UV-I 0 W/m 11,7 C 0,0 km/h (0 Bft)
19.08.2016 01:56 12,4 C 12,4 C 95 % 1010,6 hPa 0,0 mm 0,0 km/h (0 Bft) O-NO 57 0 min 0,000 mm 0,0 UV-I 0 W/m 11,6 C 0,0 km/h (0 Bft)
19.08.2016 01:57 12,4 C 12,4 C 96 % 1010,6 hPa 0,0 mm 0,0 km/h (0 Bft) O-NO 57 0 min 0,000 mm 0,0 UV-I 0 W/m 11,8 C 0,0 km/h (0 Bft)
19.08.2016 01:58 12,4 C 12,4 C 96 % 1010,7 hPa 0,0 mm 0,0 km/h (0 Bft) O-NO 57 0 min 0,000 mm 0,0 UV-I 0 W/m 11,8 C 0,0 km/h (0 Bft)
19.08.2016 01:59 12,4 C 12,4 C 95 % 1010,7 hPa 0,0 mm 0,0 km/h (0 Bft) O-NO 57 0 min 0,000 mm 0,0 UV-I 0 W/m 11,6 C 0,0 km/h (0 Bft)
19.08.2016 02:00 12,4 C 12,4 C 95 % 1010,6 hPa 0,0 mm 0,0 km/h (0 Bft) O-NO 57 0 min 0,000 mm 0,0 UV-I 0 W/m 11,6 C 0,0 km/h (0 Bft)
19.08.2016 02:01 12,4 C 12,4 C 95 % 1010,6 hPa 0,0 mm 0,0 km/h (0 Bft) O-NO 57 0 min 0,000 mm 0,0 UV-I 0 W/m 11,6 C 0,0 km/h (0 Bft)
19.08.2016 02:02 12,4 C 12,4 C 95 % 1010,6 hPa 0,0 mm 0,0 km/h (0 Bft) O-NO 57 0 min 0,000 mm 0,0 UV-I 0 W/m 11,6 C 0,0 km/h (0 Bft)
19.08.2016 02:03 12,4 C 12,4 C 95 % 1010,6 hPa 0,0 mm 0,0 km/h (0 Bft) O-NO 57 0 min 0,000 mm 0,0 UV-I 0 W/m 11,6 C 0,0 km/h (0 Bft)
19.08.2016 02:04 12,5 C 12,5 C 95 % 1010,6 hPa 0,0 mm 0,0 km/h (0 Bft) O-NO 57 0 min 0,000 mm 0,0 UV-I 0 W/m 11,7 C 0,0 km/h (0 Bft)
19.08.2016 02:05 12,4 C 12,5 C 95 % 1010,6 hPa 0,0 mm 0,0 km/h (0 Bft) O-NO 57 0 min 0,000 mm 0,0 UV-I 0 W/m 11,6 C 0,0 km/h (0 Bft)
19.08.2016 02:06 12,5 C 12,5 C 95 % 1010,6 hPa 0,0 mm 0,0 km/h (0 Bft) O-NO 57 0 min 0,000 mm 0,0 UV-I 0 W/m 11,7 C 0,0 km/h (0 Bft)
19.08.2016 02:07 12,5 C 12,5 C 95 % 1010,5 hPa 0,0 mm 0,0 km/h (0 Bft) O-NO 57 0 min 0,000 mm 0,0 UV-I 0 W/m 11,7 C 0,0 km/h (0 Bft)
19.08.2016 02:08 12,5 C 12,5 C 95 % 1010,6 hPa 0,0 mm 0,0 km/h (0 Bft) O-NO 57 0 min 0,000 mm 0,0 UV-I 0 W/m 11,7 C 0,0 km/h (0 Bft)
19.08.2016 02:09 12,5 C 12,5 C 95 % 1010,6 hPa 0,0 mm 0,0 km/h (0 Bft) O-NO 57 0 min 0,000 mm 0,0 UV-I 0 W/m 11,7 C 0,0 km/h (0 Bft)
19.08.2016 02:10 12,5 C 12,5 C 95 % 1010,5 hPa 0,0 mm 0,0 km/h (0 Bft) O-NO 57 0 min 0,000 mm 0,0 UV-I 0 W/m 11,7 C 0,0 km/h (0 Bft)
19.08.2016 02:11 12,5 C 12,5 C 95 % 1010,5 hPa 0,0 mm 0,0 km/h (0 Bft) O-NO 57 0 min 0,000 mm 0,0 UV-I 0 W/m 11,7 C 0,0 km/h (0 Bft)
19.08.2016 02:12 12,5 C 12,5 C 95 % 1010,5 hPa 0,0 mm 0,0 km/h (0 Bft) O-NO 57 0 min 0,000 mm 0,0 UV-I 0 W/m 11,7 C 0,0 km/h (0 Bft)
19.08.2016 02:13 12,5 C 12,5 C 95 % 1010,5 hPa 0,0 mm 0,0 km/h (0 Bft) O-NO 57 0 min 0,000 mm 0,0 UV-I 0 W/m 11,7 C 0,0 km/h (0 Bft)
19.08.2016 02:14 12,5 C 12,5 C 95 % 1010,4 hPa 0,0 mm 0,0 km/h (0 Bft) O-NO 57 0 min 0,000 mm 0,0 UV-I 0 W/m 11,7 C 0,0 km/h (0 Bft)
19.08.2016 02:15 12,5 C 12,5 C 95 % 1010,4 hPa 0,0 mm 0,0 km/h (0 Bft) O-NO 57 0 min 0,000 mm 0,0 UV-I 0 W/m 11,7 C 0,0 km/h (0 Bft)
19.08.2016 02:16 12,5 C 12,5 C 95 % 1010,4 hPa 0,0 mm 0,0 km/h (0 Bft) O-NO 57 0 min 0,000 mm 0,0 UV-I 0 W/m 11,7 C 0,0 km/h (0 Bft)
19.08.2016 02:17 12,5 C 12,5 C 95 % 1010,4 hPa 0,0 mm 0,0 km/h (0 Bft) O-NO 57 0 min 0,000 mm 0,0 UV-I 0 W/m 11,7 C 0,0 km/h (0 Bft)
19.08.2016 02:18 12,5 C 12,5 C 95 % 1010,4 hPa 0,0 mm 0,0 km/h (0 Bft) O-NO 57 0 min 0,000 mm 0,0 UV-I 0 W/m 11,7 C 0,0 km/h (0 Bft)
19.08.2016 02:19 12,5 C 12,5 C 95 % 1010,4 hPa 0,0 mm 0,0 km/h (0 Bft) O-NO 57 0 min 0,000 mm 0,0 UV-I 0 W/m 11,7 C 0,0 km/h (0 Bft)
19.08.2016 02:20 12,4 C 12,5 C 95 % 1010,5 hPa 0,0 mm 0,0 km/h (0 Bft) O-NO 57 0 min 0,000 mm 0,0 UV-I 0 W/m 11,6 C 0,0 km/h (0 Bft)
19.08.2016 02:21 12,5 C 12,5 C 95 % 1010,4 hPa 0,0 mm 0,0 km/h (0 Bft) O-NO 57 0 min 0,000 mm 0,0 UV-I 0 W/m 11,7 C 0,0 km/h (0 Bft)
19.08.2016 02:22 12,5 C 12,5 C 95 % 1010,4 hPa 0,0 mm 0,0 km/h (0 Bft) O-NO 57 0 min 0,000 mm 0,0 UV-I 0 W/m 11,7 C 0,0 km/h (0 Bft)
19.08.2016 02:23 12,4 C 12,5 C 95 % 1010,4 hPa 0,0 mm 0,0 km/h (0 Bft) O-NO 57 0 min 0,000 mm 0,0 UV-I 0 W/m 11,6 C 0,0 km/h (0 Bft)
19.08.2016 02:24 12,4 C 12,5 C 95 % 1010,4 hPa 0,0 mm 0,0 km/h (0 Bft) O-NO 57 0 min 0,000 mm 0,0 UV-I 0 W/m 11,6 C 0,0 km/h (0 Bft)
19.08.2016 02:25 12,5 C 12,5 C 95 % 1010,4 hPa 0,0 mm 0,0 km/h (0 Bft) O-NO 57 0 min 0,000 mm 0,0 UV-I 0 W/m 11,7 C 0,0 km/h (0 Bft)
19.08.2016 02:26 12,5 C 12,5 C 95 % 1010,4 hPa 0,0 mm 0,0 km/h (0 Bft) O-NO 57 0 min 0,000 mm 0,0 UV-I 0 W/m 11,7 C 0,0 km/h (0 Bft)
19.08.2016 02:27 12,5 C 12,5 C 95 % 1010,4 hPa 0,0 mm 0,0 km/h (0 Bft) N-NO 17 0 min 0,000 mm 0,0 UV-I 0 W/m 11,7 C 0,0 km/h (0 Bft)
19.08.2016 02:28 12,5 C 12,5 C 95 % 1010,4 hPa 0,0 mm 0,0 km/h (0 Bft) N-NO 17 0 min 0,000 mm 0,0 UV-I 0 W/m 11,7 C 0,0 km/h (0 Bft)
19.08.2016 02:29 12,5 C 12,5 C 95 % 1010,4 hPa 0,0 mm 0,0 km/h (0 Bft) N-NO 17 0 min 0,000 mm 0,0 UV-I 0 W/m 11,7 C 0,0 km/h (0 Bft)
19.08.2016 02:30 12,4 C 12,5 C 95 % 1010,4 hPa 0,0 mm 0,0 km/h (0 Bft) N-NO 17 0 min 0,000 mm 0,0 UV-I 0 W/m 11,6 C 0,0 km/h (0 Bft)
19.08.2016 02:31 12,4 C 12,5 C 95 % 1010,4 hPa 0,0 mm 0,0 km/h (0 Bft) N-NO 17 0 min 0,000 mm 0,0 UV-I 0 W/m 11,6 C 0,0 km/h (0 Bft)
19.08.2016 02:32 12,4 C 12,5 C 95 % 1010,4 hPa 0,0 mm 0,0 km/h (0 Bft) N-NO 17 0 min 0,000 mm 0,0 UV-I 0 W/m 11,6 C 0,0 km/h (0 Bft)
19.08.2016 02:33 12,5 C 12,5 C 95 % 1010,4 hPa 0,0 mm 0,0 km/h (0 Bft) N-NO 17 0 min 0,000 mm 0,0 UV-I 0 W/m 11,7 C 0,0 km/h (0 Bft)
19.08.2016 02:34 12,5 C 12,5 C 95 % 1010,4 hPa 0,0 mm 0,0 km/h (0 Bft) N-NO 17 0 min 0,000 mm 0,0 UV-I 0 W/m 11,7 C 0,0 km/h (0 Bft)
19.08.2016 02:35 12,5 C 12,5 C 95 % 1010,4 hPa 0,0 mm 0,0 km/h (0 Bft) N-NO 17 0 min 0,000 mm 0,0 UV-I 0 W/m 11,7 C 0,0 km/h (0 Bft)
19.08.2016 02:36 12,5 C 12,5 C 95 % 1010,4 hPa 0,0 mm 0,0 km/h (0 Bft) N-NO 17 0 min 0,000 mm 0,0 UV-I 0 W/m 11,7 C 0,0 km/h (0 Bft)
19.08.2016 02:37 12,5 C 12,5 C 95 % 1010,4 hPa 0,0 mm 0,0 km/h (0 Bft) N-NO 17 0 min 0,000 mm 0,0 UV-I 0 W/m 11,7 C 0,0 km/h (0 Bft)
19.08.2016 02:38 12,5 C 12,5 C 95 % 1010,4 hPa 0,0 mm 0,0 km/h (0 Bft) N-NO 17 0 min 0,000 mm 0,0 UV-I 0 W/m 11,7 C 0,0 km/h (0 Bft)
19.08.2016 02:39 12,5 C 12,5 C 95 % 1010,3 hPa 0,0 mm 0,0 km/h (0 Bft) N-NO 17 0 min 0,000 mm 0,0 UV-I 0 W/m 11,7 C 0,0 km/h (0 Bft)
19.08.2016 02:40 12,5 C 12,5 C 95 % 1010,4 hPa 0,0 mm 0,0 km/h (0 Bft) N-NO 17 0 min 0,000 mm 0,0 UV-I 0 W/m 11,7 C 0,0 km/h (0 Bft)
19.08.2016 02:41 12,5 C 12,5 C 95 % 1010,4 hPa 0,0 mm 0,0 km/h (0 Bft) N-NO 17 0 min 0,000 mm 0,0 UV-I 0 W/m 11,7 C 0,0 km/h (0 Bft)
19.08.2016 02:42 12,5 C 12,5 C 95 % 1010,3 hPa 0,0 mm 0,0 km/h (0 Bft) NO 37 0 min 0,000 mm 0,0 UV-I 0 W/m 11,7 C 0,0 km/h (0 Bft)
19.08.2016 02:43 12,5 C 12,5 C 95 % 1010,3 hPa 0,0 mm 0,0 km/h (0 Bft) NO 37 0 min 0,000 mm 0,0 UV-I 0 W/m 11,7 C 0,0 km/h (0 Bft)
19.08.2016 02:44 12,5 C 12,5 C 95 % 1010,3 hPa 0,0 mm 0,0 km/h (0 Bft) NO 37 0 min 0,000 mm 0,0 UV-I 0 W/m 11,7 C 0,0 km/h (0 Bft)
19.08.2016 02:45 12,5 C 12,5 C 95 % 1010,3 hPa 0,0 mm 0,0 km/h (0 Bft) NO 37 0 min 0,000 mm 0,0 UV-I 0 W/m 11,7 C 0,0 km/h (0 Bft)
19.08.2016 02:46 12,5 C 12,5 C 95 % 1010,3 hPa 0,0 mm 0,0 km/h (0 Bft) NO 37 0 min 0,000 mm 0,0 UV-I 0 W/m 11,7 C 0,0 km/h (0 Bft)
19.08.2016 02:47 12,5 C 12,5 C 95 % 1010,4 hPa 0,0 mm 0,0 km/h (0 Bft) NO 37 0 min 0,000 mm 0,0 UV-I 0 W/m 11,7 C 0,0 km/h (0 Bft)
19.08.2016 02:48 12,6 C 12,6 C 95 % 1010,4 hPa 0,2 mm 0,0 km/h (0 Bft) NO 37 0 min 0,000 mm 0,0 UV-I 0 W/m 11,8 C 0,0 km/h (0 Bft)
19.08.2016 02:49 12,6 C 12,6 C 96 % 1010,4 hPa 0,0 mm 0,0 km/h (0 Bft) NO 37 0 min 0,000 mm 0,0 UV-I 0 W/m 12,0 C 0,0 km/h (0 Bft)
19.08.2016 02:50 12,5 C 12,6 C 96 % 1010,4 hPa 0,0 mm 0,0 km/h (0 Bft) NO 37 0 min 0,000 mm 0,0 UV-I 0 W/m 11,9 C 0,0 km/h (0 Bft)
19.08.2016 02:51 12,6 C 12,6 C 95 % 1010,4 hPa 0,0 mm 0,0 km/h (0 Bft) NO 37 0 min 0,000 mm 0,0 UV-I 0 W/m 11,8 C 0,0 km/h (0 Bft)
19.08.2016 02:52 12,6 C 12,6 C 95 % 1010,4 hPa 0,0 mm 0,0 km/h (0 Bft) NO 37 0 min 0,000 mm 0,0 UV-I 0 W/m 11,8 C 0,0 km/h (0 Bft)
19.08.2016 02:53 12,6 C 12,6 C 95 % 1010,4 hPa 0,0 mm 0,0 km/h (0 Bft) NO 37 0 min 0,000 mm 0,0 UV-I 0 W/m 11,8 C 0,0 km/h (0 Bft)
19.08.2016 02:54 12,5 C 12,6 C 95 % 1010,4 hPa 0,0 mm 0,0 km/h (0 Bft) NO 37 0 min 0,000 mm 0,0 UV-I 0 W/m 11,7 C 0,0 km/h (0 Bft)
19.08.2016 02:55 12,5 C 12,6 C 95 % 1010,4 hPa 0,2 mm 0,1 km/h (0 Bft) O-NO 75 0 min 0,000 mm 0,0 UV-I 0 W/m 11,7 C 1,6 km/h (1 Bft)
19.08.2016 02:56 12,6 C 12,6 C 95 % 1010,4 hPa 0,0 mm 1,9 km/h (1 Bft) O-NO 75 0 min 0,000 mm 0,0 UV-I 0 W/m 11,8 C 3,2 km/h (1 Bft)
19.08.2016 02:57 12,6 C 12,6 C 95 % 1010,4 hPa 0,0 mm 0,9 km/h (0 Bft) O-NO 75 0 min 0,000 mm 0,0 UV-I 0 W/m 11,8 C 3,2 km/h (1 Bft)
19.08.2016 02:58 12,6 C 12,6 C 95 % 1010,4 hPa 0,0 mm 0,0 km/h (0 Bft) O-NO 75 0 min 0,000 mm 0,0 UV-I 0 W/m 11,8 C 0,0 km/h (0 Bft)
19.08.2016 02:59 12,6 C 12,6 C 95 % 1010,3 hPa 0,0 mm 0,4 km/h (0 Bft) O-NO 75 0 min 0,000 mm 0,0 UV-I 0 W/m 11,8 C 1,6 km/h (1 Bft)
19.08.2016 03:00 12,6 C 12,6 C 95 % 1010,4 hPa 0,0 mm 0,1 km/h (0 Bft) O-NO 75 0 min 0,000 mm 0,0 UV-I 0 W/m 11,8 C 1,6 km/h (1 Bft)
19.08.2016 03:01 12,5 C 12,6 C 95 % 1010,3 hPa 0,0 mm 0,4 km/h (0 Bft) O-NO 75 0 min 0,000 mm 0,0 UV-I 0 W/m 11,7 C 1,6 km/h (1 Bft)
19.08.2016 03:03 12,6 C 12,6 C 95 % 1010,3 hPa 0,0 mm 0,1 km/h (0 Bft) O-NO 75 0 min 0,000 mm 0,0 UV-I 0 W/m 11,8 C 1,6 km/h (1 Bft)
19.08.2016 03:04 12,6 C 12,6 C 95 % 1010,4 hPa 0,0 mm 0,0 km/h (0 Bft) O-NO 75 0 min 0,000 mm 0,0 UV-I 0 W/m 11,8 C 0,0 km/h (0 Bft)
19.08.2016 03:05 12,5 C 12,6 C 95 % 1010,4 hPa 0,0 mm 0,0 km/h (0 Bft) O-NO 75 0 min 0,000 mm 0,0 UV-I 0 W/m 11,7 C 0,0 km/h (0 Bft)
19.08.2016 03:06 12,6 C 12,6 C 95 % 1010,5 hPa 0,0 mm 0,0 km/h (0 Bft) O-NO 75 0 min 0,000 mm 0,0 UV-I 0 W/m 11,8 C 0,0 km/h (0 Bft)
19.08.2016 03:07 12,5 C 12,6 C 95 % 1010,5 hPa 0,0 mm 0,0 km/h (0 Bft) O-NO 75 0 min 0,000 mm 0,0 UV-I 0 W/m 11,7 C 0,0 km/h (0 Bft)
19.08.2016 03:08 12,6 C 12,6 C 95 % 1010,5 hPa 0,0 mm 0,3 km/h (0 Bft) O-NO 75 0 min 0,000 mm 0,0 UV-I 0 W/m 11,8 C 1,6 km/h (1 Bft)
19.08.2016 03:09 12,5 C 12,6 C 95 % 1010,5 hPa 0,0 mm 0,0 km/h (0 Bft) O-NO 75 0 min 0,000 mm 0,0 UV-I 0 W/m 11,7 C 0,0 km/h (0 Bft)
19.08.2016 03:10 12,5 C 12,6 C 95 % 1010,5 hPa 0,0 mm 1,7 km/h (1 Bft) O-NO 75 0 min 0,000 mm 0,0 UV-I 0 W/m 11,7 C 3,2 km/h (1 Bft)
19.08.2016 03:11 12,6 C 12,6 C 95 % 1010,5 hPa 0,0 mm 1,3 km/h (1 Bft) O-NO 75 0 min 0,000 mm 0,0 UV-I 0 W/m 11,8 C 3,2 km/h (1 Bft)
19.08.2016 03:12 12,5 C 12,6 C 95 % 1010,5 hPa 0,0 mm 1,3 km/h (1 Bft) O-NO 75 0 min 0,000 mm 0,0 UV-I 0 W/m 11,7 C 1,6 km/h (1 Bft)
19.08.2016 03:13 12,6 C 12,6 C 95 % 1010,4 hPa 0,0 mm 1,5 km/h (1 Bft) O-NO 75 0 min 0,000 mm 0,0 UV-I 0 W/m 11,8 C 3,2 km/h (1 Bft)
19.08.2016 03:14 12,6 C 12,6 C 95 % 1010,5 hPa 0,0 mm 0,9 km/h (0 Bft) O-NO 75 0 min 0,000 mm 0,0 UV-I 0 W/m 11,8 C 1,6 km/h (1 Bft)
19.08.2016 03:15 12,6 C 12,6 C 95 % 1010,4 hPa 0,0 mm 1,3 km/h (1 Bft) O-NO 75 0 min 0,000 mm 0,0 UV-I 0 W/m 11,8 C 3,2 km/h (1 Bft)
19.08.2016 03:16 12,6 C 12,6 C 95 % 1010,4 hPa 0,0 mm 0,1 km/h (0 Bft) O-NO 75 0 min 0,000 mm 0,0 UV-I 0 W/m 11,8 C 1,6 km/h (1 Bft)
19.08.2016 03:17 12,6 C 12,6 C 95 % 1010,4 hPa 0,0 mm 0,0 km/h (0 Bft) O-NO 75 0 min 0,000 mm 0,0 UV-I 0 W/m 11,8 C 0,0 km/h (0 Bft)
19.08.2016 03:18 12,6 C 12,6 C 95 % 1010,3 hPa 0,0 mm 0,0 km/h (0 Bft) O-NO 75 0 min 0,000 mm 0,0 UV-I 0 W/m 11,8 C 0,0 km/h (0 Bft)
19.08.2016 03:19 12,6 C 12,6 C 95 % 1010,4 hPa 0,0 mm 0,0 km/h (0 Bft) O-NO 75 0 min 0,000 mm 0,0 UV-I 0 W/m 11,8 C 0,0 km/h (0 Bft)
19.08.2016 03:20 12,6 C 12,6 C 95 % 1010,4 hPa 0,0 mm 0,0 km/h (0 Bft) O-NO 75 0 min 0,000 mm 0,0 UV-I 0 W/m 11,8 C 0,0 km/h (0 Bft)
19.08.2016 03:21 12,6 C 12,6 C 95 % 1010,3 hPa 0,0 mm 0,0 km/h (0 Bft) O-NO 75 0 min 0,000 mm 0,0 UV-I 0 W/m 11,8 C 0,0 km/h (0 Bft)
19.08.2016 03:22 12,6 C 12,6 C 95 % 1010,4 hPa 0,0 mm 0,0 km/h (0 Bft) O-NO 75 0 min 0,000 mm 0,0 UV-I 0 W/m 11,8 C 0,0 km/h (0 Bft)
19.08.2016 03:23 12,6 C 12,6 C 96 % 1010,4 hPa 0,0 mm 0,0 km/h (0 Bft) O-NO 75 0 min 0,000 mm 0,0 UV-I 0 W/m 12,0 C 0,0 km/h (0 Bft)
19.08.2016 03:24 12,6 C 12,6 C 96 % 1010,4 hPa 0,0 mm 0,0 km/h (0 Bft) O-NO 75 0 min 0,000 mm 0,0 UV-I 0 W/m 12,0 C 0,0 km/h (0 Bft)
19.08.2016 03:25 12,6 C 12,6 C 96 % 1010,4 hPa 0,0 mm 0,0 km/h (0 Bft) O-NO 75 0 min 0,000 mm 0,0 UV-I 0 W/m 12,0 C 0,0 km/h (0 Bft)
19.08.2016 03:26 12,6 C 12,6 C 96 % 1010,4 hPa 0,0 mm 0,1 km/h (0 Bft) O-NO 75 0 min 0,000 mm 0,0 UV-I 0 W/m 12,0 C 1,6 km/h (1 Bft)
19.08.2016 03:27 12,6 C 12,6 C 96 % 1010,4 hPa 0,0 mm 0,0 km/h (0 Bft) O-NO 75 0 min 0,000 mm 0,0 UV-I 0 W/m 12,0 C 0,0 km/h (0 Bft)
19.08.2016 03:28 12,6 C 12,6 C 96 % 1010,4 hPa 0,0 mm 0,2 km/h (0 Bft) O-NO 75 0 min 0,000 mm 0,0 UV-I 0 W/m 12,0 C 1,6 km/h (1 Bft)
19.08.2016 03:29 12,6 C 12,6 C 96 % 1010,4 hPa 0,0 mm 0,1 km/h (0 Bft) O-NO 75 0 min 0,000 mm 0,0 UV-I 0 W/m 12,0 C 1,6 km/h (1 Bft)
19.08.2016 03:30 12,6 C 12,6 C 96 % 1010,3 hPa 0,0 mm 0,0 km/h (0 Bft) O-NO 75 0 min 0,000 mm 0,0 UV-I 0 W/m 12,0 C 0,0 km/h (0 Bft)
19.08.2016 03:31 12,6 C 12,6 C 96 % 1010,3 hPa 0,0 mm 0,0 km/h (0 Bft) O-NO 75 0 min 0,000 mm 0,0 UV-I 0 W/m 12,0 C 0,0 km/h (0 Bft)
19.08.2016 03:32 12,6 C 12,6 C 96 % 1010,4 hPa 0,0 mm 0,0 km/h (0 Bft) O-NO 75 0 min 0,000 mm 0,0 UV-I 0 W/m 12,0 C 0,0 km/h (0 Bft)
19.08.2016 03:33 12,6 C 12,6 C 96 % 1010,3 hPa 0,0 mm 0,1 km/h (0 Bft) O-NO 75 0 min 0,000 mm 0,0 UV-I 0 W/m 12,0 C 1,6 km/h (1 Bft)
19.08.2016 03:34 12,6 C 12,6 C 96 % 1010,3 hPa 0,0 mm 0,5 km/h (0 Bft) O-NO 75 0 min 0,000 mm 0,0 UV-I 0 W/m 12,0 C 1,6 km/h (1 Bft)
19.08.2016 03:35 12,7 C 12,7 C 96 % 1010,4 hPa 0,0 mm 0,0 km/h (0 Bft) O-NO 75 0 min 0,000 mm 0,0 UV-I 0 W/m 12,1 C 0,0 km/h (0 Bft)
19.08.2016 03:36 12,7 C 12,7 C 96 % 1010,3 hPa 0,0 mm 0,0 km/h (0 Bft) O-NO 75 0 min 0,000 mm 0,0 UV-I 0 W/m 12,1 C 0,0 km/h (0 Bft)
19.08.2016 03:37 12,7 C 12,7 C 96 % 1010,3 hPa 0,0 mm 0,1 km/h (0 Bft) O-NO 75 0 min 0,000 mm 0,0 UV-I 0 W/m 12,1 C 1,6 km/h (1 Bft)
19.08.2016 03:38 12,7 C 12,7 C 96 % 1010,3 hPa 0,0 mm 0,0 km/h (0 Bft) O-NO 75 0 min 0,000 mm 0,0 UV-I 0 W/m 12,1 C 0,0 km/h (0 Bft)
19.08.2016 03:39 12,7 C 12,7 C 96 % 1010,3 hPa 0,0 mm 0,5 km/h (0 Bft) O-NO 75 0 min 0,000 mm 0,0 UV-I 0 W/m 12,1 C 1,6 km/h (1 Bft)
19.08.2016 03:40 12,7 C 12,7 C 96 % 1010,4 hPa 0,0 mm 0,0 km/h (0 Bft) O-NO 75 0 min 0,000 mm 0,0 UV-I 0 W/m 12,1 C 0,0 km/h (0 Bft)
19.08.2016 03:41 12,7 C 12,8 C 96 % 1010,3 hPa 0,0 mm 0,0 km/h (0 Bft) O-NO 75 0 min 0,000 mm 0,0 UV-I 0 W/m 12,1 C 0,0 km/h (0 Bft)
19.08.2016 03:42 12,7 C 12,7 C 96 % 1010,3 hPa 0,0 mm 0,2 km/h (0 Bft) O-NO 75 0 min 0,000 mm 0,0 UV-I 0 W/m 12,1 C 1,6 km/h (1 Bft)
19.08.2016 03:43 12,8 C 12,8 C 96 % 1010,3 hPa 0,0 mm 0,0 km/h (0 Bft) O-NO 75 0 min 0,000 mm 0,0 UV-I 0 W/m 12,2 C 0,0 km/h (0 Bft)
19.08.2016 03:44 12,7 C 12,8 C 96 % 1010,3 hPa 0,0 mm 0,0 km/h (0 Bft) O-NO 75 0 min 0,000 mm 0,0 UV-I 0 W/m 12,1 C 0,0 km/h (0 Bft)
19.08.2016 03:45 12,7 C 12,8 C 96 % 1010,3 hPa 0,0 mm 0,1 km/h (0 Bft) O-NO 75 0 min 0,000 mm 0,0 UV-I 0 W/m 12,1 C 1,6 km/h (1 Bft)
19.08.2016 03:46 12,7 C 12,8 C 96 % 1010,3 hPa 0,0 mm 0,0 km/h (0 Bft) O-NO 75 0 min 0,000 mm 0,0 UV-I 0 W/m 12,1 C 0,0 km/h (0 Bft)
19.08.2016 03:47 12,8 C 12,8 C 96 % 1010,3 hPa 0,0 mm 0,0 km/h (0 Bft) O-NO 75 0 min 0,000 mm 0,0 UV-I 0 W/m 12,2 C 0,0 km/h (0 Bft)
19.08.2016 03:48 12,7 C 12,8 C 96 % 1010,3 hPa 0,0 mm 0,0 km/h (0 Bft) O-NO 75 0 min 0,000 mm 0,0 UV-I 0 W/m 12,1 C 0,0 km/h (0 Bft)
19.08.2016 03:49 12,7 C 12,7 C 96 % 1010,3 hPa 0,0 mm 0,0 km/h (0 Bft) O-NO 75 0 min 0,000 mm 0,0 UV-I 0 W/m 12,1 C 0,0 km/h (0 Bft)
19.08.2016 03:50 12,8 C 12,8 C 96 % 1010,3 hPa 0,0 mm 0,0 km/h (0 Bft) O-NO 75 0 min 0,000 mm 0,0 UV-I 0 W/m 12,2 C 0,0 km/h (0 Bft)
19.08.2016 03:51 12,8 C 12,8 C 96 % 1010,3 hPa 0,0 mm 0,0 km/h (0 Bft) O-NO 75 0 min 0,000 mm 0,0 UV-I 0 W/m 12,2 C 0,0 km/h (0 Bft)
19.08.2016 03:52 12,7 C 12,8 C 96 % 1010,3 hPa 0,0 mm 0,0 km/h (0 Bft) O-NO 75 0 min 0,000 mm 0,0 UV-I 0 W/m 12,1 C 0,0 km/h (0 Bft)
19.08.2016 03:53 12,8 C 12,8 C 95 % 1010,3 hPa 0,0 mm 0,0 km/h (0 Bft) O-NO 75 0 min 0,000 mm 0,0 UV-I 0 W/m 12,0 C 0,0 km/h (0 Bft)
19.08.2016 03:54 12,7 C 12,8 C 96 % 1010,3 hPa 0,0 mm 0,0 km/h (0 Bft) O-NO 75 0 min 0,000 mm 0,0 UV-I 0 W/m 12,1 C 0,0 km/h (0 Bft)
19.08.2016 03:55 12,7 C 12,7 C 95 % 1010,3 hPa 0,0 mm 0,0 km/h (0 Bft) O-NO 75 0 min 0,000 mm 0,0 UV-I 0 W/m 11,9 C 0,0 km/h (0 Bft)
19.08.2016 03:56 12,7 C 12,7 C 95 % 1010,3 hPa 0,0 mm 0,0 km/h (0 Bft) O-NO 75 0 min 0,000 mm 0,0 UV-I 0 W/m 11,9 C 0,0 km/h (0 Bft)
19.08.2016 03:57 12,7 C 12,7 C 96 % 1010,3 hPa 0,0 mm 0,0 km/h (0 Bft) O-NO 75 0 min 0,000 mm 0,0 UV-I 0 W/m 12,1 C 0,0 km/h (0 Bft)
19.08.2016 03:58 12,7 C 12,7 C 95 % 1010,3 hPa 0,0 mm 0,0 km/h (0 Bft) O-NO 75 0 min 0,000 mm 0,0 UV-I 0 W/m 11,9 C 0,0 km/h (0 Bft)
19.08.2016 03:59 12,7 C 12,7 C 95 % 1010,3 hPa 0,0 mm 0,0 km/h (0 Bft) O-NO 75 0 min 0,000 mm 0,0 UV-I 0 W/m 11,9 C 0,0 km/h (0 Bft)
19.08.2016 04:00 12,7 C 12,7 C 95 % 1010,3 hPa 0,0 mm 0,0 km/h (0 Bft) O-NO 75 0 min 0,000 mm 0,0 UV-I 0 W/m 11,9 C 0,0 km/h (0 Bft)
19.08.2016 04:01 12,7 C 12,7 C 95 % 1010,3 hPa 0,0 mm 0,0 km/h (0 Bft) O-NO 75 0 min 0,000 mm 0,0 UV-I 0 W/m 11,9 C 0,0 km/h (0 Bft)
19.08.2016 04:02 12,7 C 12,7 C 95 % 1010,3 hPa 0,0 mm 0,0 km/h (0 Bft) O-NO 75 0 min 0,000 mm 0,0 UV-I 0 W/m 11,9 C 0,0 km/h (0 Bft)
19.08.2016 04:03 12,7 C 12,7 C 96 % 1010,3 hPa 0,0 mm 0,0 km/h (0 Bft) O-NO 75 0 min 0,000 mm 0,0 UV-I 0 W/m 12,1 C 0,0 km/h (0 Bft)
19.08.2016 04:04 12,7 C 12,7 C 96 % 1010,3 hPa 0,0 mm 0,0 km/h (0 Bft) O-NO 75 0 min 0,000 mm 0,0 UV-I 0 W/m 12,1 C 0,0 km/h (0 Bft)
19.08.2016 04:05 12,7 C 12,7 C 96 % 1010,3 hPa 0,0 mm 0,0 km/h (0 Bft) O-NO 75 0 min 0,000 mm 0,0 UV-I 0 W/m 12,1 C 0,0 km/h (0 Bft)
19.08.2016 04:06 12,7 C 12,7 C 96 % 1010,3 hPa 0,0 mm 0,0 km/h (0 Bft) O-NO 75 0 min 0,000 mm 0,0 UV-I 0 W/m 12,1 C 0,0 km/h (0 Bft)
19.08.2016 04:07 12,7 C 12,7 C 96 % 1010,3 hPa 0,0 mm 0,0 km/h (0 Bft) O-NO 75 0 min 0,000 mm 0,0 UV-I 0 W/m 12,1 C 0,0 km/h (0 Bft)
19.08.2016 04:08 12,7 C 12,7 C 96 % 1010,3 hPa 0,0 mm 0,0 km/h (0 Bft) O-NO 75 0 min 0,000 mm 0,0 UV-I 0 W/m 12,1 C 0,0 km/h (0 Bft)
19.08.2016 04:09 12,6 C 12,7 C 96 % 1010,4 hPa 0,0 mm 0,0 km/h (0 Bft) O-NO 75 0 min 0,000 mm 0,0 UV-I 0 W/m 12,0 C 0,0 km/h (0 Bft)
19.08.2016 04:10 12,6 C 12,6 C 96 % 1010,4 hPa 0,0 mm 0,0 km/h (0 Bft) O-NO 75 0 min 0,000 mm 0,0 UV-I 0 W/m 12,0 C 0,0 km/h (0 Bft)
19.08.2016 04:11 12,6 C 12,6 C 96 % 1010,4 hPa 0,0 mm 0,0 km/h (0 Bft) O-NO 75 0 min 0,000 mm 0,0 UV-I 0 W/m 12,0 C 0,0 km/h (0 Bft)
19.08.2016 04:12 12,6 C 12,6 C 96 % 1010,4 hPa 0,0 mm 0,0 km/h (0 Bft) O-NO 75 0 min 0,000 mm 0,0 UV-I 0 W/m 12,0 C 0,0 km/h (0 Bft)
19.08.2016 04:13 12,6 C 12,6 C 96 % 1010,4 hPa 0,0 mm 0,5 km/h (0 Bft) O-NO 75 0 min 0,000 mm 0,0 UV-I 0 W/m 12,0 C 1,6 km/h (1 Bft)
19.08.2016 04:14 12,6 C 12,6 C 96 % 1010,4 hPa 0,0 mm 1,6 km/h (1 Bft) O-NO 75 0 min 0,000 mm 0,0 UV-I 0 W/m 12,0 C 3,2 km/h (1 Bft)
19.08.2016 04:15 12,6 C 12,6 C 96 % 1010,4 hPa 0,0 mm 0,7 km/h (0 Bft) O-NO 75 0 min 0,000 mm 0,0 UV-I 0 W/m 12,0 C 1,6 km/h (1 Bft)
19.08.2016 04:16 12,6 C 12,6 C 96 % 1010,4 hPa 0,0 mm 0,0 km/h (0 Bft) O-NO 75 0 min 0,000 mm 0,0 UV-I 0 W/m 12,0 C 0,0 km/h (0 Bft)
19.08.2016 04:17 12,6 C 12,6 C 96 % 1010,4 hPa 0,0 mm 0,2 km/h (0 Bft) O-NO 75 0 min 0,000 mm 0,0 UV-I 0 W/m 12,0 C 1,6 km/h (1 Bft)
19.08.2016 04:18 12,6 C 12,6 C 96 % 1010,4 hPa 0,0 mm 1,1 km/h (1 Bft) O-NO 75 0 min 0,000 mm 0,0 UV-I 0 W/m 12,0 C 1,6 km/h (1 Bft)
19.08.2016 04:19 12,6 C 12,6 C 96 % 1010,3 hPa 0,0 mm 0,3 km/h (0 Bft) O-NO 75 0 min 0,000 mm 0,0 UV-I 0 W/m 12,0 C 1,6 km/h (1 Bft)
19.08.2016 04:20 12,6 C 12,6 C 96 % 1010,4 hPa 0,0 mm 0,3 km/h (0 Bft) O-NO 75 0 min 0,000 mm 0,0 UV-I 0 W/m 12,0 C 1,6 km/h (1 Bft)
19.08.2016 04:21 12,6 C 12,6 C 96 % 1010,4 hPa 0,0 mm 0,0 km/h (0 Bft) O-NO 75 0 min 0,000 mm 0,0 UV-I 0 W/m 12,0 C 0,0 km/h (0 Bft)
19.08.2016 04:22 12,6 C 12,6 C 96 % 1010,4 hPa 0,0 mm 0,0 km/h (0 Bft) O-NO 75 0 min 0,000 mm 0,0 UV-I 0 W/m 12,0 C 0,0 km/h (0 Bft)
19.08.2016 04:23 12,6 C 12,6 C 96 % 1010,4 hPa 0,0 mm 0,0 km/h (0 Bft) O-NO 75 0 min 0,000 mm 0,0 UV-I 0 W/m 12,0 C 0,0 km/h (0 Bft)
19.08.2016 04:24 12,6 C 12,6 C 96 % 1010,4 hPa 0,0 mm 0,0 km/h (0 Bft) O-NO 75 0 min 0,000 mm 0,0 UV-I 0 W/m 12,0 C 0,0 km/h (0 Bft)
19.08.2016 04:25 12,6 C 12,6 C 96 % 1010,4 hPa 0,0 mm 0,0 km/h (0 Bft) O-NO 75 0 min 0,000 mm 0,0 UV-I 0 W/m 12,0 C 0,0 km/h (0 Bft)
19.08.2016 04:26 12,6 C 12,6 C 96 % 1010,5 hPa 0,0 mm 1,0 km/h (0 Bft) O-NO 75 0 min 0,000 mm 0,0 UV-I 0 W/m 12,0 C 1,6 km/h (1 Bft)
19.08.2016 04:27 12,6 C 12,6 C 96 % 1010,4 hPa 0,0 mm 1,3 km/h (1 Bft) O-NO 75 0 min 0,000 mm 0,0 UV-I 0 W/m 12,0 C 3,2 km/h (1 Bft)
19.08.2016 04:28 12,6 C 12,6 C 96 % 1010,4 hPa 0,0 mm 1,6 km/h (1 Bft) O-NO 75 0 min 0,000 mm 0,0 UV-I 0 W/m 12,0 C 1,6 km/h (1 Bft)
19.08.2016 04:29 12,6 C 12,6 C 96 % 1010,4 hPa 0,0 mm 2,4 km/h (1 Bft) O 85 0 min 0,000 mm 0,0 UV-I 0 W/m 12,0 C 3,2 km/h (1 Bft)
19.08.2016 04:30 12,6 C 12,6 C 95 % 1010,4 hPa 0,0 mm 3,0 km/h (1 Bft) O 92 0 min 0,000 mm 0,0 UV-I 0 W/m 11,8 C 4,8 km/h (1 Bft)
19.08.2016 04:31 12,6 C 12,6 C 96 % 1010,4 hPa 0,0 mm 0,1 km/h (0 Bft) O 92 0 min 0,000 mm 0,0 UV-I 0 W/m 12,0 C 1,6 km/h (1 Bft)
19.08.2016 04:32 12,6 C 12,6 C 96 % 1010,4 hPa 0,0 mm 0,0 km/h (0 Bft) O 92 0 min 0,000 mm 0,0 UV-I 0 W/m 12,0 C 0,0 km/h (0 Bft)
19.08.2016 04:33 12,6 C 12,6 C 96 % 1010,4 hPa 0,0 mm 0,0 km/h (0 Bft) O 92 0 min 0,000 mm 0,0 UV-I 0 W/m 12,0 C 0,0 km/h (0 Bft)
19.08.2016 04:34 12,6 C 12,6 C 96 % 1010,4 hPa 0,0 mm 0,0 km/h (0 Bft) O 92 0 min 0,000 mm 0,0 UV-I 0 W/m 12,0 C 0,0 km/h (0 Bft)
19.08.2016 04:35 12,6 C 12,6 C 96 % 1010,4 hPa 0,0 mm 0,0 km/h (0 Bft) O 92 0 min 0,000 mm 0,0 UV-I 0 W/m 12,0 C 0,0 km/h (0 Bft)
19.08.2016 04:36 12,6 C 12,6 C 96 % 1010,3 hPa 0,0 mm 0,0 km/h (0 Bft) O 92 0 min 0,000 mm 0,0 UV-I 0 W/m 12,0 C 0,0 km/h (0 Bft)
19.08.2016 04:37 12,6 C 12,6 C 96 % 1010,3 hPa 0,0 mm 0,0 km/h (0 Bft) O 92 0 min 0,000 mm 0,0 UV-I 0 W/m 12,0 C 0,0 km/h (0 Bft)
19.08.2016 04:38 12,6 C 12,7 C 96 % 1010,4 hPa 0,0 mm 0,0 km/h (0 Bft) O 92 0 min 0,000 mm 0,0 UV-I 0 W/m 12,0 C 0,0 km/h (0 Bft)
19.08.2016 04:39 12,6 C 12,7 C 96 % 1010,3 hPa 0,0 mm 0,0 km/h (0 Bft) O 92 0 min 0,000 mm 0,0 UV-I 0 W/m 12,0 C 0,0 km/h (0 Bft)
19.08.2016 04:40 12,6 C 12,6 C 96 % 1010,3 hPa 0,0 mm 0,0 km/h (0 Bft) O 92 0 min 0,000 mm 0,0 UV-I 0 W/m 12,0 C 0,0 km/h (0 Bft)
19.08.2016 04:41 12,6 C 12,6 C 95 % 1010,3 hPa 0,0 mm 0,0 km/h (0 Bft) O 92 0 min 0,000 mm 0,0 UV-I 0 W/m 11,8 C 0,0 km/h (0 Bft)
19.08.2016 04:42 12,6 C 12,6 C 95 % 1010,2 hPa 0,0 mm 0,0 km/h (0 Bft) O 92 0 min 0,000 mm 0,0 UV-I 0 W/m 11,8 C 0,0 km/h (0 Bft)
19.08.2016 04:43 12,6 C 12,6 C 95 % 1010,2 hPa 0,0 mm 0,0 km/h (0 Bft) O 92 0 min 0,000 mm 0,0 UV-I 0 W/m 11,8 C 0,0 km/h (0 Bft)
19.08.2016 04:44 12,6 C 12,6 C 95 % 1010,2 hPa 0,0 mm 0,0 km/h (0 Bft) O 92 0 min 0,000 mm 0,0 UV-I 0 W/m 11,8 C 0,0 km/h (0 Bft)
19.08.2016 04:45 12,6 C 12,6 C 95 % 1010,2 hPa 0,0 mm 0,0 km/h (0 Bft) O 92 0 min 0,000 mm 0,0 UV-I 0 W/m 11,8 C 0,0 km/h (0 Bft)
19.08.2016 04:46 12,6 C 12,6 C 96 % 1010,2 hPa 0,0 mm 0,0 km/h (0 Bft) O 92 0 min 0,000 mm 0,0 UV-I 0 W/m 12,0 C 0,0 km/h (0 Bft)
19.08.2016 04:47 12,6 C 12,6 C 96 % 1010,2 hPa 0,0 mm 0,1 km/h (0 Bft) O 92 0 min 0,000 mm 0,0 UV-I 0 W/m 12,0 C 1,6 km/h (1 Bft)
19.08.2016 04:48 12,6 C 12,6 C 96 % 1010,2 hPa 0,0 mm 0,0 km/h (0 Bft) O 92 0 min 0,000 mm 0,0 UV-I 0 W/m 12,0 C 0,0 km/h (0 Bft)
19.08.2016 04:49 12,6 C 12,6 C 96 % 1010,2 hPa 0,0 mm 0,0 km/h (0 Bft) O 92 0 min 0,000 mm 0,0 UV-I 0 W/m 12,0 C 0,0 km/h (0 Bft)
19.08.2016 04:50 12,6 C 12,6 C 96 % 1010,2 hPa 0,0 mm 0,3 km/h (0 Bft) O 92 0 min 0,000 mm 0,0 UV-I 0 W/m 12,0 C 1,6 km/h (1 Bft)
19.08.2016 04:51 12,6 C 12,6 C 96 % 1010,2 hPa 0,0 mm 0,6 km/h (0 Bft) O 92 0 min 0,000 mm 0,0 UV-I 0 W/m 12,0 C 1,6 km/h (1 Bft)
19.08.2016 04:52 12,5 C 12,6 C 96 % 1010,2 hPa 0,0 mm 0,1 km/h (0 Bft) O 92 0 min 0,000 mm 0,0 UV-I 0 W/m 11,9 C 1,6 km/h (1 Bft)
19.08.2016 04:53 12,5 C 12,6 C 95 % 1010,2 hPa 0,0 mm 0,5 km/h (0 Bft) O 92 0 min 0,000 mm 0,0 UV-I 0 W/m 11,7 C 1,6 km/h (1 Bft)
19.08.2016 04:54 12,5 C 12,5 C 95 % 1010,2 hPa 0,0 mm 0,7 km/h (0 Bft) O 92 0 min 0,000 mm 0,0 UV-I 0 W/m 11,7 C 1,6 km/h (1 Bft)
19.08.2016 04:55 12,5 C 12,5 C 95 % 1010,2 hPa 0,0 mm 0,9 km/h (0 Bft) O 92 0 min 0,000 mm 0,0 UV-I 0 W/m 11,7 C 1,6 km/h (1 Bft)
19.08.2016 04:56 12,5 C 12,5 C 95 % 1010,2 hPa 0,0 mm 0,2 km/h (0 Bft) O 92 0 min 0,000 mm 0,0 UV-I 0 W/m 11,7 C 1,6 km/h (1 Bft)
19.08.2016 04:57 12,5 C 12,5 C 95 % 1010,2 hPa 0,0 mm 0,0 km/h (0 Bft) O 92 0 min 0,000 mm 0,0 UV-I 0 W/m 11,7 C 0,0 km/h (0 Bft)
19.08.2016 04:58 12,4 C 12,5 C 95 % 1010,2 hPa 0,0 mm 0,0 km/h (0 Bft) O 92 0 min 0,000 mm 0,0 UV-I 0 W/m 11,6 C 0,0 km/h (0 Bft)
19.08.2016 04:59 12,5 C 12,5 C 95 % 1010,2 hPa 0,0 mm 0,0 km/h (0 Bft) O 92 0 min 0,000 mm 0,0 UV-I 0 W/m 11,7 C 0,0 km/h (0 Bft)
19.08.2016 05:00 12,5 C 12,5 C 96 % 1010,2 hPa 0,0 mm 0,0 km/h (0 Bft) O 92 0 min 0,000 mm 0,0 UV-I 0 W/m 11,9 C 0,0 km/h (0 Bft)
19.08.2016 05:01 12,5 C 12,5 C 96 % 1010,1 hPa 0,0 mm 0,5 km/h (0 Bft) O 92 0 min 0,000 mm 0,0 UV-I 0 W/m 11,9 C 1,6 km/h (1 Bft)
19.08.2016 05:02 12,5 C 12,5 C 95 % 1010,2 hPa 0,0 mm 0,5 km/h (0 Bft) O 92 0 min 0,000 mm 0,0 UV-I 0 W/m 11,7 C 1,6 km/h (1 Bft)
19.08.2016 05:03 12,4 C 12,5 C 95 % 1010,1 hPa 0,0 mm 0,0 km/h (0 Bft) O 92 0 min 0,000 mm 0,0 UV-I 0 W/m 11,6 C 0,0 km/h (0 Bft)
19.08.2016 05:04 12,4 C 12,5 C 95 % 1010,1 hPa 0,0 mm 1,1 km/h (1 Bft) W-SW 244 0 min 0,000 mm 0,0 UV-I 0 W/m 11,6 C 3,2 km/h (1 Bft)
19.08.2016 05:05 12,4 C 12,4 C 95 % 1010,2 hPa 0,0 mm 2,1 km/h (1 Bft) O-SO 118 0 min 0,000 mm 0,0 UV-I 0 W/m 11,6 C 3,2 km/h (1 Bft)
19.08.2016 05:06 12,5 C 12,5 C 96 % 1010,2 hPa 0,0 mm 0,3 km/h (0 Bft) O-SO 118 0 min 0,000 mm 0,0 UV-I 0 W/m 11,9 C 1,6 km/h (1 Bft)
19.08.2016 05:07 12,5 C 12,5 C 96 % 1010,1 hPa 0,0 mm 0,3 km/h (0 Bft) O-SO 118 0 min 0,000 mm 0,0 UV-I 0 W/m 11,9 C 1,6 km/h (1 Bft)
19.08.2016 05:08 12,5 C 12,5 C 95 % 1010,1 hPa 0,0 mm 0,7 km/h (0 Bft) O-SO 118 0 min 0,000 mm 0,0 UV-I 0 W/m 11,7 C 1,6 km/h (1 Bft)
19.08.2016 05:09 12,4 C 12,5 C 95 % 1010,1 hPa 0,0 mm 0,3 km/h (0 Bft) O-SO 118 0 min 0,000 mm 0,0 UV-I 0 W/m 11,6 C 1,6 km/h (1 Bft)
19.08.2016 05:10 12,4 C 12,4 C 95 % 1010,1 hPa 0,0 mm 0,1 km/h (0 Bft) O-SO 118 0 min 0,000 mm 0,0 UV-I 0 W/m 11,6 C 1,6 km/h (1 Bft)
19.08.2016 05:11 12,4 C 12,4 C 95 % 1010,2 hPa 0,0 mm 0,0 km/h (0 Bft) O-SO 118 0 min 0,000 mm 0,0 UV-I 0 W/m 11,6 C 0,0 km/h (0 Bft)
19.08.2016 05:12 12,4 C 12,4 C 95 % 1010,2 hPa 0,0 mm 0,0 km/h (0 Bft) O-SO 118 0 min 0,000 mm 0,0 UV-I 0 W/m 11,6 C 0,0 km/h (0 Bft)
19.08.2016 05:13 12,4 C 12,4 C 95 % 1010,2 hPa 0,0 mm 0,0 km/h (0 Bft) O-SO 118 0 min 0,000 mm 0,0 UV-I 0 W/m 11,6 C 0,0 km/h (0 Bft)
19.08.2016 05:14 12,4 C 12,4 C 95 % 1010,2 hPa 0,0 mm 0,0 km/h (0 Bft) O-SO 118 0 min 0,000 mm 0,0 UV-I 0 W/m 11,6 C 0,0 km/h (0 Bft)
19.08.2016 05:15 12,4 C 12,4 C 95 % 1010,3 hPa 0,0 mm 0,0 km/h (0 Bft) O-SO 118 0 min 0,000 mm 0,0 UV-I 0 W/m 11,6 C 0,0 km/h (0 Bft)
19.08.2016 05:16 12,3 C 12,4 C 95 % 1010,3 hPa 0,0 mm 0,0 km/h (0 Bft) O-SO 118 0 min 0,000 mm 0,0 UV-I 0 W/m 11,5 C 0,0 km/h (0 Bft)
19.08.2016 05:17 12,4 C 12,4 C 95 % 1010,3 hPa 0,0 mm 0,0 km/h (0 Bft) O-SO 118 0 min 0,000 mm 0,0 UV-I 0 W/m 11,6 C 0,0 km/h (0 Bft)
19.08.2016 05:18 12,4 C 12,4 C 95 % 1010,4 hPa 0,0 mm 0,0 km/h (0 Bft) O-SO 118 0 min 0,000 mm 0,0 UV-I 0 W/m 11,6 C 0,0 km/h (0 Bft)
19.08.2016 05:19 12,4 C 12,4 C 95 % 1010,4 hPa 0,0 mm 0,0 km/h (0 Bft) O-SO 118 0 min 0,000 mm 0,0 UV-I 0 W/m 11,6 C 0,0 km/h (0 Bft)
19.08.2016 05:20 12,4 C 12,4 C 95 % 1010,4 hPa 0,0 mm 0,0 km/h (0 Bft) O-SO 118 0 min 0,000 mm 0,0 UV-I 0 W/m 11,6 C 0,0 km/h (0 Bft)
19.08.2016 05:21 12,4 C 12,4 C 95 % 1010,4 hPa 0,0 mm 0,0 km/h (0 Bft) O-SO 118 0 min 0,000 mm 0,0 UV-I 0 W/m 11,6 C 0,0 km/h (0 Bft)
19.08.2016 05:22 12,4 C 12,4 C 95 % 1010,4 hPa 0,0 mm 0,0 km/h (0 Bft) O-SO 118 0 min 0,000 mm 0,0 UV-I 0 W/m 11,6 C 0,0 km/h (0 Bft)
19.08.2016 05:23 12,4 C 12,4 C 95 % 1010,4 hPa 0,0 mm 1,0 km/h (0 Bft) O-SO 118 0 min 0,000 mm 0,0 UV-I 0 W/m 11,6 C 1,6 km/h (1 Bft)
19.08.2016 05:24 12,4 C 12,4 C 95 % 1010,4 hPa 0,0 mm 0,6 km/h (0 Bft) O-SO 118 0 min 0,000 mm 0,0 UV-I 0 W/m 11,6 C 1,6 km/h (1 Bft)
19.08.2016 05:25 12,4 C 12,4 C 95 % 1010,4 hPa 0,0 mm 0,7 km/h (0 Bft) O-SO 118 0 min 0,000 mm 0,0 UV-I 0 W/m 11,6 C 1,6 km/h (1 Bft)
19.08.2016 05:26 12,4 C 12,4 C 95 % 1010,4 hPa 0,0 mm 1,7 km/h (1 Bft) O-SO 118 0 min 0,000 mm 0,0 UV-I 0 W/m 11,6 C 3,2 km/h (1 Bft)
19.08.2016 05:27 12,4 C 12,4 C 95 % 1010,4 hPa 0,0 mm 0,9 km/h (0 Bft) O-SO 118 0 min 0,000 mm 0,0 UV-I 0 W/m 11,6 C 1,6 km/h (1 Bft)
19.08.2016 05:28 12,4 C 12,4 C 95 % 1010,5 hPa 0,0 mm 0,5 km/h (0 Bft) O-SO 118 0 min 0,000 mm 0,0 UV-I 0 W/m 11,6 C 1,6 km/h (1 Bft)
19.08.2016 05:29 12,4 C 12,4 C 95 % 1010,4 hPa 0,0 mm 1,3 km/h (1 Bft) O-SO 118 0 min 0,000 mm 0,0 UV-I 0 W/m 11,6 C 3,2 km/h (1 Bft)
19.08.2016 05:30 12,4 C 12,4 C 95 % 1010,5 hPa 0,0 mm 1,2 km/h (1 Bft) O-SO 118 0 min 0,000 mm 0,0 UV-I 0 W/m 11,6 C 1,6 km/h (1 Bft)
19.08.2016 05:31 12,4 C 12,4 C 95 % 1010,5 hPa 0,0 mm 0,4 km/h (0 Bft) O-SO 118 0 min 0,000 mm 0,0 UV-I 0 W/m 11,6 C 1,6 km/h (1 Bft)
19.08.2016 05:32 12,4 C 12,4 C 95 % 1010,5 hPa 0,0 mm 0,0 km/h (0 Bft) O-SO 118 0 min 0,000 mm 0,0 UV-I 0 W/m 11,6 C 0,0 km/h (0 Bft)
19.08.2016 05:33 12,4 C 12,4 C 95 % 1010,5 hPa 0,0 mm 0,0 km/h (0 Bft) O-SO 118 0 min 0,000 mm 0,0 UV-I 0 W/m 11,6 C 0,0 km/h (0 Bft)
19.08.2016 05:34 12,4 C 12,4 C 95 % 1010,5 hPa 0,0 mm 0,0 km/h (0 Bft) O-SO 118 0 min 0,000 mm 0,0 UV-I 0 W/m 11,6 C 0,0 km/h (0 Bft)
19.08.2016 05:35 12,4 C 12,4 C 95 % 1010,5 hPa 0,0 mm 0,0 km/h (0 Bft) O-SO 118 0 min 0,000 mm 0,0 UV-I 0 W/m 11,6 C 0,0 km/h (0 Bft)
19.08.2016 05:36 12,4 C 12,4 C 95 % 1010,5 hPa 0,0 mm 0,0 km/h (0 Bft) O-SO 118 0 min 0,000 mm 0,0 UV-I 0 W/m 11,6 C 0,0 km/h (0 Bft)
19.08.2016 05:37 12,4 C 12,4 C 95 % 1010,5 hPa 0,0 mm 0,0 km/h (0 Bft) O-SO 118 0 min 0,000 mm 0,0 UV-I 0 W/m 11,6 C 0,0 km/h (0 Bft)
19.08.2016 05:38 12,4 C 12,4 C 95 % 1010,5 hPa 0,0 mm 0,0 km/h (0 Bft) O-SO 118 0 min 0,000 mm 0,0 UV-I 0 W/m 11,6 C 0,0 km/h (0 Bft)
19.08.2016 05:39 12,4 C 12,4 C 95 % 1010,6 hPa 0,0 mm 0,0 km/h (0 Bft) O-SO 118 0 min 0,000 mm 0,0 UV-I 0 W/m 11,6 C 0,0 km/h (0 Bft)
19.08.2016 05:40 12,4 C 12,4 C 95 % 1010,5 hPa 0,0 mm 0,0 km/h (0 Bft) O-SO 118 0 min 0,000 mm 0,0 UV-I 0 W/m 11,6 C 0,0 km/h (0 Bft)
19.08.2016 05:41 12,4 C 12,4 C 95 % 1010,5 hPa 0,0 mm 0,0 km/h (0 Bft) O-SO 118 0 min 0,000 mm 0,0 UV-I 0 W/m 11,6 C 0,0 km/h (0 Bft)
19.08.2016 05:42 12,4 C 12,4 C 95 % 1010,5 hPa 0,0 mm 0,0 km/h (0 Bft) O-SO 118 0 min 0,000 mm 0,0 UV-I 0 W/m 11,6 C 0,0 km/h (0 Bft)
19.08.2016 05:43 12,4 C 12,4 C 95 % 1010,5 hPa 0,0 mm 0,0 km/h (0 Bft) O-SO 118 0 min 0,000 mm 0,0 UV-I 0 W/m 11,6 C 0,0 km/h (0 Bft)
19.08.2016 05:44 12,4 C 12,4 C 96 % 1010,5 hPa 0,0 mm 0,0 km/h (0 Bft) O-SO 118 0 min 0,000 mm 0,0 UV-I 0 W/m 11,8 C 0,0 km/h (0 Bft)
19.08.2016 05:45 12,4 C 12,4 C 96 % 1010,5 hPa 0,0 mm 0,0 km/h (0 Bft) O-SO 118 0 min 0,000 mm 0,0 UV-I 0 W/m 11,8 C 0,0 km/h (0 Bft)
19.08.2016 05:46 12,4 C 12,4 C 96 % 1010,5 hPa 0,0 mm 0,0 km/h (0 Bft) O-SO 118 0 min 0,000 mm 0,0 UV-I 0 W/m 11,8 C 0,0 km/h (0 Bft)
19.08.2016 05:47 12,4 C 12,4 C 95 % 1010,5 hPa 0,0 mm 0,0 km/h (0 Bft) O-SO 118 0 min 0,000 mm 0,0 UV-I 0 W/m 11,6 C 0,0 km/h (0 Bft)
19.08.2016 05:48 12,4 C 12,4 C 96 % 1010,6 hPa 0,0 mm 0,0 km/h (0 Bft) O-SO 118 0 min 0,000 mm 0,0 UV-I 0 W/m 11,8 C 0,0 km/h (0 Bft)
19.08.2016 05:49 12,4 C 12,4 C 96 % 1010,5 hPa 0,0 mm 0,0 km/h (0 Bft) O-SO 118 0 min 0,000 mm 0,0 UV-I 0 W/m 11,8 C 0,0 km/h (0 Bft)
19.08.2016 05:50 12,4 C 12,4 C 96 % 1010,6 hPa 0,0 mm 0,0 km/h (0 Bft) O-SO 118 0 min 0,000 mm 0,0 UV-I 0 W/m 11,8 C 0,0 km/h (0 Bft)
19.08.2016 05:51 12,4 C 12,4 C 96 % 1010,6 hPa 0,0 mm 0,0 km/h (0 Bft) O-SO 118 0 min 0,000 mm 0,0 UV-I 0 W/m 11,8 C 0,0 km/h (0 Bft)
19.08.2016 05:52 12,4 C 12,5 C 96 % 1010,6 hPa 0,0 mm 0,0 km/h (0 Bft) O-SO 118 0 min 0,000 mm 0,0 UV-I 0 W/m 11,8 C 0,0 km/h (0 Bft)
19.08.2016 05:53 12,5 C 12,5 C 96 % 1010,6 hPa 0,0 mm 0,0 km/h (0 Bft) O-SO 118 0 min 0,000 mm 0,0 UV-I 0 W/m 11,9 C 0,0 km/h (0 Bft)
19.08.2016 05:54 12,5 C 12,5 C 96 % 1010,5 hPa 0,0 mm 0,0 km/h (0 Bft) O-SO 118 0 min 0,000 mm 0,0 UV-I 0 W/m 11,9 C 0,0 km/h (0 Bft)
19.08.2016 05:55 12,5 C 12,5 C 96 % 1010,6 hPa 0,0 mm 0,0 km/h (0 Bft) O-SO 118 0 min 0,000 mm 0,0 UV-I 0 W/m 11,9 C 0,0 km/h (0 Bft)
19.08.2016 05:56 12,5 C 12,5 C 96 % 1010,6 hPa 0,0 mm 0,0 km/h (0 Bft) O-SO 118 0 min 0,000 mm 0,0 UV-I 0 W/m 11,9 C 0,0 km/h (0 Bft)
19.08.2016 05:57 12,5 C 12,5 C 96 % 1010,6 hPa 0,0 mm 0,0 km/h (0 Bft) O-SO 118 0 min 0,000 mm 0,0 UV-I 0 W/m 11,9 C 0,0 km/h (0 Bft)
19.08.2016 05:58 12,6 C 12,6 C 96 % 1010,6 hPa 0,0 mm 0,0 km/h (0 Bft) O-SO 118 0 min 0,000 mm 0,0 UV-I 0 W/m 12,0 C 0,0 km/h (0 Bft)
19.08.2016 05:59 12,5 C 12,6 C 96 % 1010,6 hPa 0,0 mm 0,0 km/h (0 Bft) O-SO 118 0 min 0,000 mm 0,0 UV-I 0 W/m 11,9 C 0,0 km/h (0 Bft)
19.08.2016 06:00 12,5 C 12,5 C 96 % 1010,6 hPa 0,0 mm 0,0 km/h (0 Bft) O-SO 118 0 min 0,000 mm 0,0 UV-I 0 W/m 11,9 C 0,0 km/h (0 Bft)
19.08.2016 06:01 12,5 C 12,5 C 96 % 1010,6 hPa 0,0 mm 0,0 km/h (0 Bft) O-SO 118 0 min 0,000 mm 0,0 UV-I 0 W/m 11,9 C 0,0 km/h (0 Bft)
19.08.2016 06:02 12,5 C 12,6 C 96 % 1010,6 hPa 0,0 mm 0,0 km/h (0 Bft) O-SO 118 0 min 0,000 mm 0,0 UV-I 0 W/m 11,9 C 0,0 km/h (0 Bft)
19.08.2016 06:03 12,6 C 12,6 C 96 % 1010,6 hPa 0,0 mm 0,0 km/h (0 Bft) O-SO 118 0 min 0,000 mm 0,0 UV-I 0 W/m 12,0 C 0,0 km/h (0 Bft)
19.08.2016 06:04 12,6 C 12,6 C 96 % 1010,6 hPa 0,0 mm 0,0 km/h (0 Bft) O-SO 118 0 min 0,000 mm 0,0 UV-I 0 W/m 12,0 C 0,0 km/h (0 Bft)
19.08.2016 06:05 12,6 C 12,6 C 96 % 1010,6 hPa 0,0 mm 0,0 km/h (0 Bft) O-SO 118 0 min 0,000 mm 0,0 UV-I 0 W/m 12,0 C 0,0 km/h (0 Bft)
19.08.2016 06:06 12,6 C 12,6 C 96 % 1010,7 hPa 0,0 mm 0,0 km/h (0 Bft) O-SO 118 0 min 0,000 mm 0,0 UV-I 0 W/m 12,0 C 0,0 km/h (0 Bft)
19.08.2016 06:07 12,6 C 12,7 C 96 % 1010,6 hPa 0,0 mm 0,0 km/h (0 Bft) O-SO 118 0 min 0,000 mm 0,0 UV-I 0 W/m 12,0 C 0,0 km/h (0 Bft)
19.08.2016 06:08 12,7 C 12,7 C 96 % 1010,7 hPa 0,0 mm 0,0 km/h (0 Bft) O-SO 118 0 min 0,000 mm 0,0 UV-I 0 W/m 12,1 C 0,0 km/h (0 Bft)
19.08.2016 06:09 12,7 C 12,7 C 96 % 1010,7 hPa 0,0 mm 0,0 km/h (0 Bft) O-SO 118 0 min 0,000 mm 0,0 UV-I 0 W/m 12,1 C 0,0 km/h (0 Bft)
19.08.2016 06:10 12,7 C 12,7 C 96 % 1010,7 hPa 0,0 mm 0,0 km/h (0 Bft) O-SO 118 0 min 0,000 mm 0,0 UV-I 0 W/m 12,1 C 0,0 km/h (0 Bft)
19.08.2016 06:11 12,7 C 12,7 C 96 % 1010,7 hPa 0,0 mm 0,0 km/h (0 Bft) O-SO 118 0 min 0,000 mm 0,0 UV-I 0 W/m 12,1 C 0,0 km/h (0 Bft)
19.08.2016 06:12 12,7 C 12,7 C 96 % 1010,7 hPa 0,0 mm 0,0 km/h (0 Bft) O-SO 118 0 min 0,000 mm 0,0 UV-I 0 W/m 12,1 C 0,0 km/h (0 Bft)
19.08.2016 06:13 12,7 C 12,7 C 96 % 1010,8 hPa 0,0 mm 0,0 km/h (0 Bft) O-SO 118 0 min 0,000 mm 0,0 UV-I 0 W/m 12,1 C 0,0 km/h (0 Bft)
19.08.2016 06:14 12,7 C 12,7 C 96 % 1010,7 hPa 0,0 mm 0,0 km/h (0 Bft) O-SO 118 0 min 0,000 mm 0,0 UV-I 0 W/m 12,1 C 0,0 km/h (0 Bft)
19.08.2016 06:15 12,7 C 12,7 C 96 % 1010,7 hPa 0,0 mm 0,0 km/h (0 Bft) O-SO 118 0 min 0,000 mm 0,0 UV-I 0 W/m 12,1 C 0,0 km/h (0 Bft)
19.08.2016 06:16 12,7 C 12,7 C 96 % 1010,7 hPa 0,0 mm 0,0 km/h (0 Bft) O-SO 118 0 min 0,000 mm 0,0 UV-I 0 W/m 12,1 C 0,0 km/h (0 Bft)
19.08.2016 06:17 12,7 C 12,7 C 96 % 1010,7 hPa 0,0 mm 0,0 km/h (0 Bft) O-SO 118 0 min 0,000 mm 0,0 UV-I 0 W/m 12,1 C 0,0 km/h (0 Bft)
19.08.2016 06:18 12,7 C 12,7 C 96 % 1010,7 hPa 0,0 mm 0,0 km/h (0 Bft) O-SO 118 0 min 0,000 mm 0,0 UV-I 0 W/m 12,1 C 0,0 km/h (0 Bft)
19.08.2016 06:19 12,7 C 12,7 C 96 % 1010,7 hPa 0,0 mm 0,0 km/h (0 Bft) O-SO 118 0 min 0,000 mm 0,0 UV-I 0 W/m 12,1 C 0,0 km/h (0 Bft)
19.08.2016 06:20 12,7 C 12,7 C 96 % 1010,7 hPa 0,0 mm 0,0 km/h (0 Bft) O-SO 118 0 min 0,000 mm 0,0 UV-I 0 W/m 12,1 C 0,0 km/h (0 Bft)
19.08.2016 06:21 12,7 C 12,7 C 96 % 1010,7 hPa 0,0 mm 0,0 km/h (0 Bft) O-SO 118 0 min 0,000 mm 0,0 UV-I 0 W/m 12,1 C 0,0 km/h (0 Bft)
19.08.2016 06:22 12,7 C 12,7 C 96 % 1010,7 hPa 0,0 mm 0,0 km/h (0 Bft) O-SO 118 0 min 0,000 mm 0,0 UV-I 0 W/m 12,1 C 0,0 km/h (0 Bft)
19.08.2016 06:23 12,6 C 12,7 C 96 % 1010,7 hPa 0,0 mm 0,0 km/h (0 Bft) O-SO 118 0 min 0,000 mm 0,0 UV-I 0 W/m 12,0 C 0,0 km/h (0 Bft)
19.08.2016 06:24 12,6 C 12,7 C 96 % 1010,7 hPa 0,0 mm 0,0 km/h (0 Bft) O-SO 118 0 min 0,000 mm 0,0 UV-I 0 W/m 12,0 C 0,0 km/h (0 Bft)
19.08.2016 06:25 12,6 C 12,7 C 96 % 1010,7 hPa 0,0 mm 0,0 km/h (0 Bft) O-SO 118 0 min 0,000 mm 0,0 UV-I 0 W/m 12,0 C 0,0 km/h (0 Bft)
19.08.2016 06:26 12,6 C 12,6 C 96 % 1010,7 hPa 0,0 mm 0,0 km/h (0 Bft) O-SO 118 0 min 0,000 mm 0,0 UV-I 0 W/m 12,0 C 0,0 km/h (0 Bft)
19.08.2016 06:27 12,6 C 12,6 C 96 % 1010,7 hPa 0,0 mm 0,0 km/h (0 Bft) O-SO 118 0 min 0,000 mm 0,0 UV-I 0 W/m 12,0 C 0,0 km/h (0 Bft)
19.08.2016 06:28 12,6 C 12,6 C 96 % 1010,6 hPa 0,0 mm 0,0 km/h (0 Bft) O-SO 118 0 min 0,000 mm 0,0 UV-I 0 W/m 12,0 C 0,0 km/h (0 Bft)
19.08.2016 06:29 12,6 C 12,6 C 96 % 1010,6 hPa 0,0 mm 0,0 km/h (0 Bft) O-SO 118 0 min 0,000 mm 0,0 UV-I 0 W/m 12,0 C 0,0 km/h (0 Bft)
19.08.2016 06:30 12,6 C 12,6 C 96 % 1010,7 hPa 0,0 mm 0,0 km/h (0 Bft) O-SO 118 0 min 0,000 mm 0,0 UV-I 5 W/m 12,0 C 0,0 km/h (0 Bft)
19.08.2016 06:31 12,6 C 12,6 C 96 % 1010,7 hPa 0,0 mm 0,0 km/h (0 Bft) O-SO 118 0 min 0,000 mm 0,0 UV-I 5 W/m 12,0 C 0,0 km/h (0 Bft)
19.08.2016 06:32 12,6 C 12,6 C 96 % 1010,7 hPa 0,0 mm 0,0 km/h (0 Bft) O-SO 118 0 min 0,000 mm 0,0 UV-I 5 W/m 12,0 C 0,0 km/h (0 Bft)
19.08.2016 06:33 12,6 C 12,6 C 96 % 1010,7 hPa 0,0 mm 0,0 km/h (0 Bft) O-SO 118 0 min 0,000 mm 0,0 UV-I 5 W/m 12,0 C 0,0 km/h (0 Bft)
19.08.2016 06:34 12,6 C 12,6 C 96 % 1010,7 hPa 0,0 mm 0,0 km/h (0 Bft) O-SO 118 0 min 0,000 mm 0,0 UV-I 5 W/m 12,0 C 0,0 km/h (0 Bft)
19.08.2016 06:35 12,7 C 12,7 C 96 % 1010,7 hPa 0,0 mm 0,0 km/h (0 Bft) O-SO 118 0 min 0,000 mm 0,0 UV-I 7 W/m 12,1 C 0,0 km/h (0 Bft)
19.08.2016 06:36 12,6 C 12,7 C 96 % 1010,7 hPa 0,0 mm 0,0 km/h (0 Bft) O-SO 118 0 min 0,000 mm 0,0 UV-I 9 W/m 12,0 C 0,0 km/h (0 Bft)
19.08.2016 06:37 12,7 C 12,7 C 96 % 1010,7 hPa 0,0 mm 0,0 km/h (0 Bft) O-SO 118 0 min 0,000 mm 0,0 UV-I 9 W/m 12,1 C 0,0 km/h (0 Bft)
19.08.2016 06:38 12,7 C 12,7 C 96 % 1010,7 hPa 0,0 mm 0,0 km/h (0 Bft) O-SO 118 0 min 0,000 mm 0,0 UV-I 11 W/m 12,1 C 0,0 km/h (0 Bft)
19.08.2016 06:39 12,7 C 12,7 C 96 % 1010,7 hPa 0,0 mm 0,0 km/h (0 Bft) O-SO 118 0 min 0,000 mm 0,0 UV-I 12 W/m 12,1 C 0,0 km/h (0 Bft)
19.08.2016 06:40 12,7 C 12,7 C 96 % 1010,8 hPa 0,0 mm 0,0 km/h (0 Bft) O-SO 118 0 min 0,000 mm 0,0 UV-I 12 W/m 12,1 C 0,0 km/h (0 Bft)
19.08.2016 06:41 12,7 C 12,7 C 96 % 1010,8 hPa 0,0 mm 0,0 km/h (0 Bft) O-SO 118 0 min 0,000 mm 0,0 UV-I 16 W/m 12,1 C 0,0 km/h (0 Bft)
19.08.2016 06:42 12,7 C 12,7 C 96 % 1010,8 hPa 0,0 mm 0,0 km/h (0 Bft) O-SO 118 0 min 0,000 mm 0,0 UV-I 18 W/m 12,1 C 0,0 km/h (0 Bft)
19.08.2016 06:43 12,7 C 12,7 C 96 % 1010,8 hPa 0,0 mm 0,0 km/h (0 Bft) O-SO 118 0 min 0,000 mm 0,0 UV-I 18 W/m 12,1 C 0,0 km/h (0 Bft)
19.08.2016 06:44 12,7 C 12,7 C 96 % 1010,8 hPa 0,0 mm 0,0 km/h (0 Bft) O-SO 118 0 min 0,000 mm 0,0 UV-I 18 W/m 12,1 C 0,0 km/h (0 Bft)
19.08.2016 06:45 12,7 C 12,7 C 96 % 1010,9 hPa 0,0 mm 0,0 km/h (0 Bft) O-SO 118 0 min 0,000 mm 0,0 UV-I 18 W/m 12,1 C 0,0 km/h (0 Bft)
19.08.2016 06:46 12,7 C 12,7 C 96 % 1010,8 hPa 0,0 mm 0,0 km/h (0 Bft) O-SO 118 0 min 0,000 mm 0,0 UV-I 16 W/m 12,1 C 0,0 km/h (0 Bft)
19.08.2016 06:47 12,7 C 12,7 C 96 % 1010,8 hPa 0,0 mm 0,0 km/h (0 Bft) O-SO 118 0 min 0,000 mm 0,0 UV-I 16 W/m 12,1 C 0,0 km/h (0 Bft)
19.08.2016 06:48 12,7 C 12,8 C 96 % 1010,9 hPa 0,0 mm 0,0 km/h (0 Bft) O-SO 118 0 min 0,000 mm 0,0 UV-I 16 W/m 12,1 C 0,0 km/h (0 Bft)
19.08.2016 06:49 12,8 C 12,8 C 96 % 1010,9 hPa 0,0 mm 0,0 km/h (0 Bft) O-SO 118 0 min 0,000 mm 0,0 UV-I 14 W/m 12,2 C 0,0 km/h (0 Bft)
19.08.2016 06:50 12,8 C 12,8 C 96 % 1010,9 hPa 0,0 mm 0,0 km/h (0 Bft) O-SO 118 0 min 0,000 mm 0,0 UV-I 14 W/m 12,2 C 0,0 km/h (0 Bft)
19.08.2016 06:51 12,8 C 12,8 C 96 % 1011,0 hPa 0,0 mm 0,0 km/h (0 Bft) O-SO 118 0 min 0,000 mm 0,0 UV-I 12 W/m 12,2 C 0,0 km/h (0 Bft)
19.08.2016 06:52 12,8 C 12,8 C 96 % 1010,9 hPa 0,0 mm 0,0 km/h (0 Bft) O-SO 118 0 min 0,000 mm 0,0 UV-I 12 W/m 12,2 C 0,0 km/h (0 Bft)
19.08.2016 06:53 12,8 C 12,8 C 96 % 1010,9 hPa 0,0 mm 0,0 km/h (0 Bft) O-SO 118 0 min 0,000 mm 0,0 UV-I 11 W/m 12,2 C 0,0 km/h (0 Bft)
19.08.2016 06:54 12,8 C 12,8 C 96 % 1011,0 hPa 0,0 mm 0,0 km/h (0 Bft) O-SO 118 0 min 0,000 mm 0,0 UV-I 11 W/m 12,2 C 0,0 km/h (0 Bft)
19.08.2016 06:55 12,8 C 12,8 C 96 % 1011,0 hPa 0,0 mm 0,0 km/h (0 Bft) O-SO 118 0 min 0,000 mm 0,0 UV-I 11 W/m 12,2 C 0,0 km/h (0 Bft)
19.08.2016 06:56 12,8 C 12,8 C 96 % 1011,0 hPa 0,0 mm 0,0 km/h (0 Bft) O-SO 118 0 min 0,000 mm 0,0 UV-I 12 W/m 12,2 C 0,0 km/h (0 Bft)
19.08.2016 06:57 12,8 C 12,8 C 95 % 1011,0 hPa 0,0 mm 0,0 km/h (0 Bft) O-SO 118 0 min 0,000 mm 0,0 UV-I 14 W/m 12,0 C 0,0 km/h (0 Bft)
19.08.2016 06:58 12,8 C 12,8 C 95 % 1011,0 hPa 0,0 mm 0,0 km/h (0 Bft) O-SO 118 0 min 0,000 mm 0,0 UV-I 16 W/m 12,0 C 0,0 km/h (0 Bft)
19.08.2016 06:59 12,8 C 12,8 C 95 % 1011,0 hPa 0,0 mm 0,0 km/h (0 Bft) O-SO 118 0 min 0,000 mm 0,0 UV-I 18 W/m 12,0 C 0,0 km/h (0 Bft)
19.08.2016 07:00 12,8 C 12,8 C 95 % 1011,0 hPa 0,0 mm 0,0 km/h (0 Bft) O-SO 118 0 min 0,000 mm 0,0 UV-I 23 W/m 12,0 C 0,0 km/h (0 Bft)
19.08.2016 07:01 12,8 C 12,8 C 95 % 1011,0 hPa 0,0 mm 0,0 km/h (0 Bft) O-SO 118 0 min 0,000 mm 0,0 UV-I 23 W/m 12,0 C 0,0 km/h (0 Bft)
19.08.2016 07:02 12,8 C 12,8 C 95 % 1011,0 hPa 0,0 mm 0,0 km/h (0 Bft) O-SO 118 0 min 0,000 mm 0,0 UV-I 25 W/m 12,0 C 0,0 km/h (0 Bft)
19.08.2016 07:03 12,8 C 12,8 C 95 % 1011,0 hPa 0,0 mm 0,0 km/h (0 Bft) O-SO 118 0 min 0,000 mm 0,0 UV-I 25 W/m 12,0 C 0,0 km/h (0 Bft)
19.08.2016 07:04 12,8 C 12,8 C 95 % 1011,0 hPa 0,0 mm 0,0 km/h (0 Bft) O-SO 118 0 min 0,000 mm 0,0 UV-I 26 W/m 12,0 C 0,0 km/h (0 Bft)
19.08.2016 07:05 12,8 C 12,9 C 95 % 1011,0 hPa 0,0 mm 0,0 km/h (0 Bft) O-SO 118 0 min 0,000 mm 0,0 UV-I 26 W/m 12,0 C 0,0 km/h (0 Bft)
19.08.2016 07:06 12,9 C 12,9 C 96 % 1011,0 hPa 0,0 mm 0,0 km/h (0 Bft) O-SO 118 0 min 0,000 mm 0,0 UV-I 26 W/m 12,3 C 0,0 km/h (0 Bft)
19.08.2016 07:07 12,9 C 12,9 C 95 % 1011,0 hPa 0,0 mm 0,0 km/h (0 Bft) O-SO 118 0 min 0,000 mm 0,0 UV-I 26 W/m 12,1 C 0,0 km/h (0 Bft)
19.08.2016 07:08 12,9 C 12,9 C 95 % 1011,1 hPa 0,0 mm 0,0 km/h (0 Bft) O-SO 118 0 min 0,000 mm 0,0 UV-I 26 W/m 12,1 C 0,0 km/h (0 Bft)
19.08.2016 07:09 12,9 C 12,9 C 95 % 1011,0 hPa 0,0 mm 0,0 km/h (0 Bft) O-SO 118 0 min 0,000 mm 0,0 UV-I 26 W/m 12,1 C 0,0 km/h (0 Bft)
19.08.2016 07:10 12,9 C 12,9 C 96 % 1011,1 hPa 0,0 mm 0,0 km/h (0 Bft) O-SO 118 0 min 0,000 mm 0,0 UV-I 26 W/m 12,3 C 0,0 km/h (0 Bft)
19.08.2016 07:11 12,9 C 12,9 C 96 % 1011,1 hPa 0,0 mm 0,0 km/h (0 Bft) O-SO 118 0 min 0,000 mm 0,0 UV-I 28 W/m 12,3 C 0,0 km/h (0 Bft)
19.08.2016 07:12 12,9 C 12,9 C 96 % 1011,1 hPa 0,0 mm 0,0 km/h (0 Bft) O-SO 118 0 min 0,000 mm 0,0 UV-I 30 W/m 12,3 C 0,0 km/h (0 Bft)
19.08.2016 07:13 13,0 C 13,0 C 96 % 1011,2 hPa 0,0 mm 0,0 km/h (0 Bft) O-SO 118 0 min 0,000 mm 0,0 UV-I 32 W/m 12,4 C 0,0 km/h (0 Bft)
19.08.2016 07:14 13,0 C 13,0 C 96 % 1011,1 hPa 0,0 mm 0,0 km/h (0 Bft) O-SO 118 0 min 0,000 mm 0,0 UV-I 33 W/m 12,4 C 0,0 km/h (0 Bft)
19.08.2016 07:15 13,0 C 13,0 C 95 % 1011,1 hPa 0,0 mm 0,0 km/h (0 Bft) O-SO 118 0 min 0,000 mm 0,0 UV-I 35 W/m 12,2 C 0,0 km/h (0 Bft)
19.08.2016 07:16 13,0 C 13,0 C 95 % 1011,0 hPa 0,0 mm 0,0 km/h (0 Bft) O-SO 118 0 min 0,000 mm 0,0 UV-I 37 W/m 12,2 C 0,0 km/h (0 Bft)
19.08.2016 07:17 13,0 C 13,1 C 95 % 1011,1 hPa 0,0 mm 0,0 km/h (0 Bft) O-SO 118 0 min 0,000 mm 0,0 UV-I 37 W/m 12,2 C 0,0 km/h (0 Bft)
19.08.2016 07:18 13,0 C 13,1 C 95 % 1011,1 hPa 0,0 mm 0,0 km/h (0 Bft) O-SO 118 0 min 0,000 mm 0,0 UV-I 37 W/m 12,2 C 0,0 km/h (0 Bft)
19.08.2016 07:19 13,0 C 13,1 C 95 % 1011,1 hPa 0,0 mm 0,0 km/h (0 Bft) O-SO 118 0 min 0,000 mm 0,0 UV-I 37 W/m 12,2 C 0,0 km/h (0 Bft)
19.08.2016 07:20 13,1 C 13,1 C 95 % 1011,1 hPa 0,0 mm 0,0 km/h (0 Bft) O-SO 118 0 min 0,000 mm 0,0 UV-I 37 W/m 12,3 C 0,0 km/h (0 Bft)
19.08.2016 07:21 13,0 C 13,1 C 95 % 1011,1 hPa 0,0 mm 0,0 km/h (0 Bft) O-SO 118 0 min 0,000 mm 0,0 UV-I 37 W/m 12,2 C 0,0 km/h (0 Bft)
19.08.2016 07:22 13,1 C 13,1 C 95 % 1011,2 hPa 0,0 mm 0,0 km/h (0 Bft) O-SO 118 0 min 0,000 mm 0,0 UV-I 37 W/m 12,3 C 0,0 km/h (0 Bft)
19.08.2016 07:23 13,1 C 13,1 C 95 % 1011,2 hPa 0,0 mm 0,0 km/h (0 Bft) O-SO 118 0 min 0,000 mm 0,0 UV-I 39 W/m 12,3 C 0,0 km/h (0 Bft)
19.08.2016 07:24 13,1 C 13,1 C 95 % 1011,2 hPa 0,0 mm 0,0 km/h (0 Bft) O-SO 118 0 min 0,000 mm 0,0 UV-I 39 W/m 12,3 C 0,0 km/h (0 Bft)
19.08.2016 07:25 13,1 C 13,1 C 95 % 1011,3 hPa 0,0 mm 0,0 km/h (0 Bft) O-SO 118 0 min 0,000 mm 0,0 UV-I 39 W/m 12,3 C 0,0 km/h (0 Bft)
19.08.2016 07:26 13,1 C 13,1 C 95 % 1011,3 hPa 0,0 mm 0,0 km/h (0 Bft) O-SO 118 0 min 0,000 mm 0,0 UV-I 37 W/m 12,3 C 0,0 km/h (0 Bft)
19.08.2016 07:27 13,2 C 13,2 C 95 % 1011,2 hPa 0,0 mm 0,0 km/h (0 Bft) O-SO 118 0 min 0,000 mm 0,0 UV-I 39 W/m 12,4 C 0,0 km/h (0 Bft)
19.08.2016 07:28 13,2 C 13,2 C 95 % 1011,3 hPa 0,0 mm 0,0 km/h (0 Bft) O-SO 118 0 min 0,000 mm 0,0 UV-I 39 W/m 12,4 C 0,0 km/h (0 Bft)
19.08.2016 07:29 13,2 C 13,2 C 95 % 1011,3 hPa 0,0 mm 0,0 km/h (0 Bft) O-SO 118 0 min 0,000 mm 0,0 UV-I 44 W/m 12,4 C 0,0 km/h (0 Bft)
19.08.2016 07:30 13,2 C 13,2 C 95 % 1011,3 hPa 0,0 mm 0,0 km/h (0 Bft) O-SO 118 0 min 0,000 mm 0,0 UV-I 47 W/m 12,4 C 0,0 km/h (0 Bft)
19.08.2016 07:31 13,2 C 13,2 C 95 % 1011,3 hPa 0,0 mm 0,0 km/h (0 Bft) O-SO 118 0 min 0,000 mm 0,0 UV-I 49 W/m 12,4 C 0,0 km/h (0 Bft)
19.08.2016 07:32 13,2 C 13,2 C 95 % 1011,3 hPa 0,0 mm 0,0 km/h (0 Bft) O-SO 118 0 min 0,000 mm 0,0 UV-I 49 W/m 12,4 C 0,0 km/h (0 Bft)
19.08.2016 07:33 13,2 C 13,2 C 95 % 1011,3 hPa 0,0 mm 0,0 km/h (0 Bft) O-SO 118 0 min 0,000 mm 0,0 UV-I 49 W/m 12,4 C 0,0 km/h (0 Bft)
19.08.2016 07:34 13,2 C 13,2 C 95 % 1011,3 hPa 0,0 mm 0,0 km/h (0 Bft) O-SO 118 0 min 0,000 mm 0,0 UV-I 46 W/m 12,4 C 0,0 km/h (0 Bft)
19.08.2016 07:35 13,2 C 13,2 C 95 % 1011,3 hPa 0,0 mm 0,0 km/h (0 Bft) O-SO 118 0 min 0,000 mm 0,0 UV-I 40 W/m 12,4 C 0,0 km/h (0 Bft)
19.08.2016 07:36 13,2 C 13,2 C 95 % 1011,3 hPa 0,0 mm 0,0 km/h (0 Bft) O-SO 118 0 min 0,000 mm 0,0 UV-I 37 W/m 12,4 C 0,0 km/h (0 Bft)
19.08.2016 07:37 13,2 C 13,2 C 95 % 1011,3 hPa 0,0 mm 0,0 km/h (0 Bft) O-SO 118 0 min 0,000 mm 0,0 UV-I 35 W/m 12,4 C 0,0 km/h (0 Bft)
19.08.2016 07:38 13,3 C 13,3 C 95 % 1011,3 hPa 0,0 mm 0,0 km/h (0 Bft) O-SO 118 0 min 0,000 mm 0,0 UV-I 33 W/m 12,5 C 0,0 km/h (0 Bft)
19.08.2016 07:39 13,3 C 13,3 C 95 % 1011,3 hPa 0,0 mm 0,0 km/h (0 Bft) O-SO 118 0 min 0,000 mm 0,0 UV-I 32 W/m 12,5 C 0,0 km/h (0 Bft)
19.08.2016 07:40 13,3 C 13,3 C 95 % 1011,4 hPa 0,0 mm 0,0 km/h (0 Bft) O-SO 118 0 min 0,000 mm 0,0 UV-I 32 W/m 12,5 C 0,0 km/h (0 Bft)
19.08.2016 07:41 13,3 C 13,3 C 95 % 1011,3 hPa 0,0 mm 0,0 km/h (0 Bft) O-SO 118 0 min 0,000 mm 0,0 UV-I 33 W/m 12,5 C 0,0 km/h (0 Bft)
19.08.2016 07:42 13,3 C 13,3 C 95 % 1011,4 hPa 0,0 mm 0,0 km/h (0 Bft) O-SO 118 0 min 0,000 mm 0,0 UV-I 33 W/m 12,5 C 0,0 km/h (0 Bft)
19.08.2016 07:43 13,3 C 13,3 C 95 % 1011,4 hPa 0,0 mm 0,0 km/h (0 Bft) O-SO 118 0 min 0,000 mm 0,0 UV-I 33 W/m 12,5 C 0,0 km/h (0 Bft)
19.08.2016 07:44 13,3 C 13,3 C 95 % 1011,4 hPa 0,0 mm 0,0 km/h (0 Bft) O-SO 118 0 min 0,000 mm 0,0 UV-I 35 W/m 12,5 C 0,0 km/h (0 Bft)
19.08.2016 07:45 13,3 C 13,3 C 95 % 1011,4 hPa 0,0 mm 0,0 km/h (0 Bft) O-SO 118 0 min 0,000 mm 0,0 UV-I 35 W/m 12,5 C 0,0 km/h (0 Bft)
19.08.2016 07:46 13,4 C 13,4 C 95 % 1011,4 hPa 0,0 mm 0,0 km/h (0 Bft) O-SO 118 0 min 0,000 mm 0,0 UV-I 37 W/m 12,6 C 0,0 km/h (0 Bft)
19.08.2016 07:47 13,4 C 13,4 C 95 % 1011,4 hPa 0,0 mm 0,0 km/h (0 Bft) O-SO 118 0 min 0,000 mm 0,0 UV-I 37 W/m 12,6 C 0,0 km/h (0 Bft)
19.08.2016 07:48 13,4 C 13,4 C 95 % 1011,4 hPa 0,0 mm 0,0 km/h (0 Bft) O-SO 118 0 min 0,000 mm 0,0 UV-I 37 W/m 12,6 C 0,0 km/h (0 Bft)
19.08.2016 07:49 13,4 C 13,4 C 95 % 1011,4 hPa 0,0 mm 0,0 km/h (0 Bft) O-SO 118 0 min 0,000 mm 0,0 UV-I 35 W/m 12,6 C 0,0 km/h (0 Bft)
19.08.2016 07:50 13,4 C 13,4 C 95 % 1011,4 hPa 0,0 mm 0,0 km/h (0 Bft) O-SO 118 0 min 0,000 mm 0,0 UV-I 37 W/m 12,6 C 0,0 km/h (0 Bft)
19.08.2016 07:51 13,3 C 13,4 C 95 % 1011,4 hPa 0,0 mm 0,0 km/h (0 Bft) O-SO 118 0 min 0,000 mm 0,0 UV-I 40 W/m 12,5 C 0,0 km/h (0 Bft)
19.08.2016 07:52 13,4 C 13,4 C 95 % 1011,4 hPa 0,0 mm 0,0 km/h (0 Bft) O-SO 118 0 min 0,000 mm 0,0 UV-I 53 W/m 12,6 C 0,0 km/h (0 Bft)
19.08.2016 07:53 13,4 C 13,4 C 95 % 1011,4 hPa 0,0 mm 0,0 km/h (0 Bft) O-SO 118 0 min 0,000 mm 0,5 UV-I 62 W/m 12,6 C 0,0 km/h (0 Bft)
19.08.2016 07:54 13,4 C 13,4 C 95 % 1011,4 hPa 0,0 mm 0,0 km/h (0 Bft) O-SO 118 0 min 0,000 mm 0,5 UV-I 65 W/m 12,6 C 0,0 km/h (0 Bft)
19.08.2016 07:55 13,5 C 13,5 C 95 % 1011,4 hPa 0,0 mm 0,0 km/h (0 Bft) O-SO 118 0 min 0,000 mm 0,5 UV-I 65 W/m 12,7 C 0,0 km/h (0 Bft)
19.08.2016 07:56 13,6 C 13,6 C 95 % 1011,4 hPa 0,0 mm 1,8 km/h (1 Bft) O-SO 118 0 min 0,000 mm 0,5 UV-I 69 W/m 12,8 C 3,2 km/h (1 Bft)
19.08.2016 07:57 13,6 C 13,6 C 95 % 1011,4 hPa 0,0 mm 1,9 km/h (1 Bft) O-SO 118 0 min 0,000 mm 0,6 UV-I 76 W/m 12,8 C 3,2 km/h (1 Bft)
19.08.2016 07:58 13,6 C 13,6 C 95 % 1011,4 hPa 0,0 mm 1,0 km/h (0 Bft) O-SO 118 0 min 0,000 mm 0,6 UV-I 90 W/m 12,8 C 1,6 km/h (1 Bft)
19.08.2016 07:59 13,6 C 13,6 C 95 % 1011,4 hPa 0,0 mm 0,1 km/h (0 Bft) O-SO 118 0 min 0,000 mm 0,6 UV-I 95 W/m 12,8 C 1,6 km/h (1 Bft)
19.08.2016 08:00 13,6 C 13,6 C 95 % 1011,4 hPa 0,0 mm 1,1 km/h (1 Bft) W-SW 248 0 min 0,000 mm 0,6 UV-I 100 W/m 12,8 C 3,2 km/h (1 Bft)
19.08.2016 08:01 13,7 C 13,7 C 95 % 1011,4 hPa 0,0 mm 4,2 km/h (1 Bft) W 278 0 min 0,025 mm 0,6 UV-I 98 W/m 12,9 C 4,8 km/h (1 Bft)
19.08.2016 08:02 13,8 C 13,8 C 95 % 1011,4 hPa 0,0 mm 2,8 km/h (1 Bft) W 281 0 min 0,000 mm 0,6 UV-I 95 W/m 13,0 C 4,8 km/h (1 Bft)
19.08.2016 08:03 13,8 C 13,8 C 95 % 1011,4 hPa 0,0 mm 2,7 km/h (1 Bft) W 281 0 min 0,000 mm 0,6 UV-I 91 W/m 13,0 C 3,2 km/h (1 Bft)
19.08.2016 08:04 13,9 C 13,9 C 94 % 1011,4 hPa 0,0 mm 2,3 km/h (1 Bft) W 281 0 min 0,000 mm 0,6 UV-I 91 W/m 12,9 C 3,2 km/h (1 Bft)
19.08.2016 08:05 14,0 C 14,0 C 94 % 1011,5 hPa 0,0 mm 2,2 km/h (1 Bft) W 269 0 min 0,000 mm 0,5 UV-I 93 W/m 13,0 C 3,2 km/h (1 Bft)
19.08.2016 08:06 14,1 C 14,1 C 94 % 1011,5 hPa 0,0 mm 2,1 km/h (1 Bft) W 262 0 min 0,000 mm 0,5 UV-I 90 W/m 13,1 C 4,8 km/h (1 Bft)
19.08.2016 08:07 14,2 C 14,2 C 94 % 1011,6 hPa 0,0 mm 1,7 km/h (1 Bft) W 262 0 min 0,000 mm 0,5 UV-I 81 W/m 13,2 C 3,2 km/h (1 Bft)
19.08.2016 08:08 14,2 C 14,2 C 92 % 1011,5 hPa 0,0 mm 0,3 km/h (0 Bft) W 262 0 min 0,000 mm 0,5 UV-I 79 W/m 12,9 C 1,6 km/h (1 Bft)
19.08.2016 08:09 14,2 C 14,2 C 92 % 1011,5 hPa 0,0 mm 0,0 km/h (0 Bft) W 259 0 min 0,000 mm 0,5 UV-I 79 W/m 12,9 C 0,0 km/h (0 Bft)
19.08.2016 08:10 14,2 C 14,2 C 92 % 1011,5 hPa 0,0 mm 2,1 km/h (1 Bft) SW 217 0 min 0,000 mm 0,5 UV-I 76 W/m 12,9 C 3,2 km/h (1 Bft)
19.08.2016 08:11 14,2 C 14,2 C 92 % 1011,5 hPa 0,0 mm 0,1 km/h (0 Bft) SW 217 0 min 0,000 mm 0,5 UV-I 74 W/m 12,9 C 1,6 km/h (1 Bft)
19.08.2016 08:12 14,1 C 14,2 C 92 % 1011,5 hPa 0,0 mm 0,3 km/h (0 Bft) SW 217 0 min 0,000 mm 0,0 UV-I 72 W/m 12,8 C 1,6 km/h (1 Bft)
19.08.2016 08:13 14,1 C 14,1 C 93 % 1011,5 hPa 0,0 mm 0,0 km/h (0 Bft) SW 217 0 min 0,000 mm 0,0 UV-I 69 W/m 13,0 C 0,0 km/h (0 Bft)
19.08.2016 08:14 14,1 C 14,1 C 93 % 1011,6 hPa 0,0 mm 0,0 km/h (0 Bft) SW 217 0 min 0,000 mm 0,0 UV-I 65 W/m 13,0 C 0,0 km/h (0 Bft)
19.08.2016 08:15 14,2 C 14,2 C 93 % 1011,6 hPa 0,0 mm 0,0 km/h (0 Bft) SW 217 0 min 0,000 mm 0,0 UV-I 65 W/m 13,1 C 0,0 km/h (0 Bft)
19.08.2016 08:16 14,1 C 14,2 C 93 % 1011,5 hPa 0,0 mm 0,0 km/h (0 Bft) SW 217 0 min 0,000 mm 0,5 UV-I 72 W/m 13,0 C 0,0 km/h (0 Bft)
19.08.2016 08:17 14,2 C 14,2 C 92 % 1011,6 hPa 0,0 mm 0,2 km/h (0 Bft) SW 217 0 min 0,000 mm 0,5 UV-I 72 W/m 12,9 C 1,6 km/h (1 Bft)
19.08.2016 08:18 14,2 C 14,2 C 92 % 1011,5 hPa 0,0 mm 0,7 km/h (0 Bft) SW 217 0 min 0,000 mm 0,5 UV-I 74 W/m 12,9 C 1,6 km/h (1 Bft)
19.08.2016 08:19 14,2 C 14,2 C 93 % 1011,6 hPa 0,0 mm 0,0 km/h (0 Bft) SW 217 0 min 0,000 mm 0,5 UV-I 76 W/m 13,1 C 0,0 km/h (0 Bft)
19.08.2016 08:20 14,2 C 14,2 C 93 % 1011,6 hPa 0,0 mm 1,3 km/h (1 Bft) SW 217 0 min 0,000 mm 0,6 UV-I 79 W/m 13,1 C 3,2 km/h (1 Bft)
19.08.2016 08:21 14,2 C 14,2 C 93 % 1011,6 hPa 0,0 mm 0,8 km/h (0 Bft) SW 217 0 min 0,000 mm 0,6 UV-I 84 W/m 13,1 C 1,6 km/h (1 Bft)
19.08.2016 08:22 14,2 C 14,2 C 94 % 1011,5 hPa 0,0 mm 0,5 km/h (0 Bft) SW 217 0 min 0,000 mm 0,7 UV-I 91 W/m 13,2 C 1,6 km/h (1 Bft)
19.08.2016 08:23 14,2 C 14,2 C 94 % 1011,5 hPa 0,0 mm 0,0 km/h (0 Bft) SW 217 0 min 0,000 mm 0,7 UV-I 93 W/m 13,2 C 0,0 km/h (0 Bft)
19.08.2016 08:24 14,2 C 14,2 C 94 % 1011,6 hPa 0,0 mm 0,1 km/h (0 Bft) SW 217 0 min 0,000 mm 0,7 UV-I 88 W/m 13,2 C 1,6 km/h (1 Bft)
19.08.2016 08:25 14,2 C 14,2 C 94 % 1011,5 hPa 0,0 mm 0,0 km/h (0 Bft) SW 217 0 min 0,000 mm 0,8 UV-I 77 W/m 13,2 C 0,0 km/h (0 Bft)
19.08.2016 08:26 14,1 C 14,2 C 94 % 1011,5 hPa 0,0 mm 0,0 km/h (0 Bft) S-SW 194 0 min 0,000 mm 0,8 UV-I 70 W/m 13,1 C 0,0 km/h (0 Bft)
19.08.2016 08:27 14,1 C 14,2 C 93 % 1011,5 hPa 0,0 mm 0,0 km/h (0 Bft) S-SW 194 0 min 0,000 mm 0,8 UV-I 69 W/m 13,0 C 0,0 km/h (0 Bft)
19.08.2016 08:28 14,1 C 14,1 C 93 % 1011,5 hPa 0,0 mm 0,0 km/h (0 Bft) S-SW 194 0 min 0,000 mm 0,9 UV-I 72 W/m 13,0 C 0,0 km/h (0 Bft)
19.08.2016 08:29 14,1 C 14,1 C 93 % 1011,5 hPa 0,0 mm 0,0 km/h (0 Bft) S-SW 194 0 min 0,000 mm 0,9 UV-I 76 W/m 13,0 C 0,0 km/h (0 Bft)
19.08.2016 08:30 14,1 C 14,1 C 94 % 1011,5 hPa 0,0 mm 0,0 km/h (0 Bft) S-SW 194 0 min 0,000 mm 1,0 UV-I 81 W/m 13,1 C 0,0 km/h (0 Bft)
19.08.2016 08:31 14,0 C 14,1 C 93 % 1011,5 hPa 0,0 mm 0,0 km/h (0 Bft) S-SW 194 0 min 0,000 mm 1,1 UV-I 90 W/m 12,9 C 0,0 km/h (0 Bft)
19.08.2016 08:32 14,0 C 14,1 C 93 % 1011,5 hPa 0,0 mm 0,0 km/h (0 Bft) S-SW 194 0 min 0,000 mm 1,3 UV-I 90 W/m 12,9 C 0,0 km/h (0 Bft)
19.08.2016 08:33 14,1 C 14,1 C 92 % 1011,5 hPa 0,0 mm 0,0 km/h (0 Bft) S-SW 194 0 min 0,000 mm 1,0 UV-I 90 W/m 12,8 C 0,0 km/h (0 Bft)
19.08.2016 08:34 14,1 C 14,1 C 93 % 1011,5 hPa 0,0 mm 0,0 km/h (0 Bft) S-SW 194 1 min 0,000 mm 1,3 UV-I 301 W/m 13,0 C 0,0 km/h (0 Bft)
19.08.2016 08:35 14,1 C 14,1 C 92 % 1011,5 hPa 0,0 mm 0,0 km/h (0 Bft) S-SW 194 1 min 0,000 mm 1,4 UV-I 302 W/m 12,8 C 0,0 km/h (0 Bft)
19.08.2016 08:36 14,3 C 14,3 C 94 % 1011,5 hPa 0,0 mm 0,0 km/h (0 Bft) S-SW 194 1 min 0,000 mm 1,4 UV-I 302 W/m 13,3 C 0,0 km/h (0 Bft)
19.08.2016 08:37 14,5 C 14,5 C 95 % 1011,5 hPa 0,0 mm 0,0 km/h (0 Bft) S-SW 194 1 min 0,000 mm 1,5 UV-I 304 W/m 13,7 C 0,0 km/h (0 Bft)
19.08.2016 08:38 14,6 C 14,6 C 95 % 1011,5 hPa 0,0 mm 0,0 km/h (0 Bft) S-SW 194 1 min 0,000 mm 1,5 UV-I 306 W/m 13,8 C 0,0 km/h (0 Bft)
19.08.2016 08:39 14,7 C 14,7 C 94 % 1011,6 hPa 0,0 mm 0,0 km/h (0 Bft) S-SW 194 1 min 0,000 mm 1,5 UV-I 313 W/m 13,7 C 0,0 km/h (0 Bft)
19.08.2016 08:40 14,7 C 14,7 C 92 % 1011,5 hPa 0,0 mm 0,0 km/h (0 Bft) S-SW 194 1 min 0,000 mm 1,5 UV-I 322 W/m 13,4 C 0,0 km/h (0 Bft)
19.08.2016 08:41 14,7 C 14,7 C 92 % 1011,5 hPa 0,0 mm 0,0 km/h (0 Bft) S-SW 194 1 min 0,000 mm 1,1 UV-I 322 W/m 13,4 C 0,0 km/h (0 Bft)
19.08.2016 08:42 14,6 C 14,7 C 92 % 1011,5 hPa 0,0 mm 0,0 km/h (0 Bft) S-SW 194 1 min 0,000 mm 1,6 UV-I 322 W/m 13,3 C 0,0 km/h (0 Bft)
19.08.2016 08:43 14,6 C 14,6 C 92 % 1011,5 hPa 0,0 mm 0,0 km/h (0 Bft) S-SW 194 1 min 0,000 mm 1,6 UV-I 322 W/m 13,3 C 0,0 km/h (0 Bft)
19.08.2016 08:44 14,5 C 14,6 C 91 % 1011,5 hPa 0,0 mm 0,0 km/h (0 Bft) S-SW 194 1 min 0,000 mm 1,6 UV-I 318 W/m 13,0 C 0,0 km/h (0 Bft)
19.08.2016 08:45 14,6 C 14,6 C 92 % 1011,6 hPa 0,0 mm 0,0 km/h (0 Bft) S-SW 194 1 min 0,000 mm 1,6 UV-I 301 W/m 13,3 C 0,0 km/h (0 Bft)
19.08.2016 08:46 14,6 C 14,6 C 91 % 1011,5 hPa 0,0 mm 0,0 km/h (0 Bft) S-SW 194 1 min 0,000 mm 1,6 UV-I 332 W/m 13,1 C 0,0 km/h (0 Bft)
19.08.2016 08:47 14,7 C 14,7 C 90 % 1011,5 hPa 0,0 mm 0,0 km/h (0 Bft) S-SW 194 1 min 0,000 mm 1,6 UV-I 330 W/m 13,1 C 0,0 km/h (0 Bft)
19.08.2016 08:48 14,7 C 14,7 C 91 % 1011,5 hPa 0,0 mm 0,0 km/h (0 Bft) S-SW 194 1 min 0,000 mm 1,7 UV-I 330 W/m 13,2 C 0,0 km/h (0 Bft)
19.08.2016 08:49 14,8 C 14,8 C 92 % 1011,5 hPa 0,0 mm 0,0 km/h (0 Bft) S-SW 194 1 min 0,000 mm 1,7 UV-I 334 W/m 13,5 C 0,0 km/h (0 Bft)
19.08.2016 08:50 14,8 C 14,8 C 92 % 1011,5 hPa 0,0 mm 0,0 km/h (0 Bft) S-SW 194 1 min 0,000 mm 1,7 UV-I 336 W/m 13,5 C 0,0 km/h (0 Bft)
19.08.2016 08:51 14,8 C 14,8 C 91 % 1011,5 hPa 0,0 mm 0,0 km/h (0 Bft) S-SW 194 1 min 0,000 mm 1,7 UV-I 339 W/m 13,3 C 0,0 km/h (0 Bft)
19.08.2016 08:52 14,9 C 14,9 C 90 % 1011,5 hPa 0,0 mm 0,0 km/h (0 Bft) S-SW 194 1 min 0,000 mm 1,8 UV-I 341 W/m 13,3 C 0,0 km/h (0 Bft)
19.08.2016 08:53 14,9 C 14,9 C 90 % 1011,5 hPa 0,0 mm 0,0 km/h (0 Bft) S-SW 194 1 min 0,000 mm 1,8 UV-I 343 W/m 13,3 C 0,0 km/h (0 Bft)
19.08.2016 08:54 15,1 C 15,1 C 90 % 1011,5 hPa 0,0 mm 0,0 km/h (0 Bft) S-SW 194 1 min 0,000 mm 1,8 UV-I 346 W/m 13,5 C 0,0 km/h (0 Bft)
19.08.2016 08:55 15,1 C 15,1 C 89 % 1011,5 hPa 0,0 mm 0,0 km/h (0 Bft) S-SW 194 1 min 0,000 mm 1,8 UV-I 348 W/m 13,3 C 0,0 km/h (0 Bft)
19.08.2016 08:56 15,2 C 15,2 C 89 % 1011,5 hPa 0,0 mm 0,0 km/h (0 Bft) S-SW 194 1 min 0,000 mm 1,8 UV-I 352 W/m 13,4 C 0,0 km/h (0 Bft)
19.08.2016 08:57 15,3 C 15,3 C 90 % 1011,5 hPa 0,0 mm 0,0 km/h (0 Bft) S-SW 194 1 min 0,000 mm 1,9 UV-I 353 W/m 13,7 C 0,0 km/h (0 Bft)
19.08.2016 08:58 15,4 C 15,4 C 90 % 1011,5 hPa 0,0 mm 0,0 km/h (0 Bft) S-SW 194 1 min 0,000 mm 1,9 UV-I 359 W/m 13,8 C 0,0 km/h (0 Bft)
19.08.2016 08:59 15,5 C 15,5 C 90 % 1011,6 hPa 0,0 mm 0,0 km/h (0 Bft) S-SW 194 1 min 0,000 mm 1,9 UV-I 362 W/m 13,9 C 0,0 km/h (0 Bft)
19.08.2016 09:00 15,6 C 15,6 C 89 % 1011,6 hPa 0,0 mm 0,0 km/h (0 Bft) S-SW 194 1 min 0,000 mm 1,9 UV-I 364 W/m 13,8 C 0,0 km/h (0 Bft)
19.08.2016 09:01 15,6 C 15,6 C 88 % 1011,6 hPa 0,0 mm 0,0 km/h (0 Bft) S-SW 194 1 min 0,102 mm 2,0 UV-I 366 W/m 13,6 C 0,0 km/h (0 Bft)
19.08.2016 09:02 15,7 C 15,7 C 87 % 1011,6 hPa 0,0 mm 0,0 km/h (0 Bft) S-SW 194 1 min 0,000 mm 2,0 UV-I 367 W/m 13,5 C 0,0 km/h (0 Bft)
19.08.2016 09:03 15,7 C 15,7 C 87 % 1011,5 hPa 0,0 mm 0,0 km/h (0 Bft) S-SW 194 1 min 0,000 mm 2,0 UV-I 374 W/m 13,5 C 0,0 km/h (0 Bft)
19.08.2016 09:04 15,7 C 15,7 C 88 % 1011,5 hPa 0,0 mm 0,0 km/h (0 Bft) S-SW 194 1 min 0,000 mm 2,0 UV-I 376 W/m 13,7 C 0,0 km/h (0 Bft)
19.08.2016 09:05 15,7 C 15,7 C 86 % 1011,6 hPa 0,0 mm 0,0 km/h (0 Bft) S-SW 194 1 min 0,000 mm 2,1 UV-I 381 W/m 13,4 C 0,0 km/h (0 Bft)
19.08.2016 09:06 15,8 C 15,8 C 87 % 1011,5 hPa 0,0 mm 0,0 km/h (0 Bft) S-SW 194 1 min 0,000 mm 2,1 UV-I 385 W/m 13,6 C 0,0 km/h (0 Bft)
19.08.2016 09:07 15,9 C 15,9 C 88 % 1011,6 hPa 0,0 mm 0,0 km/h (0 Bft) S-SW 194 1 min 0,000 mm 2,1 UV-I 387 W/m 13,9 C 0,0 km/h (0 Bft)
19.08.2016 09:08 16,0 C 16,0 C 86 % 1011,5 hPa 0,0 mm 0,0 km/h (0 Bft) N 360 1 min 0,000 mm 2,1 UV-I 392 W/m 13,7 C 0,0 km/h (0 Bft)
19.08.2016 09:09 16,0 C 16,0 C 88 % 1011,6 hPa 0,0 mm 0,0 km/h (0 Bft) N-NW 342 1 min 0,000 mm 2,2 UV-I 394 W/m 14,0 C 0,0 km/h (0 Bft)
19.08.2016 09:10 16,1 C 16,1 C 91 % 1011,5 hPa 0,0 mm 0,0 km/h (0 Bft) N-NW 342 1 min 0,000 mm 2,2 UV-I 396 W/m 14,6 C 0,0 km/h (0 Bft)
19.08.2016 09:11 16,3 C 16,3 C 88 % 1011,6 hPa 0,0 mm 0,0 km/h (0 Bft) N-NW 342 1 min 0,000 mm 2,2 UV-I 399 W/m 14,3 C 0,0 km/h (0 Bft)
19.08.2016 09:12 16,4 C 16,4 C 85 % 1011,6 hPa 0,0 mm 0,0 km/h (0 Bft) N-NW 342 1 min 0,000 mm 2,2 UV-I 401 W/m 13,9 C 0,0 km/h (0 Bft)
19.08.2016 09:13 16,3 C 16,4 C 85 % 1011,5 hPa 0,0 mm 0,0 km/h (0 Bft) NO 34 1 min 0,000 mm 2,2 UV-I 406 W/m 13,8 C 0,0 km/h (0 Bft)
19.08.2016 09:14 16,3 C 16,3 C 84 % 1011,5 hPa 0,0 mm 0,0 km/h (0 Bft) NO 39 1 min 0,000 mm 2,3 UV-I 413 W/m 13,6 C 0,0 km/h (0 Bft)
19.08.2016 09:15 16,2 C 16,3 C 86 % 1011,5 hPa 0,0 mm 0,0 km/h (0 Bft) NO 39 1 min 0,000 mm 2,3 UV-I 415 W/m 13,9 C 0,0 km/h (0 Bft)
19.08.2016 09:16 16,2 C 16,2 C 86 % 1011,5 hPa 0,0 mm 0,0 km/h (0 Bft) NO 39 1 min 0,000 mm 2,3 UV-I 422 W/m 13,9 C 0,0 km/h (0 Bft)
19.08.2016 09:17 16,2 C 16,2 C 86 % 1011,5 hPa 0,0 mm 0,0 km/h (0 Bft) NO 39 1 min 0,000 mm 2,3 UV-I 424 W/m 13,9 C 0,0 km/h (0 Bft)
19.08.2016 09:18 16,2 C 16,2 C 89 % 1011,5 hPa 0,0 mm 0,5 km/h (0 Bft) N 360 1 min 0,000 mm 2,4 UV-I 427 W/m 14,4 C 3,2 km/h (1 Bft)
19.08.2016 09:19 16,3 C 16,3 C 87 % 1011,5 hPa 0,0 mm 3,6 km/h (1 Bft) N-NW 338 1 min 0,000 mm 2,4 UV-I 434 W/m 14,1 C 4,8 km/h (1 Bft)
19.08.2016 09:20 16,4 C 16,4 C 84 % 1011,5 hPa 0,0 mm 1,8 km/h (1 Bft) N 5 1 min 0,000 mm 2,5 UV-I 452 W/m 13,7 C 3,2 km/h (1 Bft)
19.08.2016 09:21 16,6 C 16,6 C 86 % 1011,5 hPa 0,0 mm 3,6 km/h (1 Bft) NW 306 1 min 0,000 mm 2,5 UV-I 450 W/m 14,2 C 4,8 km/h (1 Bft)
19.08.2016 09:22 16,8 C 16,8 C 86 % 1011,6 hPa 0,0 mm 1,9 km/h (1 Bft) NW 305 1 min 0,000 mm 2,6 UV-I 366 W/m 14,4 C 3,2 km/h (1 Bft)
19.08.2016 09:23 16,9 C 16,9 C 85 % 1011,5 hPa 0,0 mm 0,4 km/h (0 Bft) NW 305 1 min 0,000 mm 2,5 UV-I 313 W/m 14,4 C 1,6 km/h (1 Bft)
19.08.2016 09:24 16,9 C 16,9 C 85 % 1011,5 hPa 0,0 mm 0,2 km/h (0 Bft) NW 305 1 min 0,000 mm 2,3 UV-I 385 W/m 14,4 C 1,6 km/h (1 Bft)
19.08.2016 09:25 17,1 C 17,1 C 87 % 1011,5 hPa 0,0 mm 2,0 km/h (1 Bft) NW 305 1 min 0,000 mm 2,2 UV-I 346 W/m 14,9 C 3,2 km/h (1 Bft)
19.08.2016 09:26 17,1 C 17,1 C 83 % 1011,5 hPa 0,0 mm 2,7 km/h (1 Bft) NO 49 0 min 0,000 mm 2,6 UV-I 248 W/m 14,2 C 4,8 km/h (1 Bft)
19.08.2016 09:27 17,1 C 17,1 C 86 % 1011,5 hPa 0,0 mm 1,8 km/h (1 Bft) N 10 0 min 0,000 mm 2,8 UV-I 248 W/m 14,7 C 4,8 km/h (1 Bft)
19.08.2016 09:28 17,0 C 17,1 C 85 % 1011,6 hPa 0,0 mm 3,2 km/h (1 Bft) N 11 0 min 0,000 mm 2,7 UV-I 248 W/m 14,5 C 4,8 km/h (1 Bft)
19.08.2016 09:29 16,8 C 17,0 C 86 % 1011,5 hPa 0,0 mm 0,6 km/h (0 Bft) NO 37 1 min 0,000 mm 2,7 UV-I 515 W/m 14,4 C 1,6 km/h (1 Bft)
19.08.2016 09:30 16,7 C 16,8 C 85 % 1011,6 hPa 0,0 mm 1,3 km/h (1 Bft) W-NW 286 1 min 0,000 mm 2,9 UV-I 559 W/m 14,2 C 4,8 km/h (1 Bft)
19.08.2016 09:31 16,7 C 16,7 C 87 % 1011,5 hPa 0,0 mm 5,3 km/h (1 Bft) NW 309 1 min 0,000 mm 3,0 UV-I 601 W/m 14,5 C 8,0 km/h (2 Bft)
19.08.2016 09:32 16,9 C 16,9 C 84 % 1011,5 hPa 0,0 mm 4,3 km/h (1 Bft) W-NW 295 1 min 0,000 mm 3,0 UV-I 461 W/m 14,2 C 6,4 km/h (2 Bft)
19.08.2016 09:33 17,2 C 17,2 C 84 % 1011,6 hPa 0,0 mm 3,8 km/h (1 Bft) NW 321 1 min 0,000 mm 2,3 UV-I 383 W/m 14,5 C 6,4 km/h (2 Bft)
19.08.2016 09:34 17,3 C 17,3 C 83 % 1011,5 hPa 0,0 mm 6,2 km/h (2 Bft) NW 311 1 min 0,000 mm 2,2 UV-I 483 W/m 14,4 C 11,3 km/h (2 Bft)
19.08.2016 09:35 17,4 C 17,4 C 83 % 1011,5 hPa 0,0 mm 1,3 km/h (1 Bft) NW 309 1 min 0,000 mm 2,9 UV-I 483 W/m 14,5 C 3,2 km/h (1 Bft)
19.08.2016 09:36 17,4 C 17,4 C 84 % 1011,5 hPa 0,0 mm 3,1 km/h (1 Bft) W 265 1 min 0,000 mm 1,9 UV-I 483 W/m 14,7 C 4,8 km/h (1 Bft)
19.08.2016 09:37 17,4 C 17,4 C 80 % 1011,5 hPa 0,0 mm 6,5 km/h (2 Bft) NW 306 1 min 0,000 mm 1,7 UV-I 483 W/m 13,9 C 9,7 km/h (2 Bft)
19.08.2016 09:38 17,3 C 17,4 C 81 % 1011,5 hPa 0,0 mm 5,5 km/h (1 Bft) W-NW 292 0 min 0,000 mm 1,8 UV-I 158 W/m 14,0 C 6,4 km/h (2 Bft)
19.08.2016 09:39 17,2 C 17,3 C 82 % 1011,5 hPa 0,0 mm 5,2 km/h (1 Bft) N-NW 333 0 min 0,000 mm 1,8 UV-I 158 W/m 14,1 C 6,4 km/h (2 Bft)
19.08.2016 09:40 17,1 C 17,2 C 82 % 1011,6 hPa 0,0 mm 4,7 km/h (1 Bft) NW 308 0 min 0,000 mm 2,1 UV-I 179 W/m 14,0 C 6,4 km/h (2 Bft)
19.08.2016 09:41 17,1 C 17,1 C 82 % 1011,5 hPa 0,0 mm 2,7 km/h (1 Bft) NW 323 0 min 0,000 mm 2,7 UV-I 179 W/m 14,0 C 4,8 km/h (1 Bft)
19.08.2016 09:42 17,2 C 17,2 C 84 % 1011,5 hPa 0,0 mm 5,5 km/h (1 Bft) N-NW 329 1 min 0,000 mm 3,0 UV-I 512 W/m 14,5 C 8,0 km/h (2 Bft)
19.08.2016 09:43 17,3 C 17,3 C 85 % 1011,5 hPa 0,0 mm 4,5 km/h (1 Bft) W 280 0 min 0,000 mm 1,9 UV-I 230 W/m 14,8 C 6,4 km/h (2 Bft)
19.08.2016 09:44 17,3 C 17,3 C 82 % 1011,5 hPa 0,0 mm 7,4 km/h (2 Bft) W 265 0 min 0,000 mm 1,9 UV-I 130 W/m 14,2 C 11,3 km/h (2 Bft)
19.08.2016 09:45 17,3 C 17,3 C 80 % 1011,6 hPa 0,0 mm 5,9 km/h (2 Bft) W 277 0 min 0,000 mm 3,2 UV-I 130 W/m 13,8 C 9,7 km/h (2 Bft)
19.08.2016 09:46 17,2 C 17,3 C 81 % 1011,5 hPa 0,0 mm 4,6 km/h (1 Bft) W-NW 284 0 min 0,000 mm 3,2 UV-I 130 W/m 13,9 C 6,4 km/h (2 Bft)
19.08.2016 09:47 17,3 C 17,3 C 81 % 1011,6 hPa 0,0 mm 5,2 km/h (1 Bft) W 271 0 min 0,000 mm 3,2 UV-I 130 W/m 14,0 C 6,4 km/h (2 Bft)
19.08.2016 09:48 17,3 C 17,3 C 82 % 1011,6 hPa 0,0 mm 4,4 km/h (1 Bft) W-NW 285 1 min 0,000 mm 2,0 UV-I 512 W/m 14,2 C 6,4 km/h (2 Bft)
19.08.2016 09:49 17,3 C 17,3 C 80 % 1011,5 hPa 0,0 mm 4,6 km/h (1 Bft) W-NW 298 1 min 0,000 mm 2,6 UV-I 432 W/m 13,8 C 6,4 km/h (2 Bft)
19.08.2016 09:50 17,3 C 17,3 C 81 % 1011,6 hPa 0,0 mm 2,3 km/h (1 Bft) W-NW 298 1 min 0,000 mm 2,6 UV-I 406 W/m 14,0 C 3,2 km/h (1 Bft)
19.08.2016 09:51 17,4 C 17,4 C 83 % 1011,6 hPa 0,0 mm 7,2 km/h (2 Bft) W 270 1 min 0,000 mm 3,3 UV-I 550 W/m 14,5 C 11,3 km/h (2 Bft)
19.08.2016 09:52 17,6 C 17,6 C 82 % 1011,6 hPa 0,0 mm 6,6 km/h (2 Bft) NW 315 1 min 0,000 mm 3,3 UV-I 555 W/m 14,5 C 12,9 km/h (3 Bft)
19.08.2016 09:53 17,7 C 17,7 C 81 % 1011,6 hPa 0,0 mm 3,2 km/h (1 Bft) NW 318 1 min 0,000 mm 3,4 UV-I 568 W/m 14,4 C 4,8 km/h (1 Bft)
19.08.2016 09:54 17,7 C 17,7 C 80 % 1011,6 hPa 0,0 mm 2,4 km/h (1 Bft) NW 307 1 min 0,000 mm 3,4 UV-I 563 W/m 14,2 C 4,8 km/h (1 Bft)
19.08.2016 09:55 17,8 C 17,8 C 83 % 1011,6 hPa 0,0 mm 3,8 km/h (1 Bft) N-NW 342 1 min 0,000 mm 2,8 UV-I 594 W/m 14,9 C 4,8 km/h (1 Bft)
19.08.2016 09:56 17,9 C 17,9 C 83 % 1011,6 hPa 0,0 mm 3,6 km/h (1 Bft) W-NW 294 1 min 0,000 mm 3,5 UV-I 522 W/m 15,0 C 4,8 km/h (1 Bft)
19.08.2016 09:57 17,9 C 17,9 C 80 % 1011,7 hPa 0,0 mm 2,9 km/h (1 Bft) W-NW 296 1 min 0,000 mm 3,6 UV-I 608 W/m 14,4 C 6,4 km/h (2 Bft)
19.08.2016 09:58 17,9 C 17,9 C 80 % 1011,6 hPa 0,0 mm 4,5 km/h (1 Bft) W-NW 301 1 min 0,000 mm 3,6 UV-I 606 W/m 14,4 C 6,4 km/h (2 Bft)
19.08.2016 09:59 18,0 C 18,0 C 80 % 1011,6 hPa 0,0 mm 4,6 km/h (1 Bft) N-NW 329 1 min 0,000 mm 3,5 UV-I 619 W/m 14,5 C 8,0 km/h (2 Bft)
19.08.2016 10:00 18,0 C 18,0 C 81 % 1011,6 hPa 0,0 mm 6,2 km/h (2 Bft) NW 310 1 min 0,000 mm 3,5 UV-I 628 W/m 14,7 C 8,0 km/h (2 Bft)
19.08.2016 10:01 18,0 C 18,1 C 81 % 1011,7 hPa 0,0 mm 4,9 km/h (1 Bft) W-NW 299 1 min 0,229 mm 3,6 UV-I 663 W/m 14,7 C 8,0 km/h (2 Bft)
19.08.2016 10:02 17,9 C 18,0 C 80 % 1011,6 hPa 0,0 mm 3,9 km/h (1 Bft) W-NW 292 1 min 0,000 mm 2,2 UV-I 663 W/m 14,4 C 4,8 km/h (1 Bft)
19.08.2016 10:03 17,9 C 18,0 C 83 % 1011,7 hPa 0,0 mm 6,2 km/h (2 Bft) W 275 1 min 0,000 mm 3,9 UV-I 663 W/m 15,0 C 9,7 km/h (2 Bft)
19.08.2016 10:04 17,9 C 17,9 C 82 % 1011,6 hPa 0,0 mm 3,5 km/h (1 Bft) W 272 1 min 0,000 mm 3,3 UV-I 726 W/m 14,8 C 6,4 km/h (2 Bft)
19.08.2016 10:05 17,9 C 17,9 C 81 % 1011,6 hPa 0,0 mm 5,7 km/h (1 Bft) NW 325 1 min 0,000 mm 2,5 UV-I 726 W/m 14,6 C 6,4 km/h (2 Bft)
19.08.2016 10:06 17,9 C 17,9 C 81 % 1011,6 hPa 0,0 mm 2,6 km/h (1 Bft) NW 325 1 min 0,000 mm 2,8 UV-I 726 W/m 14,6 C 4,8 km/h (1 Bft)
19.08.2016 10:07 17,9 C 17,9 C 83 % 1011,6 hPa 0,0 mm 1,4 km/h (1 Bft) NW 323 0 min 0,000 mm 2,5 UV-I 211 W/m 15,0 C 3,2 km/h (1 Bft)
19.08.2016 10:08 17,8 C 17,9 C 80 % 1011,6 hPa 0,0 mm 4,0 km/h (1 Bft) W-NW 284 0 min 0,000 mm 2,5 UV-I 236 W/m 14,3 C 8,0 km/h (2 Bft)
19.08.2016 10:09 17,8 C 17,9 C 80 % 1011,6 hPa 0,0 mm 5,8 km/h (2 Bft) NW 307 0 min 0,000 mm 2,4 UV-I 255 W/m 14,3 C 8,0 km/h (2 Bft)
19.08.2016 10:10 17,7 C 17,8 C 82 % 1011,6 hPa 0,0 mm 2,6 km/h (1 Bft) W-NW 286 0 min 0,000 mm 2,8 UV-I 302 W/m 14,6 C 4,8 km/h (1 Bft)
19.08.2016 10:11 17,8 C 17,8 C 82 % 1011,6 hPa 0,0 mm 3,9 km/h (1 Bft) W 277 0 min 0,000 mm 3,0 UV-I 302 W/m 14,7 C 4,8 km/h (1 Bft)
19.08.2016 10:12 17,7 C 17,8 C 81 % 1011,6 hPa 0,0 mm 4,2 km/h (1 Bft) NW 323 0 min 0,000 mm 2,9 UV-I 302 W/m 14,4 C 6,4 km/h (2 Bft)
19.08.2016 10:13 17,7 C 17,8 C 80 % 1011,6 hPa 0,0 mm 3,2 km/h (1 Bft) W 280 1 min 0,000 mm 3,0 UV-I 364 W/m 14,2 C 6,4 km/h (2 Bft)
19.08.2016 10:14 17,8 C 17,8 C 81 % 1011,6 hPa 0,0 mm 4,9 km/h (1 Bft) W-SW 252 1 min 0,000 mm 3,0 UV-I 360 W/m 14,5 C 6,4 km/h (2 Bft)
19.08.2016 10:15 17,8 C 17,8 C 82 % 1011,6 hPa 0,0 mm 2,3 km/h (1 Bft) W-SW 252 1 min 0,000 mm 3,6 UV-I 360 W/m 14,7 C 4,8 km/h (1 Bft)
19.08.2016 10:16 17,9 C 17,9 C 82 % 1011,5 hPa 0,0 mm 3,2 km/h (1 Bft) W-SW 252 1 min 0,000 mm 2,7 UV-I 360 W/m 14,8 C 4,8 km/h (1 Bft)
19.08.2016 10:17 17,9 C 17,9 C 81 % 1011,5 hPa 0,0 mm 1,7 km/h (1 Bft) W-SW 254 1 min 0,000 mm 2,9 UV-I 343 W/m 14,6 C 3,2 km/h (1 Bft)
19.08.2016 10:18 17,9 C 17,9 C 81 % 1011,5 hPa 0,0 mm 4,4 km/h (1 Bft) S 178 0 min 0,000 mm 2,8 UV-I 334 W/m 14,6 C 8,0 km/h (2 Bft)
19.08.2016 10:19 17,9 C 17,9 C 82 % 1011,5 hPa 0,0 mm 2,9 km/h (1 Bft) W 281 0 min 0,000 mm 2,6 UV-I 334 W/m 14,8 C 4,8 km/h (1 Bft)
19.08.2016 10:20 17,9 C 17,9 C 80 % 1011,5 hPa 0,0 mm 3,6 km/h (1 Bft) NW 321 0 min 0,000 mm 2,6 UV-I 292 W/m 14,4 C 6,4 km/h (2 Bft)
19.08.2016 10:21 17,9 C 17,9 C 82 % 1011,5 hPa 0,0 mm 4,3 km/h (1 Bft) W 279 0 min 0,000 mm 4,7 UV-I 292 W/m 14,8 C 6,4 km/h (2 Bft)
19.08.2016 10:22 17,9 C 17,9 C 78 % 1011,5 hPa 0,0 mm 4,3 km/h (1 Bft) W 261 0 min 0,000 mm 4,1 UV-I 292 W/m 14,0 C 6,4 km/h (2 Bft)
19.08.2016 10:23 17,9 C 17,9 C 82 % 1011,5 hPa 0,0 mm 3,4 km/h (1 Bft) N-NW 333 1 min 0,000 mm 4,4 UV-I 738 W/m 14,8 C 6,4 km/h (2 Bft)
19.08.2016 10:24 18,2 C 18,2 C 80 % 1011,5 hPa 0,0 mm 3,3 km/h (1 Bft) W-NW 302 1 min 0,000 mm 4,3 UV-I 775 W/m 14,7 C 6,4 km/h (2 Bft)
19.08.2016 10:25 18,3 C 18,3 C 78 % 1011,5 hPa 0,0 mm 4,8 km/h (1 Bft) N-NW 348 1 min 0,000 mm 3,3 UV-I 775 W/m 14,4 C 6,4 km/h (2 Bft)
19.08.2016 10:26 18,3 C 18,3 C 78 % 1011,5 hPa 0,0 mm 3,6 km/h (1 Bft) W-NW 298 1 min 0,000 mm 4,3 UV-I 775 W/m 14,4 C 4,8 km/h (1 Bft)
19.08.2016 10:27 18,4 C 18,4 C 79 % 1011,5 hPa 0,0 mm 4,8 km/h (1 Bft) W-NW 282 1 min 0,000 mm 4,6 UV-I 775 W/m 14,7 C 6,4 km/h (2 Bft)
19.08.2016 10:28 18,5 C 18,5 C 77 % 1011,6 hPa 0,0 mm 5,0 km/h (1 Bft) W-SW 252 1 min 0,000 mm 4,5 UV-I 726 W/m 14,4 C 6,4 km/h (2 Bft)
19.08.2016 10:29 18,5 C 18,5 C 78 % 1011,5 hPa 0,0 mm 4,3 km/h (1 Bft) W-NW 285 1 min 0,000 mm 4,8 UV-I 726 W/m 14,6 C 6,4 km/h (2 Bft)
19.08.2016 10:30 18,5 C 18,5 C 81 % 1011,5 hPa 0,0 mm 3,8 km/h (1 Bft) W-SW 244 1 min 0,000 mm 4,1 UV-I 726 W/m 15,2 C 6,4 km/h (2 Bft)
19.08.2016 10:31 18,5 C 18,5 C 77 % 1011,5 hPa 0,0 mm 3,3 km/h (1 Bft) W 274 0 min 0,000 mm 3,0 UV-I 288 W/m 14,4 C 4,8 km/h (1 Bft)
19.08.2016 10:32 18,4 C 18,5 C 79 % 1011,5 hPa 0,0 mm 2,9 km/h (1 Bft) W-SW 257 0 min 0,000 mm 3,8 UV-I 297 W/m 14,7 C 4,8 km/h (1 Bft)
19.08.2016 10:33 18,5 C 18,5 C 81 % 1011,5 hPa 0,0 mm 2,1 km/h (1 Bft) W-SW 257 0 min 0,000 mm 3,2 UV-I 297 W/m 15,2 C 3,2 km/h (1 Bft)
19.08.2016 10:34 18,6 C 18,6 C 80 % 1011,5 hPa 0,0 mm 3,9 km/h (1 Bft) W 271 0 min 0,000 mm 4,5 UV-I 297 W/m 15,1 C 11,3 km/h (2 Bft)
19.08.2016 10:35 18,6 C 18,6 C 79 % 1011,5 hPa 0,0 mm 8,6 km/h (2 Bft) W 267 0 min 0,000 mm 3,3 UV-I 297 W/m 14,9 C 11,3 km/h (2 Bft)
19.08.2016 10:36 18,6 C 18,6 C 77 % 1011,6 hPa 0,0 mm 7,3 km/h (2 Bft) N-NW 333 1 min 0,000 mm 4,7 UV-I 475 W/m 14,5 C 11,3 km/h (2 Bft)
19.08.2016 10:37 18,5 C 18,6 C 76 % 1011,5 hPa 0,0 mm 7,7 km/h (2 Bft) NW 311 1 min 0,000 mm 3,4 UV-I 475 W/m 14,2 C 12,9 km/h (3 Bft)
19.08.2016 10:38 18,4 C 18,5 C 79 % 1011,6 hPa 0,0 mm 2,8 km/h (1 Bft) NW 306 1 min 0,000 mm 3,1 UV-I 475 W/m 14,7 C 4,8 km/h (1 Bft)
19.08.2016 10:39 18,4 C 18,4 C 78 % 1011,6 hPa 0,0 mm 1,3 km/h (1 Bft) NW 306 1 min 0,000 mm 4,1 UV-I 475 W/m 14,5 C 3,2 km/h (1 Bft)
19.08.2016 10:40 18,3 C 18,4 C 76 % 1011,5 hPa 0,0 mm 4,7 km/h (1 Bft) W-NW 285 1 min 0,000 mm 3,0 UV-I 475 W/m 14,0 C 9,7 km/h (2 Bft)
19.08.2016 10:41 18,3 C 18,3 C 78 % 1011,6 hPa 0,0 mm 7,7 km/h (2 Bft) W 263 1 min 0,000 mm 2,9 UV-I 376 W/m 14,4 C 11,3 km/h (2 Bft)
19.08.2016 10:42 18,3 C 18,3 C 77 % 1011,6 hPa 0,0 mm 6,5 km/h (2 Bft) W-SW 243 1 min 0,000 mm 4,3 UV-I 446 W/m 14,2 C 12,9 km/h (3 Bft)
19.08.2016 10:43 18,3 C 18,3 C 76 % 1011,6 hPa 0,0 mm 5,9 km/h (2 Bft) W 269 1 min 0,000 mm 4,1 UV-I 446 W/m 14,0 C 8,0 km/h (2 Bft)
19.08.2016 10:44 18,4 C 18,4 C 80 % 1011,6 hPa 0,0 mm 6,9 km/h (2 Bft) W 264 1 min 0,000 mm 2,3 UV-I 446 W/m 14,9 C 14,5 km/h (3 Bft)
19.08.2016 10:45 18,4 C 18,4 C 79 % 1011,5 hPa 0,0 mm 8,6 km/h (2 Bft) W 264 0 min 0,000 mm 2,2 UV-I 285 W/m 14,7 C 12,9 km/h (3 Bft)
19.08.2016 10:46 18,4 C 18,4 C 78 % 1011,5 hPa 0,0 mm 7,6 km/h (2 Bft) W 269 0 min 0,000 mm 2,2 UV-I 260 W/m 14,5 C 11,3 km/h (2 Bft)
19.08.2016 10:47 18,3 C 18,4 C 77 % 1011,5 hPa 0,0 mm 8,7 km/h (2 Bft) W 272 0 min 0,000 mm 2,3 UV-I 297 W/m 14,2 C 11,3 km/h (2 Bft)
19.08.2016 10:48 18,2 C 18,3 C 81 % 1011,5 hPa 0,0 mm 6,2 km/h (2 Bft) W 260 0 min 0,000 mm 2,2 UV-I 272 W/m 14,9 C 9,7 km/h (2 Bft)
19.08.2016 10:49 18,2 C 18,2 C 78 % 1011,6 hPa 0,0 mm 8,1 km/h (2 Bft) W-SW 256 0 min 0,000 mm 2,2 UV-I 257 W/m 14,3 C 11,3 km/h (2 Bft)
19.08.2016 10:50 18,1 C 18,2 C 77 % 1011,6 hPa 0,0 mm 5,2 km/h (1 Bft) W-NW 290 0 min 0,000 mm 2,2 UV-I 248 W/m 14,0 C 8,0 km/h (2 Bft)
19.08.2016 10:51 18,0 C 18,1 C 78 % 1011,6 hPa 0,0 mm 5,7 km/h (1 Bft) W 276 0 min 0,000 mm 2,2 UV-I 250 W/m 14,1 C 8,0 km/h (2 Bft)
19.08.2016 10:52 18,1 C 18,1 C 79 % 1011,6 hPa 0,0 mm 3,8 km/h (1 Bft) W-NW 291 0 min 0,000 mm 2,3 UV-I 265 W/m 14,4 C 4,8 km/h (1 Bft)
19.08.2016 10:53 18,1 C 18,1 C 80 % 1011,6 hPa 0,0 mm 5,2 km/h (1 Bft) W 271 0 min 0,000 mm 2,3 UV-I 271 W/m 14,6 C 9,7 km/h (2 Bft)
19.08.2016 10:54 18,1 C 18,1 C 79 % 1011,6 hPa 0,0 mm 3,2 km/h (1 Bft) W 260 0 min 0,000 mm 2,2 UV-I 258 W/m 14,4 C 4,8 km/h (1 Bft)
19.08.2016 10:55 18,0 C 18,1 C 77 % 1011,6 hPa 0,0 mm 3,8 km/h (1 Bft) W-SW 257 0 min 0,000 mm 2,1 UV-I 248 W/m 13,9 C 4,8 km/h (1 Bft)
19.08.2016 10:56 18,1 C 18,1 C 79 % 1011,6 hPa 0,0 mm 1,3 km/h (1 Bft) W 279 0 min 0,000 mm 2,0 UV-I 239 W/m 14,4 C 3,2 km/h (1 Bft)
19.08.2016 10:57 18,0 C 18,1 C 78 % 1011,6 hPa 0,0 mm 2,0 km/h (1 Bft) W 279 0 min 0,000 mm 2,0 UV-I 234 W/m 14,1 C 3,2 km/h (1 Bft)
19.08.2016 10:58 18,0 C 18,0 C 79 % 1011,6 hPa 0,0 mm 1,9 km/h (1 Bft) W-NW 288 0 min 0,000 mm 1,9 UV-I 220 W/m 14,3 C 3,2 km/h (1 Bft)
19.08.2016 10:59 18,1 C 18,1 C 80 % 1011,7 hPa 0,0 mm 2,1 km/h (1 Bft) W-NW 288 0 min 0,000 mm 1,8 UV-I 204 W/m 14,6 C 3,2 km/h (1 Bft)
19.08.2016 11:00 18,1 C 18,1 C 78 % 1011,6 hPa 0,0 mm 1,1 km/h (1 Bft) W-NW 288 0 min 0,000 mm 1,9 UV-I 218 W/m 14,2 C 3,2 km/h (1 Bft)
19.08.2016 11:01 18,2 C 18,2 C 79 % 1011,6 hPa 0,0 mm 4,8 km/h (1 Bft) N-NW 334 0 min 0,228 mm 2,0 UV-I 227 W/m 14,5 C 8,0 km/h (2 Bft)
19.08.2016 11:02 18,2 C 18,2 C 78 % 1011,7 hPa 0,0 mm 6,0 km/h (2 Bft) NW 306 0 min 0,000 mm 2,0 UV-I 246 W/m 14,3 C 11,3 km/h (2 Bft)
19.08.2016 11:03 18,2 C 18,2 C 80 % 1011,7 hPa 0,0 mm 4,5 km/h (1 Bft) NW 310 0 min 0,000 mm 2,0 UV-I 248 W/m 14,7 C 8,0 km/h (2 Bft)
19.08.2016 11:04 18,2 C 18,2 C 82 % 1011,8 hPa 0,0 mm 5,4 km/h (1 Bft) W-NW 303 0 min 0,000 mm 1,8 UV-I 227 W/m 15,1 C 8,0 km/h (2 Bft)
19.08.2016 11:05 18,2 C 18,2 C 80 % 1011,8 hPa 0,0 mm 6,1 km/h (2 Bft) NW 325 0 min 0,000 mm 1,8 UV-I 199 W/m 14,7 C 8,0 km/h (2 Bft)
19.08.2016 11:06 18,3 C 18,3 C 80 % 1011,8 hPa 0,0 mm 4,6 km/h (1 Bft) NW 317 0 min 0,000 mm 1,5 UV-I 181 W/m 14,8 C 6,4 km/h (2 Bft)
19.08.2016 11:07 18,2 C 18,3 C 78 % 1011,8 hPa 0,0 mm 3,2 km/h (1 Bft) NW 311 0 min 0,000 mm 1,4 UV-I 176 W/m 14,3 C 8,0 km/h (2 Bft)
19.08.2016 11:08 18,2 C 18,2 C 80 % 1011,8 hPa 0,0 mm 4,2 km/h (1 Bft) NW 313 0 min 0,000 mm 1,4 UV-I 172 W/m 14,7 C 8,0 km/h (2 Bft)
19.08.2016 11:09 18,1 C 18,2 C 80 % 1011,8 hPa 0,0 mm 4,6 km/h (1 Bft) NW 308 0 min 0,000 mm 1,5 UV-I 178 W/m 14,6 C 6,4 km/h (2 Bft)
19.08.2016 11:10 18,1 C 18,1 C 81 % 1011,8 hPa 0,0 mm 3,5 km/h (1 Bft) NW 304 0 min 0,000 mm 1,6 UV-I 190 W/m 14,8 C 6,4 km/h (2 Bft)
19.08.2016 11:11 17,9 C 18,1 C 79 % 1011,8 hPa 0,0 mm 0,9 km/h (0 Bft) NW 304 0 min 0,000 mm 1,7 UV-I 204 W/m 14,2 C 1,6 km/h (1 Bft)
19.08.2016 11:12 17,9 C 17,9 C 80 % 1011,8 hPa 0,0 mm 0,1 km/h (0 Bft) NW 304 0 min 0,000 mm 1,9 UV-I 230 W/m 14,4 C 1,6 km/h (1 Bft)
19.08.2016 11:13 17,9 C 17,9 C 81 % 1011,8 hPa 0,0 mm 1,2 km/h (1 Bft) N-NO 29 0 min 0,000 mm 2,1 UV-I 248 W/m 14,6 C 3,2 km/h (1 Bft)
19.08.2016 11:14 17,9 C 18,0 C 81 % 1011,9 hPa 0,0 mm 3,4 km/h (1 Bft) N-NO 28 0 min 0,000 mm 2,2 UV-I 262 W/m 14,6 C 4,8 km/h (1 Bft)
19.08.2016 11:15 18,1 C 18,1 C 81 % 1011,8 hPa 0,0 mm 3,1 km/h (1 Bft) N-NO 28 0 min 0,000 mm 2,3 UV-I 276 W/m 14,8 C 4,8 km/h (1 Bft)
19.08.2016 11:16 18,1 C 18,1 C 81 % 1011,8 hPa 0,0 mm 2,7 km/h (1 Bft) N-NW 333 0 min 0,000 mm 2,4 UV-I 287 W/m 14,8 C 4,8 km/h (1 Bft)
19.08.2016 11:17 18,1 C 18,1 C 80 % 1011,8 hPa 0,0 mm 1,9 km/h (1 Bft) N-NO 16 0 min 0,000 mm 2,4 UV-I 292 W/m 14,6 C 3,2 km/h (1 Bft)
19.08.2016 11:18 18,1 C 18,1 C 81 % 1011,9 hPa 0,0 mm 4,2 km/h (1 Bft) NO 45 0 min 0,000 mm 2,5 UV-I 316 W/m 14,8 C 4,8 km/h (1 Bft)
19.08.2016 11:19 18,1 C 18,1 C 80 % 1011,8 hPa 0,0 mm 4,8 km/h (1 Bft) NO 48 0 min 0,000 mm 3,0 UV-I 367 W/m 14,6 C 6,4 km/h (2 Bft)
19.08.2016 11:20 18,0 C 18,1 C 80 % 1011,8 hPa 0,0 mm 3,0 km/h (1 Bft) NO 36 0 min 0,000 mm 3,2 UV-I 394 W/m 14,5 C 4,8 km/h (1 Bft)
19.08.2016 11:21 18,0 C 18,0 C 82 % 1011,8 hPa 0,0 mm 3,9 km/h (1 Bft) O-NO 57 0 min 0,000 mm 3,3 UV-I 397 W/m 14,9 C 6,4 km/h (2 Bft)
19.08.2016 11:22 18,0 C 18,1 C 80 % 1011,8 hPa 0,0 mm 4,3 km/h (1 Bft) O-NO 70 0 min 0,000 mm 4,4 UV-I 397 W/m 14,5 C 6,4 km/h (2 Bft)
19.08.2016 11:23 18,1 C 18,1 C 79 % 1011,8 hPa 0,0 mm 1,5 km/h (1 Bft) O-NO 70 1 min 0,000 mm 5,4 UV-I 935 W/m 14,4 C 3,2 km/h (1 Bft)
19.08.2016 11:24 18,1 C 18,1 C 80 % 1011,8 hPa 0,0 mm 2,4 km/h (1 Bft) O-NO 70 1 min 0,000 mm 5,9 UV-I 947 W/m 14,6 C 4,8 km/h (1 Bft)
19.08.2016 11:25 18,3 C 18,3 C 79 % 1011,8 hPa 0,0 mm 3,6 km/h (1 Bft) NO 36 1 min 0,000 mm 6,0 UV-I 958 W/m 14,6 C 6,4 km/h (2 Bft)
19.08.2016 11:26 18,4 C 18,4 C 80 % 1011,9 hPa 0,0 mm 4,6 km/h (1 Bft) O-NO 64 1 min 0,000 mm 6,1 UV-I 963 W/m 14,9 C 6,4 km/h (2 Bft)
19.08.2016 11:27 18,6 C 18,6 C 80 % 1011,8 hPa 0,0 mm 4,4 km/h (1 Bft) NO 47 1 min 0,000 mm 6,1 UV-I 967 W/m 15,1 C 8,0 km/h (2 Bft)
19.08.2016 11:28 18,8 C 18,8 C 78 % 1011,8 hPa 0,0 mm 4,0 km/h (1 Bft) NW 325 1 min 0,000 mm 6,2 UV-I 972 W/m 14,9 C 6,4 km/h (2 Bft)
19.08.2016 11:29 18,9 C 18,9 C 78 % 1011,8 hPa 0,0 mm 4,4 km/h (1 Bft) W-NW 294 1 min 0,000 mm 6,2 UV-I 963 W/m 15,0 C 6,4 km/h (2 Bft)
19.08.2016 11:30 19,1 C 19,1 C 79 % 1011,8 hPa 0,0 mm 2,3 km/h (1 Bft) W-NW 283 1 min 0,000 mm 6,2 UV-I 953 W/m 15,4 C 4,8 km/h (1 Bft)
19.08.2016 11:31 18,9 C 19,1 C 75 % 1011,8 hPa 0,0 mm 3,1 km/h (1 Bft) NW 321 1 min 0,000 mm 6,3 UV-I 949 W/m 14,4 C 6,4 km/h (2 Bft)
19.08.2016 11:32 19,1 C 19,1 C 79 % 1011,8 hPa 0,0 mm 5,1 km/h (1 Bft) NW 323 1 min 0,000 mm 6,4 UV-I 954 W/m 15,4 C 8,0 km/h (2 Bft)
19.08.2016 11:33 19,4 C 19,4 C 80 % 1011,8 hPa 0,0 mm 3,8 km/h (1 Bft) W-NW 301 1 min 0,000 mm 5,0 UV-I 893 W/m 15,9 C 6,4 km/h (2 Bft)
19.08.2016 11:34 19,4 C 19,4 C 79 % 1011,8 hPa 0,0 mm 1,8 km/h (1 Bft) W-NW 297 1 min 0,000 mm 4,0 UV-I 893 W/m 15,7 C 3,2 km/h (1 Bft)
19.08.2016 11:35 19,3 C 19,4 C 74 % 1011,8 hPa 0,0 mm 2,3 km/h (1 Bft) W-NW 296 1 min 0,000 mm 4,6 UV-I 531 W/m 14,5 C 3,2 km/h (1 Bft)
19.08.2016 11:36 19,2 C 19,3 C 74 % 1011,8 hPa 0,0 mm 1,3 km/h (1 Bft) W-NW 288 1 min 0,000 mm 4,4 UV-I 531 W/m 14,4 C 3,2 km/h (1 Bft)
19.08.2016 11:37 18,9 C 19,2 C 74 % 1011,8 hPa 0,0 mm 1,3 km/h (1 Bft) W 280 1 min 0,000 mm 3,6 UV-I 429 W/m 14,2 C 3,2 km/h (1 Bft)
19.08.2016 11:38 18,8 C 18,9 C 77 % 1011,8 hPa 0,0 mm 2,3 km/h (1 Bft) S-SW 203 0 min 0,000 mm 3,6 UV-I 346 W/m 14,7 C 3,2 km/h (1 Bft)
19.08.2016 11:39 18,8 C 18,8 C 79 % 1011,8 hPa 0,0 mm 2,2 km/h (1 Bft) N-NW 327 0 min 0,000 mm 3,4 UV-I 323 W/m 15,1 C 4,8 km/h (1 Bft)
19.08.2016 11:40 18,9 C 18,9 C 79 % 1011,8 hPa 0,0 mm 6,0 km/h (2 Bft) W-SW 249 0 min 0,000 mm 4,3 UV-I 323 W/m 15,2 C 11,3 km/h (2 Bft)
19.08.2016 11:41 18,9 C 18,9 C 79 % 1011,8 hPa 0,0 mm 10,3 km/h (2 Bft) NW 315 1 min 0,000 mm 4,9 UV-I 687 W/m 15,2 C 14,5 km/h (3 Bft)
19.08.2016 11:42 19,0 C 19,0 C 79 % 1011,8 hPa 0,0 mm 6,4 km/h (2 Bft) W-NW 288 1 min 0,000 mm 6,6 UV-I 687 W/m 15,3 C 11,3 km/h (2 Bft)
19.08.2016 11:43 19,0 C 19,1 C 77 % 1011,9 hPa 0,0 mm 4,1 km/h (1 Bft) W-NW 300 1 min 0,000 mm 6,1 UV-I 719 W/m 14,9 C 6,4 km/h (2 Bft)
19.08.2016 11:44 19,1 C 19,1 C 81 % 1011,8 hPa 0,0 mm 3,8 km/h (1 Bft) NW 315 1 min 0,000 mm 6,3 UV-I 719 W/m 15,8 C 6,4 km/h (2 Bft)
19.08.2016 11:45 19,2 C 19,2 C 80 % 1011,9 hPa 0,0 mm 4,0 km/h (1 Bft) NW 317 1 min 0,000 mm 5,8 UV-I 972 W/m 15,7 C 4,8 km/h (1 Bft)
19.08.2016 11:46 19,4 C 19,4 C 78 % 1011,8 hPa 0,0 mm 3,2 km/h (1 Bft) SW 222 1 min 0,000 mm 5,6 UV-I 972 W/m 15,5 C 4,8 km/h (1 Bft)
19.08.2016 11:47 19,4 C 19,4 C 80 % 1011,8 hPa 0,0 mm 2,8 km/h (1 Bft) NW 325 1 min 0,000 mm 6,2 UV-I 708 W/m 15,9 C 4,8 km/h (1 Bft)
19.08.2016 11:48 19,5 C 19,5 C 81 % 1011,8 hPa 0,0 mm 5,1 km/h (1 Bft) N-NW 344 1 min 0,000 mm 5,2 UV-I 708 W/m 16,1 C 6,4 km/h (2 Bft)
19.08.2016 11:49 19,4 C 19,5 C 76 % 1011,8 hPa 0,0 mm 3,0 km/h (1 Bft) W 266 1 min 0,000 mm 3,6 UV-I 708 W/m 15,1 C 4,8 km/h (1 Bft)
19.08.2016 11:50 19,2 C 19,4 C 76 % 1011,9 hPa 0,0 mm 3,0 km/h (1 Bft) W 261 0 min 0,000 mm 3,6 UV-I 343 W/m 14,9 C 4,8 km/h (1 Bft)
19.08.2016 11:51 19,1 C 19,2 C 75 % 1011,8 hPa 0,0 mm 5,5 km/h (1 Bft) W-SW 251 0 min 0,000 mm 3,7 UV-I 352 W/m 14,6 C 6,4 km/h (2 Bft)
19.08.2016 11:52 18,8 C 19,1 C 78 % 1011,8 hPa 0,0 mm 5,1 km/h (1 Bft) W-SW 248 0 min 0,000 mm 3,9 UV-I 341 W/m 14,9 C 6,4 km/h (2 Bft)
19.08.2016 11:53 18,8 C 18,8 C 80 % 1011,8 hPa 0,0 mm 3,3 km/h (1 Bft) W-SW 248 0 min 0,000 mm 3,8 UV-I 378 W/m 15,3 C 4,8 km/h (1 Bft)
19.08.2016 11:54 18,9 C 18,9 C 80 % 1011,8 hPa 0,0 mm 0,5 km/h (0 Bft) W-SW 248 0 min 0,000 mm 6,5 UV-I 378 W/m 15,4 C 1,6 km/h (1 Bft)
19.08.2016 11:55 19,0 C 19,0 C 79 % 1011,8 hPa 0,0 mm 1,6 km/h (1 Bft) N-NO 16 0 min 0,000 mm 4,7 UV-I 378 W/m 15,3 C 3,2 km/h (1 Bft)
19.08.2016 11:56 19,1 C 19,2 C 78 % 1011,8 hPa 0,0 mm 2,7 km/h (1 Bft) N-NO 24 1 min 0,000 mm 6,0 UV-I 529 W/m 15,2 C 4,8 km/h (1 Bft)
19.08.2016 11:57 19,1 C 19,2 C 75 % 1011,8 hPa 0,0 mm 2,7 km/h (1 Bft) N-NO 24 1 min 0,000 mm 3,5 UV-I 529 W/m 14,6 C 3,2 km/h (1 Bft)
19.08.2016 11:58 18,9 C 19,1 C 75 % 1011,8 hPa 0,0 mm 2,1 km/h (1 Bft) N-NO 24 0 min 0,000 mm 3,3 UV-I 295 W/m 14,4 C 3,2 km/h (1 Bft)
19.08.2016 11:59 18,8 C 18,9 C 75 % 1011,8 hPa 0,0 mm 0,9 km/h (0 Bft) N-NO 28 0 min 0,000 mm 5,6 UV-I 295 W/m 14,3 C 1,6 km/h (1 Bft)
19.08.2016 12:00 18,8 C 18,8 C 76 % 1011,8 hPa 0,0 mm 2,4 km/h (1 Bft) N-NO 26 0 min 0,305 mm 5,1 UV-I 295 W/m 14,5 C 3,2 km/h (1 Bft)
19.08.2016 12:01 18,9 C 18,9 C 77 % 1011,8 hPa 0,0 mm 3,3 km/h (1 Bft) N-NO 14 0 min 0,000 mm 5,4 UV-I 295 W/m 14,8 C 4,8 km/h (1 Bft)
19.08.2016 12:02 19,2 C 19,2 C 79 % 1011,7 hPa 0,0 mm 3,3 km/h (1 Bft) N 360 1 min 0,000 mm 6,3 UV-I 995 W/m 15,5 C 4,8 km/h (1 Bft)
19.08.2016 12:03 19,4 C 19,4 C 80 % 1011,8 hPa 0,0 mm 3,4 km/h (1 Bft) NO 44 1 min 0,000 mm 6,3 UV-I 998 W/m 15,9 C 4,8 km/h (1 Bft)
19.08.2016 12:04 19,7 C 19,7 C 77 % 1011,8 hPa 0,0 mm 2,7 km/h (1 Bft) N-NO 26 1 min 0,000 mm 6,7 UV-I 967 W/m 15,5 C 6,4 km/h (2 Bft)
19.08.2016 12:05 19,9 C 19,9 C 77 % 1011,8 hPa 0,0 mm 6,5 km/h (2 Bft) N 9 1 min 0,000 mm 6,7 UV-I 944 W/m 15,7 C 8,0 km/h (2 Bft)
19.08.2016 12:06 20,1 C 20,1 C 75 % 1011,7 hPa 0,0 mm 5,8 km/h (2 Bft) N-NW 344 1 min 0,000 mm 6,6 UV-I 914 W/m 15,5 C 9,7 km/h (2 Bft)
19.08.2016 12:07 20,0 C 20,1 C 75 % 1011,7 hPa 0,0 mm 7,8 km/h (2 Bft) N 10 1 min 0,000 mm 6,5 UV-I 893 W/m 15,4 C 12,9 km/h (3 Bft)
19.08.2016 12:08 20,0 C 20,0 C 75 % 1011,7 hPa 0,0 mm 7,2 km/h (2 Bft) W-NW 298 1 min 0,000 mm 6,5 UV-I 874 W/m 15,4 C 11,3 km/h (2 Bft)
19.08.2016 12:09 20,0 C 20,0 C 77 % 1011,7 hPa 0,0 mm 3,5 km/h (1 Bft) NW 319 1 min 0,000 mm 6,5 UV-I 870 W/m 15,8 C 4,8 km/h (1 Bft)
19.08.2016 12:10 19,9 C 20,0 C 76 % 1011,7 hPa 0,0 mm 3,3 km/h (1 Bft) NW 319 1 min 0,000 mm 6,3 UV-I 854 W/m 15,5 C 4,8 km/h (1 Bft)
19.08.2016 12:11 19,9 C 19,9 C 79 % 1011,7 hPa 0,0 mm 2,1 km/h (1 Bft) NO 37 1 min 0,000 mm 6,5 UV-I 868 W/m 16,1 C 3,2 km/h (1 Bft)
19.08.2016 12:12 19,7 C 19,9 C 74 % 1011,6 hPa 0,0 mm 2,2 km/h (1 Bft) O-SO 109 1 min 0,000 mm 6,5 UV-I 884 W/m 14,9 C 3,2 km/h (1 Bft)
19.08.2016 12:13 19,5 C 19,7 C 77 % 1011,6 hPa 0,0 mm 1,9 km/h (1 Bft) N-NW 333 1 min 0,000 mm 6,3 UV-I 865 W/m 15,4 C 4,8 km/h (1 Bft)
19.08.2016 12:14 19,5 C 19,5 C 78 % 1011,6 hPa 0,0 mm 3,6 km/h (1 Bft) N-NW 332 1 min 0,000 mm 4,2 UV-I 865 W/m 15,6 C 9,7 km/h (2 Bft)
19.08.2016 12:15 19,5 C 19,5 C 77 % 1011,6 hPa 0,0 mm 7,0 km/h (2 Bft) N-NW 341 0 min 0,000 mm 3,7 UV-I 202 W/m 15,4 C 9,7 km/h (2 Bft)
19.08.2016 12:16 19,4 C 19,5 C 76 % 1011,6 hPa 0,0 mm 6,4 km/h (2 Bft) N 360 0 min 0,000 mm 3,4 UV-I 230 W/m 15,1 C 9,7 km/h (2 Bft)
19.08.2016 12:17 19,4 C 19,5 C 75 % 1011,6 hPa 0,0 mm 4,7 km/h (1 Bft) N-NO 17 0 min 0,000 mm 3,8 UV-I 272 W/m 14,8 C 6,4 km/h (2 Bft)
19.08.2016 12:18 19,2 C 19,4 C 76 % 1011,6 hPa 0,0 mm 3,3 km/h (1 Bft) N-NW 341 0 min 0,000 mm 3,7 UV-I 288 W/m 14,9 C 6,4 km/h (2 Bft)
19.08.2016 12:19 19,2 C 19,2 C 77 % 1011,6 hPa 0,0 mm 2,2 km/h (1 Bft) N-NO 26 0 min 0,000 mm 5,1 UV-I 359 W/m 15,1 C 4,8 km/h (1 Bft)
19.08.2016 12:20 19,2 C 19,2 C 76 % 1011,7 hPa 0,0 mm 1,5 km/h (1 Bft) N 5 0 min 0,000 mm 4,7 UV-I 359 W/m 14,9 C 3,2 km/h (1 Bft)
19.08.2016 12:21 19,2 C 19,2 C 77 % 1011,6 hPa 0,0 mm 4,0 km/h (1 Bft) NW 316 0 min 0,000 mm 5,6 UV-I 359 W/m 15,1 C 6,4 km/h (2 Bft)
19.08.2016 12:22 19,3 C 19,3 C 78 % 1011,6 hPa 0,0 mm 4,6 km/h (1 Bft) W-NW 298 0 min 0,000 mm 6,5 UV-I 359 W/m 15,4 C 8,0 km/h (2 Bft)
19.08.2016 12:23 19,5 C 19,5 C 81 % 1011,6 hPa 0,0 mm 7,9 km/h (2 Bft) NW 306 1 min 0,000 mm 6,6 UV-I 893 W/m 16,1 C 11,3 km/h (2 Bft)
19.08.2016 12:24 19,7 C 19,7 C 77 % 1011,6 hPa 0,0 mm 2,1 km/h (1 Bft) NW 312 1 min 0,000 mm 6,6 UV-I 891 W/m 15,5 C 6,4 km/h (2 Bft)
19.08.2016 12:25 19,8 C 19,8 C 79 % 1011,5 hPa 0,0 mm 4,7 km/h (1 Bft) N-NO 23 1 min 0,000 mm 6,6 UV-I 893 W/m 16,0 C 8,0 km/h (2 Bft)
19.08.2016 12:26 19,9 C 19,9 C 76 % 1011,5 hPa 0,0 mm 5,2 km/h (1 Bft) N 360 1 min 0,000 mm 6,6 UV-I 907 W/m 15,5 C 8,0 km/h (2 Bft)
19.08.2016 12:27 20,0 C 20,0 C 74 % 1011,6 hPa 0,0 mm 5,6 km/h (1 Bft) N 355 1 min 0,000 mm 3,1 UV-I 907 W/m 15,2 C 8,0 km/h (2 Bft)
19.08.2016 12:28 19,9 C 20,0 C 74 % 1011,6 hPa 0,0 mm 4,5 km/h (1 Bft) N 360 0 min 0,000 mm 3,1 UV-I 209 W/m 15,1 C 6,4 km/h (2 Bft)
19.08.2016 12:29 19,9 C 19,9 C 74 % 1011,5 hPa 0,0 mm 3,7 km/h (1 Bft) N 360 0 min 0,000 mm 3,4 UV-I 209 W/m 15,1 C 4,8 km/h (1 Bft)
19.08.2016 12:30 19,8 C 19,9 C 74 % 1011,6 hPa 0,0 mm 3,1 km/h (1 Bft) NW 315 0 min 0,000 mm 6,5 UV-I 209 W/m 15,0 C 4,8 km/h (1 Bft)
19.08.2016 12:31 19,8 C 19,8 C 75 % 1011,6 hPa 0,0 mm 1,7 km/h (1 Bft) NW 315 1 min 0,000 mm 6,7 UV-I 860 W/m 15,2 C 3,2 km/h (1 Bft)
19.08.2016 12:32 19,9 C 19,9 C 78 % 1011,5 hPa 0,0 mm 1,6 km/h (1 Bft) N-NO 22 1 min 0,000 mm 6,5 UV-I 846 W/m 15,9 C 3,2 km/h (1 Bft)
19.08.2016 12:33 20,1 C 20,1 C 75 % 1011,5 hPa 0,0 mm 3,0 km/h (1 Bft) NO 44 1 min 0,000 mm 6,5 UV-I 833 W/m 15,5 C 4,8 km/h (1 Bft)
19.08.2016 12:34 20,1 C 20,1 C 77 % 1011,5 hPa 0,0 mm 3,8 km/h (1 Bft) NO 48 1 min 0,000 mm 6,5 UV-I 846 W/m 15,9 C 4,8 km/h (1 Bft)
19.08.2016 12:35 19,8 C 20,1 C 77 % 1011,5 hPa 0,0 mm 0,7 km/h (0 Bft) NO 48 1 min 0,000 mm 6,5 UV-I 858 W/m 15,6 C 3,2 km/h (1 Bft)
19.08.2016 12:36 19,9 C 19,9 C 79 % 1011,5 hPa 0,0 mm 3,8 km/h (1 Bft) N-NW 339 1 min 0,000 mm 6,8 UV-I 898 W/m 16,1 C 4,8 km/h (1 Bft)
19.08.2016 12:37 20,0 C 20,0 C 76 % 1011,4 hPa 0,0 mm 3,7 km/h (1 Bft) N-NW 330 1 min 0,000 mm 6,8 UV-I 902 W/m 15,6 C 4,8 km/h (1 Bft)
19.08.2016 12:38 20,2 C 20,2 C 75 % 1011,5 hPa 0,0 mm 3,6 km/h (1 Bft) O-NO 65 1 min 0,000 mm 6,8 UV-I 895 W/m 15,6 C 4,8 km/h (1 Bft)
19.08.2016 12:39 20,1 C 20,2 C 73 % 1011,5 hPa 0,0 mm 2,1 km/h (1 Bft) O-NO 63 1 min 0,000 mm 6,8 UV-I 911 W/m 15,1 C 4,8 km/h (1 Bft)
19.08.2016 12:40 20,1 C 20,1 C 77 % 1011,5 hPa 0,0 mm 1,4 km/h (1 Bft) O-NO 72 1 min 0,000 mm 6,9 UV-I 919 W/m 15,9 C 3,2 km/h (1 Bft)
19.08.2016 12:41 20,1 C 20,1 C 74 % 1011,5 hPa 0,0 mm 2,0 km/h (1 Bft) O 86 1 min 0,000 mm 7,0 UV-I 926 W/m 15,3 C 3,2 km/h (1 Bft)
19.08.2016 12:42 20,1 C 20,1 C 75 % 1011,4 hPa 0,0 mm 4,1 km/h (1 Bft) W 266 1 min 0,000 mm 6,9 UV-I 930 W/m 15,5 C 4,8 km/h (1 Bft)
19.08.2016 12:43 20,2 C 20,2 C 77 % 1011,5 hPa 0,0 mm 3,4 km/h (1 Bft) NW 311 1 min 0,000 mm 5,1 UV-I 930 W/m 16,0 C 4,8 km/h (1 Bft)
19.08.2016 12:44 20,2 C 20,2 C 75 % 1011,5 hPa 0,0 mm 3,5 km/h (1 Bft) N-NW 327 1 min 0,000 mm 7,0 UV-I 930 W/m 15,6 C 4,8 km/h (1 Bft)
19.08.2016 12:45 20,3 C 20,3 C 78 % 1011,4 hPa 0,0 mm 6,1 km/h (2 Bft) N-NO 12 1 min 0,000 mm 6,4 UV-I 930 W/m 16,3 C 9,7 km/h (2 Bft)
19.08.2016 12:46 20,4 C 20,4 C 74 % 1011,4 hPa 0,0 mm 7,3 km/h (2 Bft) N 5 1 min 0,000 mm 6,9 UV-I 953 W/m 15,6 C 11,3 km/h (2 Bft)
19.08.2016 12:47 20,5 C 20,5 C 74 % 1011,4 hPa 0,0 mm 7,0 km/h (2 Bft) N-NO 17 1 min 0,000 mm 5,3 UV-I 953 W/m 15,7 C 11,3 km/h (2 Bft)
19.08.2016 12:48 20,4 C 20,5 C 73 % 1011,4 hPa 0,0 mm 7,5 km/h (2 Bft) N 360 1 min 0,000 mm 3,4 UV-I 953 W/m 15,4 C 8,0 km/h (2 Bft)
19.08.2016 12:49 20,3 C 20,4 C 74 % 1011,4 hPa 0,0 mm 5,2 km/h (1 Bft) O 82 1 min 0,000 mm 3,9 UV-I 953 W/m 15,5 C 6,4 km/h (2 Bft)
19.08.2016 12:50 20,2 C 20,3 C 73 % 1011,4 hPa 0,0 mm 3,1 km/h (1 Bft) N-NO 16 0 min 0,000 mm 4,4 UV-I 287 W/m 15,2 C 4,8 km/h (1 Bft)
19.08.2016 12:51 20,2 C 20,2 C 74 % 1011,4 hPa 0,0 mm 2,5 km/h (1 Bft) N-NW 331 0 min 0,000 mm 4,4 UV-I 287 W/m 15,4 C 3,2 km/h (1 Bft)
19.08.2016 12:52 20,1 C 20,2 C 74 % 1011,4 hPa 0,0 mm 3,4 km/h (1 Bft) NW 315 0 min 0,000 mm 3,7 UV-I 287 W/m 15,3 C 4,8 km/h (1 Bft)
19.08.2016 12:53 20,1 C 20,1 C 76 % 1011,4 hPa 0,0 mm 2,1 km/h (1 Bft) NW 326 0 min 0,000 mm 3,8 UV-I 287 W/m 15,7 C 3,2 km/h (1 Bft)
19.08.2016 12:54 19,9 C 20,1 C 74 % 1011,4 hPa 0,0 mm 3,4 km/h (1 Bft) W-NW 290 0 min 0,000 mm 3,7 UV-I 316 W/m 15,1 C 6,4 km/h (2 Bft)
19.08.2016 12:55 19,8 C 19,9 C 76 % 1011,4 hPa 0,0 mm 4,7 km/h (1 Bft) NO 49 0 min 0,000 mm 4,4 UV-I 338 W/m 15,4 C 8,0 km/h (2 Bft)
19.08.2016 12:56 19,9 C 19,9 C 76 % 1011,4 hPa 0,0 mm 4,0 km/h (1 Bft) O-NO 64 0 min 0,000 mm 4,4 UV-I 338 W/m 15,5 C 8,0 km/h (2 Bft)
19.08.2016 12:57 19,9 C 19,9 C 72 % 1011,3 hPa 0,0 mm 2,6 km/h (1 Bft) O-NO 64 0 min 0,000 mm 6,4 UV-I 338 W/m 14,7 C 4,8 km/h (1 Bft)
19.08.2016 12:58 19,9 C 19,9 C 73 % 1011,3 hPa 0,0 mm 2,7 km/h (1 Bft) O 82 1 min 0,000 mm 5,7 UV-I 636 W/m 14,9 C 11,3 km/h (2 Bft)
19.08.2016 12:59 19,9 C 19,9 C 76 % 1011,3 hPa 0,0 mm 6,2 km/h (2 Bft) O-NO 57 1 min 0,000 mm 6,3 UV-I 636 W/m 15,5 C 9,7 km/h (2 Bft)
19.08.2016 13:00 19,9 C 20,0 C 76 % 1011,3 hPa 0,0 mm 4,0 km/h (1 Bft) NO 56 1 min 0,000 mm 5,2 UV-I 636 W/m 15,5 C 4,8 km/h (1 Bft)
19.08.2016 13:01 20,0 C 20,0 C 75 % 1011,4 hPa 0,0 mm 5,2 km/h (1 Bft) O 85 1 min 0,406 mm 6,7 UV-I 1072 W/m 15,4 C 9,7 km/h (2 Bft)
19.08.2016 13:02 19,9 C 20,0 C 77 % 1011,3 hPa 0,0 mm 2,1 km/h (1 Bft) O-NO 73 1 min 0,000 mm 6,7 UV-I 1072 W/m 15,7 C 4,8 km/h (1 Bft)
19.08.2016 13:03 20,0 C 20,1 C 76 % 1011,4 hPa 0,0 mm 5,0 km/h (1 Bft) NO 52 1 min 0,000 mm 6,9 UV-I 998 W/m 15,6 C 8,0 km/h (2 Bft)
19.08.2016 13:04 19,9 C 20,0 C 74 % 1011,4 hPa 0,0 mm 2,8 km/h (1 Bft) O-NO 61 1 min 0,000 mm 6,3 UV-I 921 W/m 15,1 C 6,4 km/h (2 Bft)
19.08.2016 13:05 20,0 C 20,0 C 75 % 1011,3 hPa 0,0 mm 4,5 km/h (1 Bft) O-NO 78 1 min 0,000 mm 3,9 UV-I 921 W/m 15,4 C 6,4 km/h (2 Bft)
19.08.2016 13:06 20,1 C 20,1 C 77 % 1011,3 hPa 0,0 mm 5,0 km/h (1 Bft) O-NO 61 1 min 0,000 mm 5,8 UV-I 921 W/m 15,9 C 9,7 km/h (2 Bft)
19.08.2016 13:07 20,1 C 20,1 C 77 % 1011,3 hPa 0,0 mm 7,2 km/h (2 Bft) O 94 1 min 0,000 mm 3,1 UV-I 921 W/m 15,9 C 9,7 km/h (2 Bft)
19.08.2016 13:08 20,0 C 20,1 C 75 % 1011,2 hPa 0,0 mm 5,1 km/h (1 Bft) O-NO 61 0 min 0,000 mm 3,1 UV-I 218 W/m 15,4 C 6,4 km/h (2 Bft)
19.08.2016 13:09 19,8 C 20,0 C 75 % 1011,2 hPa 0,0 mm 5,5 km/h (1 Bft) SO 131 0 min 0,000 mm 3,1 UV-I 229 W/m 15,2 C 8,0 km/h (2 Bft)
19.08.2016 13:10 19,7 C 19,8 C 78 % 1011,2 hPa 0,0 mm 4,0 km/h (1 Bft) O 92 0 min 0,000 mm 4,3 UV-I 229 W/m 15,8 C 4,8 km/h (1 Bft)
19.08.2016 13:11 19,7 C 19,7 C 76 % 1011,2 hPa 0,0 mm 3,3 km/h (1 Bft) O-NO 75 0 min 0,000 mm 6,0 UV-I 229 W/m 15,3 C 4,8 km/h (1 Bft)
19.08.2016 13:12 19,7 C 19,7 C 77 % 1011,2 hPa 0,0 mm 3,3 km/h (1 Bft) NO 48 1 min 0,000 mm 6,7 UV-I 912 W/m 15,5 C 6,4 km/h (2 Bft)
19.08.2016 13:13 19,7 C 19,7 C 76 % 1011,3 hPa 0,0 mm 6,2 km/h (2 Bft) SO 129 1 min 0,000 mm 6,7 UV-I 865 W/m 15,3 C 11,3 km/h (2 Bft)
19.08.2016 13:14 19,8 C 19,8 C 79 % 1011,2 hPa 0,0 mm 5,1 km/h (1 Bft) O-NO 75 1 min 0,000 mm 6,7 UV-I 861 W/m 16,0 C 8,0 km/h (2 Bft)
19.08.2016 13:15 19,9 C 19,9 C 74 % 1011,2 hPa 0,0 mm 6,0 km/h (2 Bft) NO 56 1 min 0,000 mm 6,7 UV-I 858 W/m 15,1 C 8,0 km/h (2 Bft)
19.08.2016 13:16 20,1 C 20,1 C 77 % 1011,2 hPa 0,0 mm 2,5 km/h (1 Bft) N-NO 18 1 min 0,000 mm 6,7 UV-I 865 W/m 15,9 C 4,8 km/h (1 Bft)
19.08.2016 13:17 20,3 C 20,3 C 76 % 1011,2 hPa 0,0 mm 2,5 km/h (1 Bft) NO 38 1 min 0,000 mm 6,7 UV-I 865 W/m 15,9 C 4,8 km/h (1 Bft)
19.08.2016 13:18 20,4 C 20,4 C 73 % 1011,2 hPa 0,0 mm 2,4 km/h (1 Bft) O 89 1 min 0,000 mm 6,7 UV-I 865 W/m 15,4 C 4,8 km/h (1 Bft)
19.08.2016 13:19 20,4 C 20,4 C 73 % 1011,2 hPa 0,0 mm 1,1 km/h (1 Bft) O-NO 60 1 min 0,000 mm 6,7 UV-I 865 W/m 15,4 C 1,6 km/h (1 Bft)
19.08.2016 13:20 20,6 C 20,6 C 80 % 1011,2 hPa 0,0 mm 1,9 km/h (1 Bft) O-SO 115 1 min 0,000 mm 6,7 UV-I 870 W/m 17,0 C 6,4 km/h (2 Bft)
19.08.2016 13:21 20,7 C 20,7 C 72 % 1011,2 hPa 0,0 mm 5,0 km/h (1 Bft) SO 139 1 min 0,000 mm 6,7 UV-I 877 W/m 15,5 C 8,0 km/h (2 Bft)
19.08.2016 13:22 20,6 C 20,7 C 74 % 1011,2 hPa 0,0 mm 4,5 km/h (1 Bft) SO 126 1 min 0,000 mm 6,8 UV-I 882 W/m 15,8 C 6,4 km/h (2 Bft)
19.08.2016 13:23 20,4 C 20,6 C 72 % 1011,1 hPa 0,0 mm 4,4 km/h (1 Bft) NO 52 1 min 0,000 mm 6,8 UV-I 884 W/m 15,2 C 6,4 km/h (2 Bft)
19.08.2016 13:24 20,4 C 20,4 C 73 % 1011,2 hPa 0,0 mm 4,0 km/h (1 Bft) O 88 1 min 0,000 mm 6,8 UV-I 886 W/m 15,4 C 6,4 km/h (2 Bft)
19.08.2016 13:25 20,5 C 20,5 C 74 % 1011,2 hPa 0,0 mm 8,2 km/h (2 Bft) O-NO 65 1 min 0,000 mm 6,8 UV-I 875 W/m 15,7 C 12,9 km/h (3 Bft)
19.08.2016 13:26 20,7 C 20,7 C 76 % 1011,2 hPa 0,0 mm 6,4 km/h (2 Bft) NO 45 1 min 0,000 mm 6,8 UV-I 863 W/m 16,3 C 9,7 km/h (2 Bft)
19.08.2016 13:27 20,7 C 20,7 C 72 % 1011,2 hPa 0,0 mm 2,0 km/h (1 Bft) NO 41 1 min 0,000 mm 6,7 UV-I 856 W/m 15,5 C 4,8 km/h (1 Bft)
19.08.2016 13:28 20,7 C 20,7 C 74 % 1011,1 hPa 0,0 mm 2,1 km/h (1 Bft) NO 42 1 min 0,000 mm 6,6 UV-I 838 W/m 15,9 C 3,2 km/h (1 Bft)
19.08.2016 13:29 20,7 C 20,7 C 74 % 1011,2 hPa 0,0 mm 3,4 km/h (1 Bft) O-NO 67 1 min 0,000 mm 6,7 UV-I 838 W/m 15,9 C 4,8 km/h (1 Bft)
19.08.2016 13:30 20,7 C 20,8 C 72 % 1011,1 hPa 0,0 mm 3,7 km/h (1 Bft) O-NO 73 1 min 0,000 mm 6,6 UV-I 835 W/m 15,5 C 4,8 km/h (1 Bft)
19.08.2016 13:31 20,7 C 20,7 C 71 % 1011,1 hPa 0,0 mm 5,3 km/h (1 Bft) S-SO 156 1 min 0,000 mm 6,6 UV-I 837 W/m 15,2 C 6,4 km/h (2 Bft)
19.08.2016 13:32 20,6 C 20,7 C 71 % 1011,1 hPa 0,0 mm 6,4 km/h (2 Bft) S-SO 160 1 min 0,000 mm 6,7 UV-I 853 W/m 15,2 C 11,3 km/h (2 Bft)
19.08.2016 13:33 20,6 C 20,6 C 72 % 1011,1 hPa 0,0 mm 5,7 km/h (1 Bft) O-NO 61 1 min 0,000 mm 6,6 UV-I 844 W/m 15,4 C 9,7 km/h (2 Bft)
19.08.2016 13:34 20,6 C 20,6 C 71 % 1011,1 hPa 0,0 mm 3,7 km/h (1 Bft) NO 53 1 min 0,000 mm 6,6 UV-I 819 W/m 15,2 C 4,8 km/h (1 Bft)
19.08.2016 13:35 20,6 C 20,6 C 75 % 1011,0 hPa 0,0 mm 3,8 km/h (1 Bft) O 97 1 min 0,000 mm 6,5 UV-I 833 W/m 16,0 C 6,4 km/h (2 Bft)
19.08.2016 13:36 20,7 C 20,7 C 74 % 1011,1 hPa 0,0 mm 5,5 km/h (1 Bft) SO 136 1 min 0,000 mm 6,5 UV-I 791 W/m 15,9 C 8,0 km/h (2 Bft)
19.08.2016 13:37 20,7 C 20,7 C 75 % 1011,1 hPa 0,0 mm 2,6 km/h (1 Bft) S-SO 148 1 min 0,000 mm 6,7 UV-I 791 W/m 16,1 C 4,8 km/h (1 Bft)
19.08.2016 13:38 20,7 C 20,8 C 72 % 1011,0 hPa 0,0 mm 1,4 km/h (1 Bft) S-SO 156 0 min 0,000 mm 3,3 UV-I 193 W/m 15,5 C 3,2 km/h (1 Bft)
19.08.2016 13:39 20,8 C 20,8 C 72 % 1011,1 hPa 0,0 mm 3,4 km/h (1 Bft) N-NO 29 0 min 0,000 mm 3,2 UV-I 213 W/m 15,6 C 8,0 km/h (2 Bft)
19.08.2016 13:40 20,7 C 20,8 C 74 % 1011,0 hPa 0,0 mm 3,8 km/h (1 Bft) O 89 0 min 0,000 mm 3,8 UV-I 279 W/m 15,9 C 4,8 km/h (1 Bft)
19.08.2016 13:41 20,6 C 20,7 C 74 % 1011,1 hPa 0,0 mm 5,6 km/h (1 Bft) S-SW 198 0 min 0,000 mm 3,7 UV-I 301 W/m 15,8 C 8,0 km/h (2 Bft)
19.08.2016 13:42 20,4 C 20,6 C 72 % 1011,0 hPa 0,0 mm 3,7 km/h (1 Bft) SO 144 0 min 0,000 mm 4,0 UV-I 329 W/m 15,2 C 6,4 km/h (2 Bft)
19.08.2016 13:43 20,4 C 20,5 C 76 % 1011,1 hPa 0,0 mm 3,8 km/h (1 Bft) N-NO 18 0 min 0,000 mm 6,8 UV-I 329 W/m 16,0 C 6,4 km/h (2 Bft)
19.08.2016 13:44 20,7 C 20,7 C 76 % 1011,1 hPa 0,0 mm 5,2 km/h (1 Bft) N-NO 25 1 min 0,000 mm 6,1 UV-I 886 W/m 16,3 C 8,0 km/h (2 Bft)
19.08.2016 13:45 20,7 C 20,7 C 75 % 1011,0 hPa 0,0 mm 6,0 km/h (2 Bft) O-NO 75 1 min 0,000 mm 4,4 UV-I 886 W/m 16,1 C 9,7 km/h (2 Bft)
19.08.2016 13:46 20,7 C 20,7 C 71 % 1011,1 hPa 0,0 mm 2,7 km/h (1 Bft) O-NO 67 1 min 0,000 mm 4,7 UV-I 886 W/m 15,2 C 6,4 km/h (2 Bft)
19.08.2016 13:47 20,7 C 20,7 C 72 % 1011,1 hPa 0,0 mm 2,3 km/h (1 Bft) NO 41 1 min 0,000 mm 5,3 UV-I 886 W/m 15,5 C 4,8 km/h (1 Bft)
19.08.2016 13:48 20,8 C 20,8 C 73 % 1011,1 hPa 0,0 mm 5,4 km/h (1 Bft) O-NO 62 1 min 0,000 mm 5,2 UV-I 635 W/m 15,8 C 8,0 km/h (2 Bft)
19.08.2016 13:49 20,7 C 20,8 C 71 % 1011,1 hPa 0,0 mm 3,3 km/h (1 Bft) NO 43 1 min 0,000 mm 4,5 UV-I 635 W/m 15,2 C 6,4 km/h (2 Bft)
19.08.2016 13:50 20,7 C 20,8 C 74 % 1011,1 hPa 0,0 mm 5,2 km/h (1 Bft) N-NO 17 0 min 0,000 mm 3,5 UV-I 253 W/m 15,9 C 8,0 km/h (2 Bft)
19.08.2016 13:51 20,7 C 20,7 C 71 % 1011,1 hPa 0,0 mm 4,9 km/h (1 Bft) N-NO 23 0 min 0,000 mm 2,8 UV-I 209 W/m 15,2 C 8,0 km/h (2 Bft)
19.08.2016 13:52 20,7 C 20,7 C 70 % 1011,1 hPa 0,0 mm 4,4 km/h (1 Bft) N 355 0 min 0,000 mm 2,7 UV-I 204 W/m 15,0 C 6,4 km/h (2 Bft)
19.08.2016 13:53 20,6 C 20,7 C 70 % 1011,1 hPa 0,0 mm 1,5 km/h (1 Bft) N-NO 31 0 min 0,000 mm 2,7 UV-I 216 W/m 14,9 C 4,8 km/h (1 Bft)
19.08.2016 13:54 20,7 C 20,7 C 71 % 1011,1 hPa 0,0 mm 4,3 km/h (1 Bft) N-NO 29 0 min 0,000 mm 2,8 UV-I 232 W/m 15,2 C 4,8 km/h (1 Bft)
19.08.2016 13:55 20,7 C 20,7 C 70 % 1011,1 hPa 0,0 mm 3,2 km/h (1 Bft) N-NW 331 0 min 0,000 mm 2,8 UV-I 287 W/m 15,0 C 4,8 km/h (1 Bft)
19.08.2016 13:56 20,7 C 20,7 C 72 % 1011,2 hPa 0,0 mm 3,6 km/h (1 Bft) N 355 0 min 0,000 mm 4,9 UV-I 295 W/m 15,5 C 6,4 km/h (2 Bft)
19.08.2016 13:57 20,7 C 20,7 C 73 % 1011,2 hPa 0,0 mm 3,5 km/h (1 Bft) N 355 0 min 0,000 mm 3,7 UV-I 295 W/m 15,7 C 4,8 km/h (1 Bft)
19.08.2016 13:58 20,8 C 20,8 C 72 % 1011,2 hPa 0,0 mm 3,8 km/h (1 Bft) N-NW 334 0 min 0,000 mm 5,3 UV-I 295 W/m 15,6 C 8,0 km/h (2 Bft)
19.08.2016 13:59 21,1 C 21,1 C 72 % 1011,3 hPa 0,0 mm 6,0 km/h (2 Bft) NW 321 0 min 0,000 mm 6,7 UV-I 295 W/m 15,8 C 8,0 km/h (2 Bft)
19.08.2016 14:00 21,1 C 21,1 C 70 % 1011,2 hPa 0,0 mm 3,2 km/h (1 Bft) N-NW 342 1 min 0,000 mm 6,3 UV-I 1055 W/m 15,4 C 4,8 km/h (1 Bft)
19.08.2016 14:01 21,2 C 21,2 C 74 % 1011,2 hPa 0,0 mm 6,8 km/h (2 Bft) N 5 0 min 0,406 mm 3,2 UV-I 318 W/m 16,4 C 11,3 km/h (2 Bft)
19.08.2016 14:02 21,2 C 21,3 C 71 % 1011,2 hPa 0,0 mm 6,7 km/h (2 Bft) N 9 0 min 0,001 mm 3,2 UV-I 274 W/m 15,7 C 8,0 km/h (2 Bft)
19.08.2016 14:03 21,1 C 21,2 C 71 % 1011,2 hPa 0,0 mm 5,7 km/h (1 Bft) N 355 0 min 0,000 mm 2,9 UV-I 255 W/m 15,6 C 11,3 km/h (2 Bft)
19.08.2016 14:04 21,1 C 21,1 C 71 % 1011,2 hPa 0,0 mm 3,4 km/h (1 Bft) W-NW 302 0 min 0,000 mm 2,9 UV-I 248 W/m 15,6 C 6,4 km/h (2 Bft)
19.08.2016 14:05 20,8 C 21,1 C 72 % 1011,2 hPa 0,0 mm 3,8 km/h (1 Bft) W-NW 293 0 min 0,000 mm 2,9 UV-I 243 W/m 15,6 C 6,4 km/h (2 Bft)
19.08.2016 14:06 20,7 C 20,8 C 73 % 1011,2 hPa 0,0 mm 1,7 km/h (1 Bft) W-NW 293 0 min 0,000 mm 3,3 UV-I 278 W/m 15,7 C 4,8 km/h (1 Bft)
19.08.2016 14:07 20,7 C 20,7 C 73 % 1011,3 hPa 0,0 mm 2,1 km/h (1 Bft) N 355 0 min 0,000 mm 3,9 UV-I 278 W/m 15,7 C 4,8 km/h (1 Bft)
19.08.2016 14:08 20,7 C 20,7 C 71 % 1011,3 hPa 0,0 mm 5,2 km/h (1 Bft) NW 321 0 min 0,000 mm 5,9 UV-I 278 W/m 15,2 C 6,4 km/h (2 Bft)
19.08.2016 14:09 20,8 C 20,8 C 72 % 1011,3 hPa 0,0 mm 3,1 km/h (1 Bft) N-NW 342 0 min 0,000 mm 5,5 UV-I 278 W/m 15,6 C 4,8 km/h (1 Bft)
19.08.2016 14:10 21,0 C 21,0 C 72 % 1011,4 hPa 0,0 mm 1,7 km/h (1 Bft) N-NW 342 0 min 0,000 mm 3,3 UV-I 278 W/m 15,8 C 3,2 km/h (1 Bft)
19.08.2016 14:11 20,9 C 21,0 C 70 % 1011,3 hPa 0,0 mm 2,7 km/h (1 Bft) N-NW 343 0 min 0,000 mm 4,0 UV-I 278 W/m 15,2 C 3,2 km/h (1 Bft)
19.08.2016 14:12 20,9 C 20,9 C 72 % 1011,3 hPa 0,0 mm 3,5 km/h (1 Bft) N-NO 24 0 min 0,000 mm 5,7 UV-I 278 W/m 15,7 C 4,8 km/h (1 Bft)
19.08.2016 14:13 20,8 C 20,9 C 67 % 1011,3 hPa 0,0 mm 2,7 km/h (1 Bft) N-NO 24 0 min 0,000 mm 6,1 UV-I 239 W/m 14,4 C 3,2 km/h (1 Bft)
19.08.2016 14:14 20,8 C 20,8 C 69 % 1011,3 hPa 0,0 mm 1,3 km/h (1 Bft) N 5 0 min 0,000 mm 6,5 UV-I 239 W/m 14,9 C 3,2 km/h (1 Bft)
19.08.2016 14:15 20,9 C 20,9 C 74 % 1011,3 hPa 0,0 mm 1,1 km/h (1 Bft) N 5 1 min 0,000 mm 6,6 UV-I 932 W/m 16,1 C 3,2 km/h (1 Bft)
19.08.2016 14:16 21,1 C 21,1 C 71 % 1011,3 hPa 0,0 mm 3,7 km/h (1 Bft) O-NO 69 1 min 0,000 mm 6,7 UV-I 953 W/m 15,6 C 6,4 km/h (2 Bft)
19.08.2016 14:17 21,2 C 21,2 C 72 % 1011,3 hPa 0,0 mm 5,3 km/h (1 Bft) NO 43 1 min 0,000 mm 6,8 UV-I 958 W/m 15,9 C 8,0 km/h (2 Bft)
19.08.2016 14:18 21,3 C 21,3 C 72 % 1011,3 hPa 0,0 mm 6,7 km/h (2 Bft) O-NO 63 1 min 0,000 mm 6,8 UV-I 958 W/m 16,0 C 8,0 km/h (2 Bft)
19.08.2016 14:19 21,3 C 21,3 C 70 % 1011,3 hPa 0,0 mm 4,3 km/h (1 Bft) S-SO 155 1 min 0,000 mm 4,9 UV-I 958 W/m 15,6 C 6,4 km/h (2 Bft)
19.08.2016 14:20 21,2 C 21,3 C 65 % 1011,3 hPa 0,0 mm 3,2 km/h (1 Bft) S-SO 155 1 min 0,000 mm 6,4 UV-I 942 W/m 14,4 C 4,8 km/h (1 Bft)
19.08.2016 14:21 21,1 C 21,2 C 68 % 1011,3 hPa 0,0 mm 2,2 km/h (1 Bft) S-SO 150 1 min 0,000 mm 4,2 UV-I 942 W/m 15,0 C 3,2 km/h (1 Bft)
19.08.2016 14:22 20,9 C 21,1 C 69 % 1011,3 hPa 0,0 mm 0,9 km/h (0 Bft) S-SO 150 1 min 0,000 mm 4,4 UV-I 942 W/m 15,0 C 1,6 km/h (1 Bft)
19.08.2016 14:23 20,9 C 20,9 C 68 % 1011,3 hPa 0,0 mm 1,3 km/h (1 Bft) S-SO 150 1 min 0,000 mm 3,7 UV-I 942 W/m 14,8 C 1,6 km/h (1 Bft)
19.08.2016 14:24 20,9 C 20,9 C 68 % 1011,2 hPa 0,0 mm 1,4 km/h (1 Bft) S-SO 159 1 min 0,000 mm 3,1 UV-I 942 W/m 14,8 C 3,2 km/h (1 Bft)
19.08.2016 14:25 20,8 C 20,9 C 70 % 1011,2 hPa 0,0 mm 2,3 km/h (1 Bft) W-SW 239 0 min 0,000 mm 2,9 UV-I 202 W/m 15,1 C 3,2 km/h (1 Bft)
19.08.2016 14:26 20,9 C 20,9 C 72 % 1011,3 hPa 0,0 mm 1,7 km/h (1 Bft) NW 320 0 min 0,000 mm 2,8 UV-I 206 W/m 15,7 C 4,8 km/h (1 Bft)
19.08.2016 14:27 20,9 C 20,9 C 72 % 1011,2 hPa 0,0 mm 2,5 km/h (1 Bft) W-NW 302 0 min 0,000 mm 3,0 UV-I 241 W/m 15,7 C 3,2 km/h (1 Bft)
19.08.2016 14:28 20,9 C 21,0 C 67 % 1011,2 hPa 0,0 mm 3,9 km/h (1 Bft) W-NW 286 0 min 0,000 mm 3,8 UV-I 320 W/m 14,5 C 8,0 km/h (2 Bft)
19.08.2016 14:29 20,9 C 20,9 C 67 % 1011,2 hPa 0,0 mm 4,8 km/h (1 Bft) W-NW 286 0 min 0,000 mm 3,2 UV-I 295 W/m 14,5 C 6,4 km/h (2 Bft)
19.08.2016 14:30 20,9 C 20,9 C 66 % 1011,2 hPa 0,0 mm 3,8 km/h (1 Bft) W-SW 253 0 min 0,000 mm 3,3 UV-I 285 W/m 14,3 C 4,8 km/h (1 Bft)
19.08.2016 14:31 20,8 C 20,9 C 67 % 1011,3 hPa 0,0 mm 3,4 km/h (1 Bft) SW 225 0 min 0,000 mm 3,3 UV-I 299 W/m 14,4 C 4,8 km/h (1 Bft)
19.08.2016 14:32 20,8 C 20,8 C 70 % 1011,2 hPa 0,0 mm 2,2 km/h (1 Bft) SW 225 0 min 0,000 mm 5,9 UV-I 299 W/m 15,1 C 4,8 km/h (1 Bft)
19.08.2016 14:33 20,9 C 20,9 C 73 % 1011,2 hPa 0,0 mm 2,2 km/h (1 Bft) S 183 1 min 0,000 mm 5,8 UV-I 708 W/m 15,9 C 3,2 km/h (1 Bft)
19.08.2016 14:34 20,9 C 20,9 C 65 % 1011,2 hPa 0,0 mm 2,2 km/h (1 Bft) S 183 1 min 0,000 mm 5,9 UV-I 708 W/m 14,1 C 3,2 km/h (1 Bft)
19.08.2016 14:35 21,1 C 21,1 C 66 % 1011,1 hPa 0,0 mm 2,3 km/h (1 Bft) S 182 1 min 0,000 mm 6,2 UV-I 846 W/m 14,5 C 3,2 km/h (1 Bft)
19.08.2016 14:36 21,1 C 21,1 C 65 % 1011,2 hPa 0,0 mm 2,6 km/h (1 Bft) S 176 1 min 0,000 mm 6,0 UV-I 833 W/m 14,3 C 4,8 km/h (1 Bft)
19.08.2016 14:37 21,3 C 21,3 C 70 % 1011,1 hPa 0,0 mm 2,8 km/h (1 Bft) W-NW 302 1 min 0,000 mm 6,1 UV-I 780 W/m 15,6 C 4,8 km/h (1 Bft)
19.08.2016 14:38 21,4 C 21,4 C 66 % 1011,0 hPa 0,0 mm 8,2 km/h (2 Bft) N-NW 327 1 min 0,000 mm 6,2 UV-I 830 W/m 14,8 C 12,9 km/h (3 Bft)
19.08.2016 14:39 21,4 C 21,4 C 68 % 1011,0 hPa 0,0 mm 4,5 km/h (1 Bft) N-NW 338 1 min 0,000 mm 6,0 UV-I 830 W/m 15,2 C 6,4 km/h (2 Bft)
19.08.2016 14:40 21,6 C 21,6 C 67 % 1011,0 hPa 0,0 mm 5,8 km/h (2 Bft) N-NW 347 1 min 0,000 mm 6,0 UV-I 772 W/m 15,2 C 8,0 km/h (2 Bft)
19.08.2016 14:41 21,8 C 21,8 C 67 % 1011,0 hPa 0,0 mm 5,6 km/h (1 Bft) N 360 1 min 0,000 mm 6,2 UV-I 831 W/m 15,4 C 8,0 km/h (2 Bft)
19.08.2016 14:42 21,8 C 21,8 C 67 % 1011,0 hPa 0,0 mm 6,4 km/h (2 Bft) N-NO 15 1 min 0,000 mm 6,2 UV-I 835 W/m 15,4 C 8,0 km/h (2 Bft)
19.08.2016 14:43 21,8 C 21,9 C 67 % 1011,0 hPa 0,0 mm 6,3 km/h (2 Bft) N-NO 32 1 min 0,000 mm 6,1 UV-I 831 W/m 15,4 C 8,0 km/h (2 Bft)
19.08.2016 14:44 21,8 C 21,8 C 67 % 1011,0 hPa 0,0 mm 4,2 km/h (1 Bft) O 79 1 min 0,000 mm 6,1 UV-I 826 W/m 15,4 C 6,4 km/h (2 Bft)
19.08.2016 14:45 21,8 C 21,9 C 68 % 1011,0 hPa 0,0 mm 3,2 km/h (1 Bft) N 355 1 min 0,000 mm 6,2 UV-I 854 W/m 15,6 C 8,0 km/h (2 Bft)
19.08.2016 14:46 21,8 C 21,8 C 68 % 1011,0 hPa 0,0 mm 6,4 km/h (2 Bft) N 355 1 min 0,000 mm 6,2 UV-I 828 W/m 15,6 C 9,7 km/h (2 Bft)
19.08.2016 14:47 21,9 C 21,9 C 69 % 1011,0 hPa 0,0 mm 3,2 km/h (1 Bft) NO 49 1 min 0,000 mm 6,1 UV-I 826 W/m 15,9 C 6,4 km/h (2 Bft)
19.08.2016 14:48 21,9 C 21,9 C 66 % 1011,0 hPa 0,0 mm 3,2 km/h (1 Bft) N 5 1 min 0,000 mm 6,1 UV-I 772 W/m 15,3 C 4,8 km/h (1 Bft)
19.08.2016 14:49 21,8 C 21,9 C 66 % 1011,0 hPa 0,0 mm 3,4 km/h (1 Bft) N 349 1 min 0,000 mm 5,3 UV-I 772 W/m 15,2 C 4,8 km/h (1 Bft)
19.08.2016 14:50 21,9 C 21,9 C 70 % 1011,0 hPa 0,0 mm 1,3 km/h (1 Bft) N 349 1 min 0,000 mm 6,2 UV-I 772 W/m 16,2 C 1,6 km/h (1 Bft)
19.08.2016 14:51 22,0 C 22,0 C 67 % 1011,0 hPa 0,0 mm 3,2 km/h (1 Bft) N-NO 24 1 min 0,000 mm 4,0 UV-I 772 W/m 15,6 C 4,8 km/h (1 Bft)
19.08.2016 14:52 21,9 C 22,0 C 69 % 1011,0 hPa 0,0 mm 7,2 km/h (2 Bft) O 90 0 min 0,000 mm 3,3 UV-I 339 W/m 15,9 C 9,7 km/h (2 Bft)
19.08.2016 14:53 21,9 C 21,9 C 67 % 1011,0 hPa 0,0 mm 4,9 km/h (1 Bft) O 80 0 min 0,000 mm 4,1 UV-I 330 W/m 15,5 C 8,0 km/h (2 Bft)
19.08.2016 14:54 21,7 C 21,9 C 69 % 1011,0 hPa 0,0 mm 2,9 km/h (1 Bft) NO 38 0 min 0,000 mm 3,2 UV-I 345 W/m 15,8 C 4,8 km/h (1 Bft)
19.08.2016 14:55 21,7 C 21,7 C 69 % 1011,0 hPa 0,0 mm 4,1 km/h (1 Bft) N 5 0 min 0,000 mm 3,0 UV-I 345 W/m 15,8 C 4,8 km/h (1 Bft)
19.08.2016 14:56 21,6 C 21,7 C 69 % 1011,0 hPa 0,0 mm 4,1 km/h (1 Bft) NO 38 0 min 0,000 mm 5,0 UV-I 345 W/m 15,7 C 4,8 km/h (1 Bft)
19.08.2016 14:57 21,6 C 21,6 C 70 % 1011,0 hPa 0,0 mm 3,8 km/h (1 Bft) NO 38 0 min 0,000 mm 5,4 UV-I 345 W/m 15,9 C 6,4 km/h (2 Bft)
19.08.2016 14:58 21,7 C 21,7 C 70 % 1011,0 hPa 0,0 mm 4,6 km/h (1 Bft) N 355 0 min 0,000 mm 5,3 UV-I 345 W/m 16,0 C 8,0 km/h (2 Bft)
19.08.2016 14:59 21,9 C 21,9 C 69 % 1011,0 hPa 0,0 mm 5,6 km/h (1 Bft) NO 48 1 min 0,000 mm 5,1 UV-I 949 W/m 15,9 C 8,0 km/h (2 Bft)
19.08.2016 15:00 21,9 C 22,0 C 66 % 1011,0 hPa 0,0 mm 7,1 km/h (2 Bft) NO 36 0 min 0,000 mm 2,8 UV-I 338 W/m 15,3 C 9,7 km/h (2 Bft)
19.08.2016 15:01 21,8 C 21,9 C 67 % 1011,0 hPa 0,0 mm 3,8 km/h (1 Bft) NO 42 0 min 0,355 mm 2,3 UV-I 239 W/m 15,4 C 8,0 km/h (2 Bft)
19.08.2016 15:02 21,8 C 21,9 C 71 % 1011,0 hPa 0,0 mm 2,9 km/h (1 Bft) N-NO 22 0 min 0,000 mm 2,2 UV-I 206 W/m 16,3 C 4,8 km/h (1 Bft)
19.08.2016 15:03 21,7 C 21,8 C 69 % 1011,0 hPa 0,0 mm 4,7 km/h (1 Bft) N-NO 17 0 min 0,000 mm 2,1 UV-I 197 W/m 15,8 C 6,4 km/h (2 Bft)
19.08.2016 15:04 21,5 C 21,7 C 68 % 1011,0 hPa 0,0 mm 3,2 km/h (1 Bft) NO 36 0 min 0,000 mm 2,1 UV-I 188 W/m 15,3 C 4,8 km/h (1 Bft)
19.08.2016 15:05 21,3 C 21,5 C 71 % 1011,0 hPa 0,0 mm 2,2 km/h (1 Bft) N-NO 32 0 min 0,000 mm 2,1 UV-I 183 W/m 15,8 C 3,2 km/h (1 Bft)
19.08.2016 15:06 21,2 C 21,3 C 69 % 1011,0 hPa 0,0 mm 2,6 km/h (1 Bft) N 355 0 min 0,000 mm 2,0 UV-I 172 W/m 15,3 C 4,8 km/h (1 Bft)
19.08.2016 15:07 21,2 C 21,2 C 71 % 1011,0 hPa 0,0 mm 2,9 km/h (1 Bft) N-NO 19 0 min 0,000 mm 1,9 UV-I 167 W/m 15,7 C 3,2 km/h (1 Bft)
19.08.2016 15:08 21,1 C 21,2 C 71 % 1011,1 hPa 0,0 mm 2,5 km/h (1 Bft) O-NO 59 0 min 0,000 mm 1,9 UV-I 169 W/m 15,6 C 4,8 km/h (1 Bft)
19.08.2016 15:09 21,0 C 21,1 C 72 % 1011,0 hPa 0,0 mm 4,1 km/h (1 Bft) N 355 0 min 0,000 mm 1,9 UV-I 165 W/m 15,8 C 6,4 km/h (2 Bft)
19.08.2016 15:10 20,9 C 21,0 C 72 % 1011,0 hPa 0,0 mm 4,0 km/h (1 Bft) NO 40 0 min 0,000 mm 1,9 UV-I 162 W/m 15,7 C 6,4 km/h (2 Bft)
19.08.2016 15:11 20,8 C 20,9 C 72 % 1011,1 hPa 0,0 mm 3,3 km/h (1 Bft) NO 40 0 min 0,000 mm 1,9 UV-I 162 W/m 15,6 C 6,4 km/h (2 Bft)
19.08.2016 15:12 20,8 C 20,8 C 73 % 1011,1 hPa 0,0 mm 3,8 km/h (1 Bft) O-NO 76 0 min 0,000 mm 1,9 UV-I 162 W/m 15,8 C 4,8 km/h (1 Bft)
19.08.2016 15:13 20,7 C 20,8 C 73 % 1011,1 hPa 0,0 mm 1,9 km/h (1 Bft) O 94 0 min 0,000 mm 2,0 UV-I 169 W/m 15,7 C 4,8 km/h (1 Bft)
19.08.2016 15:14 20,6 C 20,7 C 75 % 1011,1 hPa 0,0 mm 4,8 km/h (1 Bft) O-NO 72 0 min 0,000 mm 2,1 UV-I 188 W/m 16,0 C 8,0 km/h (2 Bft)
19.08.2016 15:15 20,5 C 20,6 C 72 % 1011,1 hPa 0,0 mm 4,6 km/h (1 Bft) NO 50 0 min 0,000 mm 2,2 UV-I 207 W/m 15,3 C 6,4 km/h (2 Bft)
19.08.2016 15:16 20,5 C 20,5 C 72 % 1011,1 hPa 0,0 mm 3,9 km/h (1 Bft) O-NO 57 0 min 0,000 mm 2,3 UV-I 223 W/m 15,3 C 4,8 km/h (1 Bft)
19.08.2016 15:17 20,6 C 20,6 C 76 % 1011,1 hPa 0,0 mm 2,7 km/h (1 Bft) O-NO 57 0 min 0,000 mm 2,3 UV-I 202 W/m 16,2 C 4,8 km/h (1 Bft)
19.08.2016 15:18 20,5 C 20,6 C 75 % 1011,0 hPa 0,0 mm 2,1 km/h (1 Bft) O-NO 57 0 min 0,000 mm 2,2 UV-I 202 W/m 15,9 C 3,2 km/h (1 Bft)
19.08.2016 15:19 20,4 C 20,5 C 76 % 1011,1 hPa 0,0 mm 1,4 km/h (1 Bft) O-NO 57 0 min 0,000 mm 2,4 UV-I 218 W/m 16,0 C 3,2 km/h (1 Bft)
19.08.2016 15:20 20,4 C 20,4 C 74 % 1011,0 hPa 0,0 mm 0,6 km/h (0 Bft) NO 42 0 min 0,000 mm 2,5 UV-I 227 W/m 15,6 C 1,6 km/h (1 Bft)
19.08.2016 15:21 20,4 C 20,4 C 75 % 1011,0 hPa 0,0 mm 1,1 km/h (1 Bft) NO 41 0 min 0,000 mm 2,6 UV-I 237 W/m 15,8 C 3,2 km/h (1 Bft)
19.08.2016 15:22 20,4 C 20,4 C 76 % 1011,0 hPa 0,0 mm 1,3 km/h (1 Bft) NO 44 0 min 0,000 mm 2,7 UV-I 246 W/m 16,0 C 3,2 km/h (1 Bft)
19.08.2016 15:23 20,4 C 20,4 C 75 % 1011,0 hPa 0,0 mm 1,3 km/h (1 Bft) NO 42 0 min 0,000 mm 2,8 UV-I 251 W/m 15,8 C 4,8 km/h (1 Bft)
19.08.2016 15:24 20,4 C 20,4 C 75 % 1011,0 hPa 0,0 mm 4,1 km/h (1 Bft) O-NO 58 0 min 0,000 mm 2,9 UV-I 258 W/m 15,8 C 6,4 km/h (2 Bft)
19.08.2016 15:25 20,4 C 20,4 C 76 % 1011,0 hPa 0,0 mm 2,5 km/h (1 Bft) O-NO 63 0 min 0,000 mm 2,7 UV-I 200 W/m 16,0 C 3,2 km/h (1 Bft)
19.08.2016 15:26 20,3 C 20,4 C 73 % 1011,0 hPa 0,0 mm 1,7 km/h (1 Bft) O 80 0 min 0,000 mm 2,7 UV-I 195 W/m 15,3 C 3,2 km/h (1 Bft)
19.08.2016 15:27 20,3 C 20,4 C 72 % 1010,9 hPa 0,0 mm 2,5 km/h (1 Bft) O-NO 75 0 min 0,000 mm 2,9 UV-I 227 W/m 15,1 C 4,8 km/h (1 Bft)
19.08.2016 15:28 20,4 C 20,4 C 73 % 1011,0 hPa 0,0 mm 3,4 km/h (1 Bft) NO 55 0 min 0,000 mm 4,1 UV-I 227 W/m 15,4 C 6,4 km/h (2 Bft)
19.08.2016 15:29 20,6 C 20,6 C 78 % 1011,0 hPa 0,0 mm 3,2 km/h (1 Bft) O 86 1 min 0,000 mm 4,0 UV-I 552 W/m 16,6 C 4,8 km/h (1 Bft)
19.08.2016 15:30 20,6 C 20,6 C 72 % 1011,0 hPa 0,0 mm 0,6 km/h (0 Bft) O 86 1 min 0,000 mm 4,4 UV-I 580 W/m 15,4 C 1,6 km/h (1 Bft)
19.08.2016 15:31 20,7 C 20,7 C 72 % 1010,9 hPa 0,0 mm 1,8 km/h (1 Bft) NO 46 1 min 0,000 mm 4,2 UV-I 554 W/m 15,5 C 4,8 km/h (1 Bft)
19.08.2016 15:32 20,8 C 20,8 C 74 % 1011,0 hPa 0,0 mm 2,7 km/h (1 Bft) S-SO 148 1 min 0,000 mm 4,5 UV-I 582 W/m 16,0 C 4,8 km/h (1 Bft)
19.08.2016 15:33 20,8 C 20,8 C 71 % 1010,9 hPa 0,0 mm 1,4 km/h (1 Bft) S-SO 148 1 min 0,000 mm 4,7 UV-I 652 W/m 15,3 C 3,2 km/h (1 Bft)
19.08.2016 15:34 21,1 C 21,1 C 74 % 1011,0 hPa 0,0 mm 3,2 km/h (1 Bft) O 79 1 min 0,000 mm 4,7 UV-I 671 W/m 16,3 C 4,8 km/h (1 Bft)
19.08.2016 15:35 21,1 C 21,1 C 70 % 1011,0 hPa 0,0 mm 7,9 km/h (2 Bft) O-NO 63 1 min 0,000 mm 4,6 UV-I 643 W/m 15,4 C 11,3 km/h (2 Bft)
19.08.2016 15:36 21,1 C 21,2 C 70 % 1011,0 hPa 0,0 mm 6,5 km/h (2 Bft) O-NO 62 1 min 0,000 mm 4,5 UV-I 622 W/m 15,4 C 8,0 km/h (2 Bft)
19.08.2016 15:37 21,2 C 21,2 C 70 % 1011,0 hPa 0,0 mm 4,6 km/h (1 Bft) O 82 1 min 0,000 mm 4,4 UV-I 612 W/m 15,5 C 6,4 km/h (2 Bft)
19.08.2016 15:38 21,1 C 21,2 C 68 % 1011,0 hPa 0,0 mm 2,7 km/h (1 Bft) O-SO 111 1 min 0,000 mm 4,2 UV-I 568 W/m 15,0 C 6,4 km/h (2 Bft)
19.08.2016 15:39 21,1 C 21,1 C 69 % 1011,0 hPa 0,0 mm 1,8 km/h (1 Bft) SO 134 1 min 0,000 mm 4,2 UV-I 573 W/m 15,2 C 3,2 km/h (1 Bft)
19.08.2016 15:40 21,1 C 21,1 C 68 % 1011,0 hPa 0,0 mm 1,3 km/h (1 Bft) SO 134 1 min 0,000 mm 4,2 UV-I 545 W/m 15,0 C 3,2 km/h (1 Bft)
19.08.2016 15:41 21,1 C 21,1 C 70 % 1011,0 hPa 0,0 mm 3,2 km/h (1 Bft) O-SO 121 1 min 0,000 mm 3,9 UV-I 531 W/m 15,4 C 6,4 km/h (2 Bft)
19.08.2016 15:42 21,1 C 21,1 C 67 % 1011,0 hPa 0,0 mm 3,6 km/h (1 Bft) SO 140 1 min 0,000 mm 3,9 UV-I 524 W/m 14,7 C 4,8 km/h (1 Bft)
19.08.2016 15:43 21,0 C 21,1 C 70 % 1011,0 hPa 0,0 mm 1,9 km/h (1 Bft) SO 140 1 min 0,000 mm 3,9 UV-I 512 W/m 15,3 C 3,2 km/h (1 Bft)
19.08.2016 15:44 21,1 C 21,1 C 70 % 1011,0 hPa 0,0 mm 1,0 km/h (0 Bft) SO 140 1 min 0,000 mm 3,9 UV-I 520 W/m 15,4 C 1,6 km/h (1 Bft)
19.08.2016 15:45 21,2 C 21,2 C 72 % 1011,0 hPa 0,0 mm 1,5 km/h (1 Bft) SO 140 1 min 0,000 mm 3,9 UV-I 533 W/m 15,9 C 3,2 km/h (1 Bft)
19.08.2016 15:46 21,2 C 21,2 C 67 % 1010,9 hPa 0,0 mm 0,5 km/h (0 Bft) SO 140 1 min 0,000 mm 3,7 UV-I 487 W/m 14,8 C 1,6 km/h (1 Bft)
19.08.2016 15:47 21,2 C 21,2 C 67 % 1011,0 hPa 0,0 mm 0,8 km/h (0 Bft) SO 140 1 min 0,000 mm 3,7 UV-I 492 W/m 14,8 C 1,6 km/h (1 Bft)
19.08.2016 15:48 21,2 C 21,2 C 67 % 1011,0 hPa 0,0 mm 0,1 km/h (0 Bft) SO 140 1 min 0,000 mm 3,8 UV-I 519 W/m 14,8 C 1,6 km/h (1 Bft)
19.08.2016 15:49 21,2 C 21,2 C 69 % 1011,0 hPa 0,0 mm 1,7 km/h (1 Bft) S-SW 202 1 min 0,000 mm 3,8 UV-I 538 W/m 15,3 C 3,2 km/h (1 Bft)
19.08.2016 15:50 21,2 C 21,2 C 68 % 1011,0 hPa 0,0 mm 3,5 km/h (1 Bft) W-SW 240 1 min 0,000 mm 3,8 UV-I 545 W/m 15,1 C 4,8 km/h (1 Bft)
19.08.2016 15:51 21,2 C 21,2 C 67 % 1010,9 hPa 0,0 mm 5,6 km/h (1 Bft) W 262 1 min 0,000 mm 3,8 UV-I 555 W/m 14,8 C 9,7 km/h (2 Bft)
19.08.2016 15:52 21,2 C 21,2 C 67 % 1010,9 hPa 0,0 mm 6,3 km/h (2 Bft) W-SW 253 1 min 0,000 mm 2,4 UV-I 555 W/m 14,8 C 9,7 km/h (2 Bft)
19.08.2016 15:53 21,1 C 21,2 C 67 % 1011,0 hPa 0,0 mm 5,8 km/h (2 Bft) W 270 0 min 0,000 mm 2,2 UV-I 195 W/m 14,7 C 9,7 km/h (2 Bft)
19.08.2016 15:54 21,1 C 21,2 C 68 % 1011,0 hPa 0,0 mm 4,1 km/h (1 Bft) W 260 0 min 0,000 mm 2,6 UV-I 258 W/m 15,0 C 6,4 km/h (2 Bft)
19.08.2016 15:55 21,1 C 21,1 C 66 % 1011,0 hPa 0,0 mm 2,9 km/h (1 Bft) W 279 0 min 0,000 mm 2,6 UV-I 264 W/m 14,5 C 6,4 km/h (2 Bft)
19.08.2016 15:56 21,1 C 21,1 C 67 % 1011,0 hPa 0,0 mm 3,7 km/h (1 Bft) S 178 0 min 0,000 mm 3,2 UV-I 264 W/m 14,7 C 4,8 km/h (1 Bft)
19.08.2016 15:57 21,1 C 21,1 C 67 % 1011,0 hPa 0,0 mm 3,6 km/h (1 Bft) S 178 1 min 0,000 mm 3,1 UV-I 461 W/m 14,7 C 6,4 km/h (2 Bft)
19.08.2016 15:58 21,1 C 21,1 C 67 % 1011,0 hPa 0,0 mm 2,0 km/h (1 Bft) S 178 1 min 0,000 mm 2,2 UV-I 461 W/m 14,7 C 4,8 km/h (1 Bft)
19.08.2016 15:59 21,1 C 21,1 C 67 % 1011,0 hPa 0,0 mm 0,4 km/h (0 Bft) S 178 0 min 0,000 mm 2,1 UV-I 160 W/m 14,7 C 1,6 km/h (1 Bft)
19.08.2016 16:00 21,1 C 21,1 C 69 % 1011,0 hPa 0,0 mm 0,4 km/h (0 Bft) S 178 0 min 0,000 mm 2,0 UV-I 155 W/m 15,2 C 1,6 km/h (1 Bft)
19.08.2016 16:01 21,1 C 21,1 C 67 % 1011,0 hPa 0,0 mm 1,0 km/h (0 Bft) W-SW 252 0 min 0,229 mm 2,0 UV-I 162 W/m 14,7 C 3,2 km/h (1 Bft)
19.08.2016 16:02 21,1 C 21,1 C 67 % 1011,1 hPa 0,0 mm 1,5 km/h (1 Bft) W-NW 302 0 min 0,000 mm 2,0 UV-I 169 W/m 14,7 C 3,2 km/h (1 Bft)
19.08.2016 16:03 21,1 C 21,1 C 70 % 1011,0 hPa 0,0 mm 4,3 km/h (1 Bft) W-NW 298 0 min 0,000 mm 1,9 UV-I 160 W/m 15,4 C 6,4 km/h (2 Bft)
19.08.2016 16:04 21,1 C 21,1 C 69 % 1011,1 hPa 0,0 mm 4,1 km/h (1 Bft) N-NW 343 0 min 0,000 mm 1,8 UV-I 134 W/m 15,2 C 8,0 km/h (2 Bft)
19.08.2016 16:05 21,0 C 21,1 C 69 % 1011,0 hPa 0,0 mm 1,7 km/h (1 Bft) NW 309 0 min 0,000 mm 1,7 UV-I 134 W/m 15,1 C 3,2 km/h (1 Bft)
19.08.2016 16:06 21,0 C 21,0 C 69 % 1011,1 hPa 0,0 mm 3,9 km/h (1 Bft) W-NW 294 0 min 0,000 mm 1,6 UV-I 134 W/m 15,1 C 4,8 km/h (1 Bft)
19.08.2016 16:07 20,9 C 21,0 C 69 % 1011,0 hPa 0,0 mm 5,8 km/h (2 Bft) N-NW 329 0 min 0,000 mm 1,6 UV-I 139 W/m 15,0 C 8,0 km/h (2 Bft)
19.08.2016 16:08 20,9 C 20,9 C 71 % 1011,1 hPa 0,0 mm 3,6 km/h (1 Bft) N-NW 330 0 min 0,000 mm 1,6 UV-I 141 W/m 15,4 C 4,8 km/h (1 Bft)
19.08.2016 16:09 20,9 C 20,9 C 71 % 1011,0 hPa 0,0 mm 2,5 km/h (1 Bft) N-NW 338 0 min 0,000 mm 1,6 UV-I 141 W/m 15,4 C 3,2 km/h (1 Bft)
19.08.2016 16:10 20,9 C 20,9 C 71 % 1011,0 hPa 0,0 mm 3,0 km/h (1 Bft) N 360 0 min 0,000 mm 1,6 UV-I 158 W/m 15,4 C 4,8 km/h (1 Bft)
19.08.2016 16:11 21,1 C 21,1 C 69 % 1011,0 hPa 0,0 mm 2,5 km/h (1 Bft) N 355 0 min 0,000 mm 1,7 UV-I 158 W/m 15,2 C 4,8 km/h (1 Bft)
19.08.2016 16:12 21,1 C 21,1 C 70 % 1011,0 hPa 0,0 mm 5,7 km/h (1 Bft) N-NW 338 0 min 0,000 mm 1,9 UV-I 188 W/m 15,4 C 8,0 km/h (2 Bft)
19.08.2016 16:13 21,1 C 21,1 C 72 % 1011,0 hPa 0,0 mm 1,8 km/h (1 Bft) N-NW 338 0 min 0,000 mm 2,0 UV-I 190 W/m 15,8 C 4,8 km/h (1 Bft)
19.08.2016 16:14 20,9 C 21,1 C 76 % 1010,9 hPa 0,0 mm 2,9 km/h (1 Bft) N-NW 331 0 min 0,000 mm 2,0 UV-I 185 W/m 16,5 C 4,8 km/h (1 Bft)
19.08.2016 16:15 20,9 C 20,9 C 74 % 1011,0 hPa 0,0 mm 3,7 km/h (1 Bft) N-NW 347 0 min 0,000 mm 2,0 UV-I 186 W/m 16,1 C 4,8 km/h (1 Bft)
19.08.2016 16:16 20,9 C 20,9 C 73 % 1011,0 hPa 0,0 mm 2,1 km/h (1 Bft) N-NW 347 0 min 0,000 mm 2,1 UV-I 209 W/m 15,9 C 3,2 km/h (1 Bft)
19.08.2016 16:17 20,9 C 20,9 C 74 % 1010,9 hPa 0,0 mm 2,1 km/h (1 Bft) N-NW 347 0 min 0,000 mm 2,4 UV-I 279 W/m 16,1 C 3,2 km/h (1 Bft)
19.08.2016 16:18 20,9 C 20,9 C 74 % 1011,0 hPa 0,0 mm 5,2 km/h (1 Bft) O 79 0 min 0,000 mm 2,5 UV-I 274 W/m 16,1 C 8,0 km/h (2 Bft)
19.08.2016 16:19 20,9 C 20,9 C 72 % 1010,9 hPa 0,0 mm 5,6 km/h (1 Bft) O-NO 69 0 min 0,000 mm 2,4 UV-I 279 W/m 15,7 C 8,0 km/h (2 Bft)
19.08.2016 16:20 20,9 C 20,9 C 73 % 1010,9 hPa 0,0 mm 5,9 km/h (2 Bft) N-NO 18 0 min 0,000 mm 2,3 UV-I 204 W/m 15,9 C 8,0 km/h (2 Bft)
19.08.2016 16:21 20,9 C 20,9 C 72 % 1010,9 hPa 0,0 mm 5,4 km/h (1 Bft) O-NO 78 0 min 0,000 mm 2,3 UV-I 204 W/m 15,7 C 9,7 km/h (2 Bft)
19.08.2016 16:22 20,9 C 20,9 C 72 % 1010,9 hPa 0,0 mm 6,0 km/h (2 Bft) NO 42 0 min 0,000 mm 2,2 UV-I 197 W/m 15,7 C 8,0 km/h (2 Bft)
19.08.2016 16:23 20,9 C 20,9 C 72 % 1010,9 hPa 0,0 mm 5,1 km/h (1 Bft) NO 55 0 min 0,000 mm 2,1 UV-I 192 W/m 15,7 C 6,4 km/h (2 Bft)
19.08.2016 16:24 20,8 C 20,9 C 74 % 1010,9 hPa 0,0 mm 3,6 km/h (1 Bft) NO 44 0 min 0,000 mm 2,0 UV-I 192 W/m 16,0 C 6,4 km/h (2 Bft)
19.08.2016 16:25 20,9 C 20,9 C 72 % 1011,0 hPa 0,0 mm 6,0 km/h (2 Bft) O-NO 57 0 min 0,000 mm 2,0 UV-I 179 W/m 15,7 C 8,0 km/h (2 Bft)
19.08.2016 16:26 20,9 C 20,9 C 71 % 1011,0 hPa 0,0 mm 8,2 km/h (2 Bft) NO 52 0 min 0,000 mm 2,1 UV-I 183 W/m 15,4 C 11,3 km/h (2 Bft)
19.08.2016 16:27 20,9 C 20,9 C 72 % 1011,0 hPa 0,0 mm 5,0 km/h (1 Bft) O-NO 62 0 min 0,000 mm 2,1 UV-I 188 W/m 15,7 C 6,4 km/h (2 Bft)
19.08.2016 16:28 20,9 C 20,9 C 72 % 1011,0 hPa 0,0 mm 5,6 km/h (1 Bft) N-NO 24 0 min 0,000 mm 2,1 UV-I 181 W/m 15,7 C 8,0 km/h (2 Bft)
19.08.2016 16:29 20,9 C 20,9 C 72 % 1011,0 hPa 0,0 mm 4,9 km/h (1 Bft) NO 35 0 min 0,000 mm 2,0 UV-I 172 W/m 15,7 C 6,4 km/h (2 Bft)
19.08.2016 16:30 20,9 C 20,9 C 73 % 1011,0 hPa 0,0 mm 4,9 km/h (1 Bft) N-NO 17 0 min 0,000 mm 2,0 UV-I 172 W/m 15,9 C 6,4 km/h (2 Bft)
19.08.2016 16:31 20,8 C 20,9 C 76 % 1011,0 hPa 0,0 mm 4,5 km/h (1 Bft) NO 39 0 min 0,000 mm 2,0 UV-I 185 W/m 16,4 C 6,4 km/h (2 Bft)
19.08.2016 16:32 20,8 C 20,8 C 74 % 1011,0 hPa 0,0 mm 4,7 km/h (1 Bft) N-NO 27 0 min 0,000 mm 2,1 UV-I 202 W/m 16,0 C 6,4 km/h (2 Bft)
19.08.2016 16:33 20,8 C 20,8 C 76 % 1011,0 hPa 0,0 mm 4,5 km/h (1 Bft) O-NO 71 0 min 0,000 mm 2,2 UV-I 213 W/m 16,4 C 6,4 km/h (2 Bft)
19.08.2016 16:34 20,8 C 20,8 C 74 % 1011,0 hPa 0,0 mm 3,0 km/h (1 Bft) O-NO 57 0 min 0,000 mm 2,2 UV-I 192 W/m 16,0 C 6,4 km/h (2 Bft)
19.08.2016 16:35 20,8 C 20,8 C 73 % 1011,0 hPa 0,0 mm 3,6 km/h (1 Bft) NO 48 0 min 0,000 mm 2,1 UV-I 174 W/m 15,8 C 4,8 km/h (1 Bft)
19.08.2016 16:36 20,8 C 20,8 C 73 % 1011,0 hPa 0,0 mm 2,9 km/h (1 Bft) N-NO 24 0 min 0,000 mm 2,0 UV-I 156 W/m 15,8 C 6,4 km/h (2 Bft)
19.08.2016 16:37 20,9 C 20,9 C 73 % 1011,0 hPa 0,0 mm 4,6 km/h (1 Bft) NO 34 0 min 0,000 mm 2,0 UV-I 151 W/m 15,9 C 8,0 km/h (2 Bft)
19.08.2016 16:38 20,9 C 20,9 C 73 % 1011,1 hPa 0,0 mm 2,5 km/h (1 Bft) O-NO 74 0 min 0,000 mm 1,9 UV-I 151 W/m 15,9 C 4,8 km/h (1 Bft)
19.08.2016 16:39 20,8 C 20,9 C 75 % 1011,0 hPa 0,0 mm 2,9 km/h (1 Bft) O-NO 66 0 min 0,000 mm 1,9 UV-I 153 W/m 16,2 C 6,4 km/h (2 Bft)
19.08.2016 16:40 20,7 C 20,8 C 73 % 1011,0 hPa 0,0 mm 2,3 km/h (1 Bft) NO 42 0 min 0,000 mm 1,9 UV-I 160 W/m 15,7 C 4,8 km/h (1 Bft)
19.08.2016 16:41 20,7 C 20,8 C 74 % 1011,0 hPa 0,0 mm 4,0 km/h (1 Bft) NO 47 0 min 0,000 mm 1,9 UV-I 158 W/m 15,9 C 4,8 km/h (1 Bft)
19.08.2016 16:42 20,7 C 20,8 C 74 % 1011,0 hPa 0,0 mm 6,5 km/h (2 Bft) NO 55 0 min 0,000 mm 1,9 UV-I 155 W/m 15,9 C 8,0 km/h (2 Bft)
19.08.2016 16:43 20,8 C 20,8 C 73 % 1011,0 hPa 0,0 mm 3,5 km/h (1 Bft) O-NO 67 0 min 0,000 mm 1,9 UV-I 155 W/m 15,8 C 4,8 km/h (1 Bft)
19.08.2016 16:44 20,7 C 20,8 C 74 % 1011,0 hPa 0,0 mm 2,1 km/h (1 Bft) O-NO 67 0 min 0,000 mm 1,9 UV-I 155 W/m 15,9 C 3,2 km/h (1 Bft)
19.08.2016 16:45 20,7 C 20,7 C 74 % 1011,0 hPa 0,0 mm 0,9 km/h (0 Bft) O-NO 67 0 min 0,000 mm 1,8 UV-I 153 W/m 15,9 C 3,2 km/h (1 Bft)
19.08.2016 16:46 20,6 C 20,7 C 76 % 1011,0 hPa 0,0 mm 2,7 km/h (1 Bft) O 85 0 min 0,000 mm 1,8 UV-I 151 W/m 16,2 C 4,8 km/h (1 Bft)
19.08.2016 16:47 20,6 C 20,6 C 75 % 1011,0 hPa 0,0 mm 2,3 km/h (1 Bft) O 85 0 min 0,000 mm 1,8 UV-I 151 W/m 16,0 C 3,2 km/h (1 Bft)
19.08.2016 16:48 20,4 C 20,6 C 77 % 1011,0 hPa 0,0 mm 1,4 km/h (1 Bft) O 85 0 min 0,000 mm 1,8 UV-I 155 W/m 16,2 C 3,2 km/h (1 Bft)
19.08.2016 16:49 20,3 C 20,4 C 78 % 1011,0 hPa 0,0 mm 1,0 km/h (0 Bft) O-NO 57 0 min 0,000 mm 1,8 UV-I 160 W/m 16,3 C 4,8 km/h (1 Bft)
19.08.2016 16:50 20,4 C 20,4 C 77 % 1010,9 hPa 0,0 mm 2,3 km/h (1 Bft) O-NO 72 0 min 0,000 mm 1,8 UV-I 165 W/m 16,2 C 4,8 km/h (1 Bft)
19.08.2016 16:51 20,3 C 20,4 C 77 % 1010,9 hPa 0,0 mm 1,8 km/h (1 Bft) O-NO 72 0 min 0,000 mm 1,9 UV-I 176 W/m 16,1 C 3,2 km/h (1 Bft)
19.08.2016 16:52 20,4 C 20,4 C 73 % 1011,0 hPa 0,0 mm 0,8 km/h (0 Bft) O-NO 72 0 min 0,000 mm 1,8 UV-I 176 W/m 15,4 C 1,6 km/h (1 Bft)
19.08.2016 16:53 20,4 C 20,4 C 74 % 1011,0 hPa 0,0 mm 1,1 km/h (1 Bft) O-NO 72 0 min 0,000 mm 1,8 UV-I 179 W/m 15,6 C 1,6 km/h (1 Bft)
19.08.2016 16:54 20,5 C 20,5 C 77 % 1011,0 hPa 0,0 mm 2,3 km/h (1 Bft) O-NO 72 0 min 0,000 mm 1,8 UV-I 181 W/m 16,3 C 3,2 km/h (1 Bft)
19.08.2016 16:55 20,4 C 20,5 C 79 % 1011,0 hPa 0,0 mm 0,5 km/h (0 Bft) O-NO 72 0 min 0,000 mm 1,8 UV-I 183 W/m 16,6 C 1,6 km/h (1 Bft)
19.08.2016 16:56 20,4 C 20,4 C 73 % 1011,0 hPa 0,0 mm 0,6 km/h (0 Bft) O-NO 72 0 min 0,000 mm 1,8 UV-I 183 W/m 15,4 C 1,6 km/h (1 Bft)
19.08.2016 16:57 20,5 C 20,5 C 72 % 1011,0 hPa 0,0 mm 0,5 km/h (0 Bft) O-NO 72 0 min 0,000 mm 1,8 UV-I 185 W/m 15,3 C 1,6 km/h (1 Bft)
19.08.2016 16:58 20,6 C 20,6 C 74 % 1011,0 hPa 0,0 mm 0,2 km/h (0 Bft) O-NO 72 0 min 0,000 mm 1,7 UV-I 186 W/m 15,8 C 1,6 km/h (1 Bft)
19.08.2016 16:59 20,6 C 20,6 C 75 % 1011,0 hPa 0,0 mm 0,0 km/h (0 Bft) O-NO 72 0 min 0,000 mm 1,7 UV-I 186 W/m 16,0 C 0,0 km/h (0 Bft)
19.08.2016 17:00 20,6 C 20,6 C 74 % 1011,0 hPa 0,0 mm 0,0 km/h (0 Bft) O-NO 72 0 min 0,000 mm 1,7 UV-I 188 W/m 15,8 C 0,0 km/h (0 Bft)
19.08.2016 17:01 20,5 C 20,6 C 74 % 1011,0 hPa 0,0 mm 1,1 km/h (1 Bft) O-NO 72 0 min 0,127 mm 1,7 UV-I 188 W/m 15,7 C 1,6 km/h (1 Bft)
19.08.2016 17:02 20,3 C 20,5 C 74 % 1011,0 hPa 0,0 mm 0,6 km/h (0 Bft) O-NO 72 0 min 0,000 mm 1,7 UV-I 192 W/m 15,5 C 1,6 km/h (1 Bft)
19.08.2016 17:03 20,4 C 20,4 C 75 % 1011,1 hPa 0,0 mm 0,0 km/h (0 Bft) O-NO 72 0 min 0,000 mm 1,7 UV-I 193 W/m 15,8 C 0,0 km/h (0 Bft)
19.08.2016 17:04 20,4 C 20,4 C 76 % 1011,1 hPa 0,0 mm 0,8 km/h (0 Bft) O-NO 72 0 min 0,000 mm 1,7 UV-I 195 W/m 16,0 C 3,2 km/h (1 Bft)
19.08.2016 17:05 20,4 C 20,4 C 75 % 1011,0 hPa 0,0 mm 1,1 km/h (1 Bft) O-NO 72 0 min 0,000 mm 1,7 UV-I 195 W/m 15,8 C 1,6 km/h (1 Bft)
19.08.2016 17:06 20,4 C 20,4 C 76 % 1011,0 hPa 0,0 mm 0,3 km/h (0 Bft) O-NO 72 0 min 0,000 mm 1,7 UV-I 197 W/m 16,0 C 1,6 km/h (1 Bft)
19.08.2016 17:07 20,4 C 20,4 C 76 % 1011,1 hPa 0,0 mm 0,2 km/h (0 Bft) O-NO 72 0 min 0,000 mm 1,7 UV-I 199 W/m 16,0 C 1,6 km/h (1 Bft)
19.08.2016 17:08 20,4 C 20,4 C 81 % 1011,0 hPa 0,0 mm 1,0 km/h (0 Bft) O-NO 72 0 min 0,000 mm 1,7 UV-I 199 W/m 17,0 C 3,2 km/h (1 Bft)
19.08.2016 17:09 20,4 C 20,4 C 76 % 1011,0 hPa 0,0 mm 1,3 km/h (1 Bft) O-NO 72 0 min 0,000 mm 1,7 UV-I 206 W/m 16,0 C 3,2 km/h (1 Bft)
19.08.2016 17:10 20,4 C 20,4 C 77 % 1011,1 hPa 0,0 mm 2,5 km/h (1 Bft) O-NO 72 0 min 0,000 mm 1,7 UV-I 209 W/m 16,2 C 3,2 km/h (1 Bft)
19.08.2016 17:11 20,4 C 20,4 C 72 % 1011,0 hPa 0,0 mm 0,7 km/h (0 Bft) O-NO 72 0 min 0,000 mm 1,8 UV-I 214 W/m 15,2 C 1,6 km/h (1 Bft)
19.08.2016 17:12 20,4 C 20,4 C 73 % 1011,0 hPa 0,0 mm 1,0 km/h (0 Bft) O-NO 72 0 min 0,000 mm 1,8 UV-I 218 W/m 15,4 C 3,2 km/h (1 Bft)
19.08.2016 17:13 20,6 C 20,6 C 75 % 1011,0 hPa 0,0 mm 1,1 km/h (1 Bft) O-NO 72 0 min 0,000 mm 1,8 UV-I 223 W/m 16,0 C 3,2 km/h (1 Bft)
19.08.2016 17:14 20,6 C 20,6 C 75 % 1011,0 hPa 0,0 mm 0,6 km/h (0 Bft) O-NO 72 0 min 0,000 mm 1,8 UV-I 227 W/m 16,0 C 1,6 km/h (1 Bft)
19.08.2016 17:15 20,7 C 20,7 C 75 % 1011,0 hPa 0,0 mm 0,8 km/h (0 Bft) O-NO 72 0 min 0,000 mm 1,8 UV-I 229 W/m 16,1 C 1,6 km/h (1 Bft)
19.08.2016 17:16 20,7 C 20,7 C 75 % 1011,0 hPa 0,0 mm 0,6 km/h (0 Bft) O-NO 72 0 min 0,000 mm 1,8 UV-I 230 W/m 16,1 C 1,6 km/h (1 Bft)
19.08.2016 17:17 20,8 C 20,8 C 71 % 1011,0 hPa 0,0 mm 1,0 km/h (0 Bft) O-NO 72 0 min 0,000 mm 1,8 UV-I 229 W/m 15,3 C 1,6 km/h (1 Bft)
19.08.2016 17:18 20,9 C 20,9 C 69 % 1011,0 hPa 0,0 mm 2,7 km/h (1 Bft) NO 37 0 min 0,000 mm 1,8 UV-I 227 W/m 15,0 C 4,8 km/h (1 Bft)
19.08.2016 17:19 21,0 C 21,0 C 76 % 1011,0 hPa 0,0 mm 3,1 km/h (1 Bft) NO 37 0 min 0,000 mm 1,8 UV-I 227 W/m 16,6 C 4,8 km/h (1 Bft)
19.08.2016 17:20 20,9 C 21,0 C 72 % 1011,0 hPa 0,0 mm 1,6 km/h (1 Bft) NO 37 0 min 0,000 mm 1,8 UV-I 218 W/m 15,7 C 3,2 km/h (1 Bft)
19.08.2016 17:21 20,9 C 20,9 C 71 % 1011,0 hPa 0,0 mm 0,5 km/h (0 Bft) NO 37 0 min 0,000 mm 1,8 UV-I 213 W/m 15,4 C 1,6 km/h (1 Bft)
19.08.2016 17:22 21,0 C 21,0 C 72 % 1011,0 hPa 0,0 mm 2,1 km/h (1 Bft) NO 46 0 min 0,000 mm 1,8 UV-I 207 W/m 15,8 C 3,2 km/h (1 Bft)
19.08.2016 17:23 21,0 C 21,0 C 71 % 1011,0 hPa 0,0 mm 3,2 km/h (1 Bft) S-SO 159 0 min 0,000 mm 1,7 UV-I 202 W/m 15,5 C 6,4 km/h (2 Bft)
19.08.2016 17:24 21,0 C 21,0 C 73 % 1011,0 hPa 0,0 mm 2,0 km/h (1 Bft) SO 144 0 min 0,000 mm 1,7 UV-I 195 W/m 16,0 C 3,2 km/h (1 Bft)
19.08.2016 17:25 21,0 C 21,0 C 71 % 1011,0 hPa 0,0 mm 1,0 km/h (0 Bft) SO 144 0 min 0,000 mm 1,7 UV-I 185 W/m 15,5 C 1,6 km/h (1 Bft)
19.08.2016 17:26 21,0 C 21,0 C 72 % 1010,9 hPa 0,0 mm 1,2 km/h (1 Bft) O-NO 71 0 min 0,000 mm 1,6 UV-I 169 W/m 15,8 C 3,2 km/h (1 Bft)
19.08.2016 17:27 21,0 C 21,0 C 72 % 1010,9 hPa 0,0 mm 4,6 km/h (1 Bft) O 79 0 min 0,000 mm 1,6 UV-I 158 W/m 15,8 C 6,4 km/h (2 Bft)
19.08.2016 17:28 21,0 C 21,0 C 74 % 1010,9 hPa 0,0 mm 4,5 km/h (1 Bft) O 89 0 min 0,000 mm 1,5 UV-I 151 W/m 16,2 C 6,4 km/h (2 Bft)
19.08.2016 17:29 20,9 C 21,0 C 70 % 1010,9 hPa 0,0 mm 3,4 km/h (1 Bft) NO 37 0 min 0,000 mm 1,5 UV-I 144 W/m 15,2 C 4,8 km/h (1 Bft)
19.08.2016 17:30 21,0 C 21,0 C 72 % 1010,9 hPa 0,0 mm 5,0 km/h (1 Bft) O-NO 57 0 min 0,000 mm 1,4 UV-I 141 W/m 15,8 C 9,7 km/h (2 Bft)
19.08.2016 17:31 21,1 C 21,1 C 77 % 1010,9 hPa 0,0 mm 5,5 km/h (1 Bft) O-NO 65 0 min 0,000 mm 1,4 UV-I 139 W/m 16,9 C 6,4 km/h (2 Bft)
19.08.2016 17:32 20,9 C 21,1 C 74 % 1010,9 hPa 0,0 mm 3,6 km/h (1 Bft) O 82 0 min 0,000 mm 1,4 UV-I 132 W/m 16,1 C 6,4 km/h (2 Bft)
19.08.2016 17:33 20,9 C 20,9 C 76 % 1011,0 hPa 0,0 mm 4,1 km/h (1 Bft) O-NO 64 0 min 0,000 mm 1,4 UV-I 130 W/m 16,5 C 6,4 km/h (2 Bft)
19.08.2016 17:34 20,8 C 20,9 C 77 % 1010,9 hPa 0,0 mm 4,8 km/h (1 Bft) O-NO 67 0 min 0,000 mm 1,4 UV-I 130 W/m 16,6 C 6,4 km/h (2 Bft)
19.08.2016 17:35 20,8 C 20,8 C 78 % 1010,9 hPa 0,0 mm 1,0 km/h (0 Bft) O-NO 67 0 min 0,000 mm 1,4 UV-I 132 W/m 16,8 C 3,2 km/h (1 Bft)
19.08.2016 17:36 20,8 C 20,8 C 71 % 1010,9 hPa 0,0 mm 2,3 km/h (1 Bft) O-NO 66 0 min 0,000 mm 1,4 UV-I 130 W/m 15,3 C 3,2 km/h (1 Bft)
19.08.2016 17:37 20,9 C 20,9 C 75 % 1010,9 hPa 0,0 mm 2,2 km/h (1 Bft) O-NO 77 0 min 0,000 mm 1,4 UV-I 130 W/m 16,3 C 3,2 km/h (1 Bft)
19.08.2016 17:38 20,9 C 20,9 C 73 % 1010,9 hPa 0,0 mm 0,5 km/h (0 Bft) O-NO 77 0 min 0,000 mm 1,4 UV-I 125 W/m 15,9 C 1,6 km/h (1 Bft)
19.08.2016 17:39 20,9 C 20,9 C 73 % 1010,9 hPa 0,0 mm 3,2 km/h (1 Bft) NO 44 0 min 0,000 mm 1,3 UV-I 118 W/m 15,9 C 4,8 km/h (1 Bft)
19.08.2016 17:40 20,9 C 20,9 C 76 % 1010,9 hPa 0,0 mm 4,1 km/h (1 Bft) O 82 0 min 0,000 mm 1,3 UV-I 114 W/m 16,5 C 6,4 km/h (2 Bft)
19.08.2016 17:41 20,9 C 20,9 C 75 % 1010,9 hPa 0,0 mm 2,9 km/h (1 Bft) O 88 0 min 0,000 mm 1,3 UV-I 114 W/m 16,3 C 4,8 km/h (1 Bft)
19.08.2016 17:42 20,9 C 20,9 C 74 % 1010,9 hPa 0,0 mm 1,7 km/h (1 Bft) O 88 0 min 0,000 mm 1,3 UV-I 114 W/m 16,1 C 3,2 km/h (1 Bft)
19.08.2016 17:43 20,9 C 20,9 C 75 % 1010,9 hPa 0,0 mm 1,2 km/h (1 Bft) O 88 0 min 0,000 mm 1,3 UV-I 113 W/m 16,3 C 1,6 km/h (1 Bft)
19.08.2016 17:44 20,9 C 20,9 C 71 % 1010,9 hPa 0,0 mm 0,6 km/h (0 Bft) O 88 0 min 0,000 mm 1,3 UV-I 105 W/m 15,4 C 1,6 km/h (1 Bft)
19.08.2016 17:45 20,9 C 20,9 C 72 % 1010,9 hPa 0,0 mm 2,2 km/h (1 Bft) O-NO 71 0 min 0,000 mm 1,3 UV-I 102 W/m 15,7 C 4,8 km/h (1 Bft)
19.08.2016 17:46 20,9 C 21,0 C 75 % 1011,0 hPa 0,0 mm 2,4 km/h (1 Bft) O-NO 71 0 min 0,000 mm 1,3 UV-I 98 W/m 16,3 C 3,2 km/h (1 Bft)
19.08.2016 17:47 21,0 C 21,0 C 72 % 1010,9 hPa 0,0 mm 1,6 km/h (1 Bft) O-NO 71 0 min 0,000 mm 1,2 UV-I 97 W/m 15,8 C 3,2 km/h (1 Bft)
19.08.2016 17:48 21,0 C 21,0 C 74 % 1011,0 hPa 0,0 mm 4,0 km/h (1 Bft) O 96 0 min 0,000 mm 1,2 UV-I 97 W/m 16,2 C 6,4 km/h (2 Bft)
19.08.2016 17:49 20,8 C 21,0 C 75 % 1011,0 hPa 0,0 mm 4,4 km/h (1 Bft) O-SO 123 0 min 0,000 mm 1,2 UV-I 93 W/m 16,2 C 6,4 km/h (2 Bft)
19.08.2016 17:50 20,8 C 20,8 C 71 % 1011,0 hPa 0,0 mm 0,8 km/h (0 Bft) O-SO 123 0 min 0,000 mm 1,2 UV-I 81 W/m 15,3 C 3,2 km/h (1 Bft)
19.08.2016 17:51 20,8 C 20,8 C 71 % 1011,0 hPa 0,0 mm 0,2 km/h (0 Bft) O-SO 123 0 min 0,000 mm 1,1 UV-I 79 W/m 15,3 C 1,6 km/h (1 Bft)
19.08.2016 17:52 20,7 C 20,8 C 75 % 1011,0 hPa 0,0 mm 2,0 km/h (1 Bft) O-SO 123 0 min 0,000 mm 1,1 UV-I 76 W/m 16,1 C 3,2 km/h (1 Bft)
19.08.2016 17:53 20,6 C 20,7 C 73 % 1011,0 hPa 0,0 mm 1,5 km/h (1 Bft) O-SO 123 0 min 0,000 mm 1,1 UV-I 77 W/m 15,6 C 3,2 km/h (1 Bft)
19.08.2016 17:54 20,6 C 20,7 C 77 % 1010,9 hPa 0,0 mm 3,7 km/h (1 Bft) O-SO 115 0 min 0,000 mm 1,1 UV-I 81 W/m 16,4 C 6,4 km/h (2 Bft)
19.08.2016 17:55 20,5 C 20,6 C 75 % 1011,0 hPa 0,0 mm 3,1 km/h (1 Bft) O-SO 115 0 min 0,000 mm 1,1 UV-I 83 W/m 15,9 C 4,8 km/h (1 Bft)
19.08.2016 17:56 20,4 C 20,5 C 74 % 1011,0 hPa 0,0 mm 0,8 km/h (0 Bft) O-SO 115 0 min 0,000 mm 1,0 UV-I 84 W/m 15,6 C 3,2 km/h (1 Bft)
19.08.2016 17:57 20,4 C 20,4 C 74 % 1011,0 hPa 0,0 mm 1,3 km/h (1 Bft) O-SO 115 0 min 0,000 mm 1,0 UV-I 84 W/m 15,6 C 3,2 km/h (1 Bft)
19.08.2016 17:58 20,4 C 20,4 C 74 % 1011,0 hPa 0,0 mm 3,0 km/h (1 Bft) O-SO 111 0 min 0,000 mm 1,0 UV-I 86 W/m 15,6 C 4,8 km/h (1 Bft)
19.08.2016 17:59 20,4 C 20,4 C 73 % 1011,0 hPa 0,0 mm 2,6 km/h (1 Bft) O 101 0 min 0,000 mm 1,0 UV-I 93 W/m 15,4 C 4,8 km/h (1 Bft)
19.08.2016 18:00 20,4 C 20,4 C 74 % 1011,1 hPa 0,0 mm 2,2 km/h (1 Bft) O 101 0 min 0,000 mm 1,0 UV-I 97 W/m 15,6 C 3,2 km/h (1 Bft)
19.08.2016 18:01 20,4 C 20,4 C 75 % 1011,1 hPa 0,0 mm 0,9 km/h (0 Bft) O 101 0 min 0,102 mm 1,0 UV-I 83 W/m 15,8 C 3,2 km/h (1 Bft)
19.08.2016 18:02 20,4 C 20,4 C 77 % 1011,1 hPa 0,0 mm 2,0 km/h (1 Bft) O 101 0 min 0,000 mm 1,0 UV-I 81 W/m 16,2 C 3,2 km/h (1 Bft)
19.08.2016 18:03 20,4 C 20,4 C 73 % 1011,1 hPa 0,0 mm 1,7 km/h (1 Bft) O 101 0 min 0,000 mm 1,0 UV-I 83 W/m 15,4 C 4,8 km/h (1 Bft)
19.08.2016 18:04 20,4 C 20,4 C 72 % 1011,1 hPa 0,0 mm 2,0 km/h (1 Bft) O 101 0 min 0,000 mm 1,0 UV-I 91 W/m 15,2 C 4,8 km/h (1 Bft)
19.08.2016 18:05 20,4 C 20,4 C 74 % 1011,0 hPa 0,0 mm 3,2 km/h (1 Bft) O-NO 78 0 min 0,000 mm 1,0 UV-I 95 W/m 15,6 C 4,8 km/h (1 Bft)
19.08.2016 18:06 20,4 C 20,4 C 74 % 1011,0 hPa 0,0 mm 4,5 km/h (1 Bft) O-SO 115 0 min 0,000 mm 1,0 UV-I 97 W/m 15,6 C 6,4 km/h (2 Bft)
19.08.2016 18:07 20,4 C 20,4 C 73 % 1011,0 hPa 0,0 mm 2,5 km/h (1 Bft) O-SO 115 0 min 0,000 mm 1,0 UV-I 97 W/m 15,4 C 4,8 km/h (1 Bft)
19.08.2016 18:08 20,4 C 20,4 C 72 % 1010,9 hPa 0,0 mm 2,9 km/h (1 Bft) O-SO 115 0 min 0,000 mm 1,0 UV-I 100 W/m 15,2 C 4,8 km/h (1 Bft)
19.08.2016 18:09 20,5 C 20,5 C 72 % 1010,9 hPa 0,0 mm 2,1 km/h (1 Bft) O-SO 115 0 min 0,000 mm 1,0 UV-I 107 W/m 15,3 C 3,2 km/h (1 Bft)
19.08.2016 18:10 20,4 C 20,5 C 75 % 1011,0 hPa 0,0 mm 1,8 km/h (1 Bft) O-SO 115 0 min 0,000 mm 1,1 UV-I 116 W/m 15,8 C 3,2 km/h (1 Bft)
19.08.2016 18:11 20,4 C 20,5 C 74 % 1011,0 hPa 0,0 mm 0,5 km/h (0 Bft) O-SO 115 0 min 0,000 mm 1,1 UV-I 123 W/m 15,6 C 1,6 km/h (1 Bft)
19.08.2016 18:12 20,4 C 20,4 C 76 % 1010,9 hPa 0,0 mm 0,0 km/h (0 Bft) O-SO 115 0 min 0,000 mm 1,1 UV-I 127 W/m 16,0 C 0,0 km/h (0 Bft)
19.08.2016 18:13 20,4 C 20,4 C 75 % 1010,9 hPa 0,0 mm 0,4 km/h (0 Bft) O-SO 115 0 min 0,000 mm 1,1 UV-I 132 W/m 15,8 C 1,6 km/h (1 Bft)
19.08.2016 18:14 20,5 C 20,5 C 73 % 1010,9 hPa 0,0 mm 0,4 km/h (0 Bft) O 101 0 min 0,000 mm 1,2 UV-I 135 W/m 15,5 C 3,2 km/h (1 Bft)
19.08.2016 18:15 20,5 C 20,5 C 75 % 1010,9 hPa 0,0 mm 2,1 km/h (1 Bft) O 80 0 min 0,000 mm 1,2 UV-I 139 W/m 15,9 C 3,2 km/h (1 Bft)
19.08.2016 18:16 20,6 C 20,6 C 75 % 1010,9 hPa 0,0 mm 1,1 km/h (1 Bft) O 80 0 min 0,000 mm 1,2 UV-I 148 W/m 16,0 C 3,2 km/h (1 Bft)
19.08.2016 18:17 20,6 C 20,6 C 77 % 1010,9 hPa 0,0 mm 3,0 km/h (1 Bft) O 86 0 min 0,000 mm 1,2 UV-I 153 W/m 16,4 C 4,8 km/h (1 Bft)
19.08.2016 18:18 20,6 C 20,6 C 73 % 1010,9 hPa 0,0 mm 1,9 km/h (1 Bft) O-NO 59 0 min 0,000 mm 1,2 UV-I 151 W/m 15,6 C 3,2 km/h (1 Bft)
19.08.2016 18:19 20,7 C 20,7 C 72 % 1010,9 hPa 0,0 mm 3,0 km/h (1 Bft) NO 44 0 min 0,000 mm 1,2 UV-I 142 W/m 15,5 C 4,8 km/h (1 Bft)
19.08.2016 18:20 20,8 C 20,8 C 72 % 1010,9 hPa 0,0 mm 4,4 km/h (1 Bft) NO 51 0 min 0,000 mm 1,1 UV-I 139 W/m 15,6 C 6,4 km/h (2 Bft)
19.08.2016 18:21 20,8 C 20,8 C 73 % 1010,9 hPa 0,0 mm 2,0 km/h (1 Bft) NO 55 0 min 0,000 mm 1,1 UV-I 135 W/m 15,8 C 3,2 km/h (1 Bft)
19.08.2016 18:22 20,8 C 20,8 C 73 % 1011,0 hPa 0,0 mm 1,7 km/h (1 Bft) NO 55 0 min 0,000 mm 1,1 UV-I 134 W/m 15,8 C 4,8 km/h (1 Bft)
19.08.2016 18:23 20,9 C 20,9 C 73 % 1010,9 hPa 0,0 mm 6,3 km/h (2 Bft) NO 56 0 min 0,000 mm 1,1 UV-I 132 W/m 15,9 C 8,0 km/h (2 Bft)
19.08.2016 18:24 21,0 C 21,0 C 73 % 1010,9 hPa 0,0 mm 4,0 km/h (1 Bft) O-NO 65 0 min 0,000 mm 1,0 UV-I 127 W/m 16,0 C 6,4 km/h (2 Bft)
19.08.2016 18:25 20,9 C 21,0 C 74 % 1010,9 hPa 0,0 mm 1,9 km/h (1 Bft) O-NO 65 0 min 0,000 mm 1,0 UV-I 116 W/m 16,1 C 3,2 km/h (1 Bft)
19.08.2016 18:26 20,9 C 20,9 C 72 % 1010,9 hPa 0,0 mm 4,0 km/h (1 Bft) N-NO 22 0 min 0,000 mm 1,0 UV-I 113 W/m 15,7 C 6,4 km/h (2 Bft)
19.08.2016 18:27 21,0 C 21,0 C 72 % 1010,9 hPa 0,0 mm 4,0 km/h (1 Bft) O-NO 76 0 min 0,000 mm 1,0 UV-I 113 W/m 15,8 C 4,8 km/h (1 Bft)
19.08.2016 18:28 20,9 C 21,0 C 75 % 1010,9 hPa 0,0 mm 2,7 km/h (1 Bft) O-SO 110 0 min 0,000 mm 0,9 UV-I 114 W/m 16,3 C 4,8 km/h (1 Bft)
19.08.2016 18:29 20,9 C 20,9 C 73 % 1010,9 hPa 0,0 mm 0,8 km/h (0 Bft) O-SO 123 0 min 0,000 mm 0,9 UV-I 118 W/m 15,9 C 4,8 km/h (1 Bft)
19.08.2016 18:30 20,8 C 20,9 C 71 % 1010,9 hPa 0,0 mm 2,0 km/h (1 Bft) O-SO 122 0 min 0,000 mm 1,0 UV-I 120 W/m 15,3 C 3,2 km/h (1 Bft)
19.08.2016 18:31 20,8 C 20,8 C 70 % 1010,9 hPa 0,0 mm 1,7 km/h (1 Bft) O-SO 106 0 min 0,000 mm 1,0 UV-I 127 W/m 15,1 C 3,2 km/h (1 Bft)
19.08.2016 18:32 20,8 C 20,8 C 70 % 1010,9 hPa 0,0 mm 1,8 km/h (1 Bft) O-SO 106 0 min 0,000 mm 1,0 UV-I 127 W/m 15,1 C 3,2 km/h (1 Bft)
19.08.2016 18:33 20,8 C 20,8 C 70 % 1010,9 hPa 0,0 mm 0,9 km/h (0 Bft) O-SO 106 0 min 0,000 mm 1,0 UV-I 125 W/m 15,1 C 1,6 km/h (1 Bft)
19.08.2016 18:34 20,8 C 20,8 C 74 % 1011,0 hPa 0,0 mm 1,7 km/h (1 Bft) O-SO 106 0 min 0,000 mm 0,9 UV-I 123 W/m 16,0 C 3,2 km/h (1 Bft)
19.08.2016 18:35 20,7 C 20,8 C 73 % 1010,9 hPa 0,0 mm 0,7 km/h (0 Bft) O-SO 106 0 min 0,000 mm 0,9 UV-I 121 W/m 15,7 C 1,6 km/h (1 Bft)
19.08.2016 18:36 20,7 C 20,7 C 73 % 1011,0 hPa 0,0 mm 0,6 km/h (0 Bft) O-SO 106 0 min 0,000 mm 0,9 UV-I 120 W/m 15,7 C 1,6 km/h (1 Bft)
19.08.2016 18:37 20,7 C 20,7 C 74 % 1010,9 hPa 0,0 mm 1,7 km/h (1 Bft) O-SO 105 0 min 0,000 mm 0,9 UV-I 118 W/m 15,9 C 3,2 km/h (1 Bft)
19.08.2016 18:38 20,5 C 20,7 C 76 % 1011,0 hPa 0,0 mm 2,1 km/h (1 Bft) O-SO 105 0 min 0,000 mm 0,9 UV-I 114 W/m 16,1 C 3,2 km/h (1 Bft)
19.08.2016 18:39 20,4 C 20,5 C 75 % 1011,0 hPa 0,0 mm 1,7 km/h (1 Bft) O 86 0 min 0,000 mm 0,8 UV-I 109 W/m 15,8 C 3,2 km/h (1 Bft)
19.08.2016 18:40 20,3 C 20,4 C 78 % 1011,0 hPa 0,0 mm 1,4 km/h (1 Bft) O 86 0 min 0,000 mm 0,8 UV-I 105 W/m 16,3 C 3,2 km/h (1 Bft)
19.08.2016 18:41 20,3 C 20,4 C 79 % 1011,0 hPa 0,0 mm 0,9 km/h (0 Bft) O 86 0 min 0,000 mm 0,8 UV-I 104 W/m 16,5 C 1,6 km/h (1 Bft)
19.08.2016 18:42 20,3 C 20,3 C 79 % 1011,0 hPa 0,0 mm 1,0 km/h (0 Bft) O 86 0 min 0,000 mm 0,8 UV-I 102 W/m 16,5 C 1,6 km/h (1 Bft)
19.08.2016 18:43 20,3 C 20,3 C 75 % 1011,0 hPa 0,0 mm 1,1 km/h (1 Bft) O 86 0 min 0,000 mm 0,8 UV-I 97 W/m 15,7 C 1,6 km/h (1 Bft)
19.08.2016 18:44 20,3 C 20,3 C 75 % 1011,1 hPa 0,0 mm 1,0 km/h (0 Bft) O 86 0 min 0,000 mm 0,7 UV-I 95 W/m 15,7 C 1,6 km/h (1 Bft)
19.08.2016 18:45 20,3 C 20,3 C 74 % 1011,0 hPa 0,0 mm 0,6 km/h (0 Bft) O 86 0 min 0,000 mm 0,7 UV-I 91 W/m 15,5 C 1,6 km/h (1 Bft)
19.08.2016 18:46 20,3 C 20,4 C 74 % 1011,0 hPa 0,0 mm 0,3 km/h (0 Bft) O 86 0 min 0,000 mm 0,7 UV-I 88 W/m 15,5 C 1,6 km/h (1 Bft)
19.08.2016 18:47 20,4 C 20,4 C 74 % 1011,0 hPa 0,0 mm 1,2 km/h (1 Bft) O 86 0 min 0,000 mm 0,7 UV-I 84 W/m 15,6 C 1,6 km/h (1 Bft)
19.08.2016 18:48 20,3 C 20,4 C 76 % 1011,0 hPa 0,0 mm 0,5 km/h (0 Bft) O 86 0 min 0,000 mm 0,7 UV-I 77 W/m 15,9 C 1,6 km/h (1 Bft)
19.08.2016 18:49 20,3 C 20,3 C 76 % 1011,0 hPa 0,0 mm 0,3 km/h (0 Bft) O 86 0 min 0,000 mm 0,6 UV-I 74 W/m 15,9 C 1,6 km/h (1 Bft)
19.08.2016 18:50 20,1 C 20,3 C 78 % 1011,0 hPa 0,0 mm 0,6 km/h (0 Bft) O 86 0 min 0,000 mm 0,6 UV-I 69 W/m 16,1 C 1,6 km/h (1 Bft)
19.08.2016 18:51 20,1 C 20,1 C 75 % 1011,0 hPa 0,0 mm 0,5 km/h (0 Bft) O 86 0 min 0,000 mm 0,6 UV-I 65 W/m 15,5 C 1,6 km/h (1 Bft)
19.08.2016 18:52 20,0 C 20,1 C 76 % 1011,1 hPa 0,0 mm 1,1 km/h (1 Bft) O 86 0 min 0,000 mm 0,6 UV-I 63 W/m 15,6 C 1,6 km/h (1 Bft)
19.08.2016 18:53 19,9 C 20,0 C 76 % 1011,1 hPa 0,0 mm 0,3 km/h (0 Bft) O 86 0 min 0,000 mm 0,6 UV-I 60 W/m 15,5 C 1,6 km/h (1 Bft)
19.08.2016 18:54 19,8 C 19,9 C 79 % 1011,1 hPa 0,0 mm 1,9 km/h (1 Bft) O 86 0 min 0,000 mm 0,5 UV-I 58 W/m 16,0 C 3,2 km/h (1 Bft)
19.08.2016 18:55 19,8 C 19,8 C 78 % 1011,0 hPa 0,0 mm 1,6 km/h (1 Bft) O 86 0 min 0,000 mm 0,5 UV-I 56 W/m 15,8 C 3,2 km/h (1 Bft)
19.08.2016 18:56 19,7 C 19,8 C 77 % 1011,0 hPa 0,0 mm 1,3 km/h (1 Bft) O 86 0 min 0,000 mm 0,5 UV-I 56 W/m 15,5 C 3,2 km/h (1 Bft)
19.08.2016 18:57 19,7 C 19,7 C 77 % 1011,0 hPa 0,0 mm 1,2 km/h (1 Bft) O 86 0 min 0,000 mm 0,5 UV-I 56 W/m 15,5 C 3,2 km/h (1 Bft)
19.08.2016 18:58 19,7 C 19,7 C 76 % 1011,1 hPa 0,0 mm 1,7 km/h (1 Bft) O 86 0 min 0,000 mm 0,5 UV-I 56 W/m 15,3 C 3,2 km/h (1 Bft)
19.08.2016 18:59 19,7 C 19,7 C 76 % 1011,0 hPa 0,0 mm 1,3 km/h (1 Bft) O 91 0 min 0,000 mm 0,5 UV-I 56 W/m 15,3 C 1,6 km/h (1 Bft)
19.08.2016 19:00 19,7 C 19,7 C 76 % 1011,1 hPa 0,0 mm 1,5 km/h (1 Bft) O 91 0 min 0,000 mm 0,5 UV-I 58 W/m 15,3 C 3,2 km/h (1 Bft)
19.08.2016 19:01 19,7 C 19,8 C 76 % 1011,1 hPa 0,0 mm 0,1 km/h (0 Bft) O 91 0 min 0,076 mm 0,5 UV-I 58 W/m 15,3 C 1,6 km/h (1 Bft)
19.08.2016 19:02 19,7 C 19,8 C 77 % 1011,1 hPa 0,0 mm 2,0 km/h (1 Bft) O 91 0 min 0,000 mm 0,5 UV-I 58 W/m 15,5 C 3,2 km/h (1 Bft)
19.08.2016 19:03 19,6 C 19,7 C 80 % 1011,1 hPa 0,0 mm 2,5 km/h (1 Bft) O 91 0 min 0,000 mm 0,5 UV-I 56 W/m 16,1 C 3,2 km/h (1 Bft)
19.08.2016 19:04 19,6 C 19,6 C 77 % 1011,1 hPa 0,0 mm 0,7 km/h (0 Bft) O 91 0 min 0,000 mm 0,5 UV-I 56 W/m 15,5 C 1,6 km/h (1 Bft)
19.08.2016 19:05 19,6 C 19,6 C 77 % 1011,1 hPa 0,0 mm 1,0 km/h (0 Bft) O 91 0 min 0,000 mm 0,0 UV-I 54 W/m 15,5 C 1,6 km/h (1 Bft)
19.08.2016 19:06 19,6 C 19,7 C 78 % 1011,1 hPa 0,0 mm 1,5 km/h (1 Bft) O 91 0 min 0,000 mm 0,0 UV-I 53 W/m 15,7 C 3,2 km/h (1 Bft)
19.08.2016 19:07 19,6 C 19,7 C 77 % 1011,1 hPa 0,0 mm 0,9 km/h (0 Bft) O 91 0 min 0,000 mm 0,0 UV-I 51 W/m 15,5 C 3,2 km/h (1 Bft)
19.08.2016 19:08 19,6 C 19,7 C 78 % 1011,1 hPa 0,0 mm 0,5 km/h (0 Bft) O 91 0 min 0,000 mm 0,0 UV-I 49 W/m 15,7 C 1,6 km/h (1 Bft)
19.08.2016 19:09 19,6 C 19,6 C 77 % 1011,2 hPa 0,0 mm 1,2 km/h (1 Bft) O 91 0 min 0,000 mm 0,0 UV-I 49 W/m 15,5 C 1,6 km/h (1 Bft)
19.08.2016 19:10 19,6 C 19,6 C 78 % 1011,1 hPa 0,0 mm 1,6 km/h (1 Bft) O 91 0 min 0,000 mm 0,0 UV-I 47 W/m 15,7 C 3,2 km/h (1 Bft)
19.08.2016 19:11 19,6 C 19,6 C 78 % 1011,1 hPa 0,0 mm 1,5 km/h (1 Bft) O 91 0 min 0,000 mm 0,0 UV-I 47 W/m 15,7 C 3,2 km/h (1 Bft)
19.08.2016 19:12 19,5 C 19,6 C 79 % 1011,1 hPa 0,0 mm 2,1 km/h (1 Bft) O 91 0 min 0,000 mm 0,0 UV-I 44 W/m 15,8 C 3,2 km/h (1 Bft)
19.08.2016 19:13 19,5 C 19,5 C 79 % 1011,1 hPa 0,0 mm 1,8 km/h (1 Bft) O 91 0 min 0,000 mm 0,0 UV-I 42 W/m 15,8 C 3,2 km/h (1 Bft)
19.08.2016 19:14 19,4 C 19,5 C 80 % 1011,1 hPa 0,0 mm 1,8 km/h (1 Bft) O 91 0 min 0,000 mm 0,0 UV-I 40 W/m 15,9 C 3,2 km/h (1 Bft)
19.08.2016 19:15 19,3 C 19,4 C 80 % 1011,1 hPa 0,0 mm 1,9 km/h (1 Bft) O 91 0 min 0,000 mm 0,0 UV-I 40 W/m 15,8 C 3,2 km/h (1 Bft)
19.08.2016 19:16 19,3 C 19,3 C 80 % 1011,1 hPa 0,0 mm 1,4 km/h (1 Bft) O 91 0 min 0,000 mm 0,0 UV-I 39 W/m 15,8 C 3,2 km/h (1 Bft)
19.08.2016 19:17 19,3 C 19,3 C 81 % 1011,1 hPa 0,0 mm 1,7 km/h (1 Bft) O 91 0 min 0,000 mm 0,0 UV-I 37 W/m 16,0 C 3,2 km/h (1 Bft)
19.08.2016 19:18 19,2 C 19,3 C 81 % 1011,1 hPa 0,0 mm 1,8 km/h (1 Bft) O 91 0 min 0,000 mm 0,0 UV-I 35 W/m 15,9 C 3,2 km/h (1 Bft)
19.08.2016 19:19 19,2 C 19,2 C 81 % 1011,1 hPa 0,0 mm 2,1 km/h (1 Bft) O 91 0 min 0,000 mm 0,0 UV-I 35 W/m 15,9 C 3,2 km/h (1 Bft)
19.08.2016 19:20 19,2 C 19,2 C 81 % 1011,2 hPa 0,0 mm 1,4 km/h (1 Bft) O 91 0 min 0,000 mm 0,0 UV-I 35 W/m 15,9 C 3,2 km/h (1 Bft)
19.08.2016 19:21 19,1 C 19,2 C 81 % 1011,2 hPa 0,0 mm 1,5 km/h (1 Bft) O 91 0 min 0,000 mm 0,0 UV-I 35 W/m 15,8 C 3,2 km/h (1 Bft)
19.08.2016 19:22 19,1 C 19,1 C 81 % 1011,2 hPa 0,0 mm 1,7 km/h (1 Bft) O 91 0 min 0,000 mm 0,0 UV-I 35 W/m 15,8 C 3,2 km/h (1 Bft)
19.08.2016 19:23 19,1 C 19,1 C 81 % 1011,2 hPa 0,0 mm 1,9 km/h (1 Bft) O 91 0 min 0,000 mm 0,0 UV-I 39 W/m 15,8 C 3,2 km/h (1 Bft)
19.08.2016 19:24 19,0 C 19,1 C 82 % 1011,2 hPa 0,0 mm 1,7 km/h (1 Bft) O 91 0 min 0,000 mm 0,0 UV-I 39 W/m 15,9 C 3,2 km/h (1 Bft)
19.08.2016 19:25 18,9 C 19,0 C 82 % 1011,2 hPa 0,0 mm 1,9 km/h (1 Bft) O 91 0 min 0,000 mm 0,0 UV-I 39 W/m 15,8 C 3,2 km/h (1 Bft)
19.08.2016 19:26 18,9 C 19,0 C 82 % 1011,2 hPa 0,0 mm 2,2 km/h (1 Bft) O 91 0 min 0,000 mm 0,0 UV-I 39 W/m 15,8 C 3,2 km/h (1 Bft)
19.08.2016 19:27 18,9 C 18,9 C 82 % 1011,2 hPa 0,0 mm 1,9 km/h (1 Bft) O 91 0 min 0,000 mm 0,0 UV-I 39 W/m 15,8 C 3,2 km/h (1 Bft)
19.08.2016 19:28 18,9 C 18,9 C 82 % 1011,2 hPa 0,0 mm 1,1 km/h (1 Bft) O 91 0 min 0,000 mm 0,0 UV-I 44 W/m 15,8 C 1,6 km/h (1 Bft)
19.08.2016 19:29 18,9 C 18,9 C 82 % 1011,2 hPa 0,0 mm 0,8 km/h (0 Bft) O 91 0 min 0,000 mm 0,0 UV-I 47 W/m 15,8 C 1,6 km/h (1 Bft)
19.08.2016 19:30 18,9 C 18,9 C 82 % 1011,2 hPa 0,0 mm 0,8 km/h (0 Bft) O 91 0 min 0,000 mm 0,0 UV-I 49 W/m 15,8 C 1,6 km/h (1 Bft)
19.08.2016 19:31 18,9 C 18,9 C 82 % 1011,3 hPa 0,0 mm 0,5 km/h (0 Bft) O 91 0 min 0,000 mm 0,0 UV-I 51 W/m 15,8 C 1,6 km/h (1 Bft)
19.08.2016 19:32 18,9 C 18,9 C 82 % 1011,2 hPa 0,0 mm 0,1 km/h (0 Bft) O 91 0 min 0,000 mm 0,0 UV-I 51 W/m 15,8 C 1,6 km/h (1 Bft)
19.08.2016 19:33 18,8 C 18,9 C 83 % 1011,3 hPa 0,0 mm 0,0 km/h (0 Bft) O 91 0 min 0,000 mm 0,0 UV-I 51 W/m 15,8 C 0,0 km/h (0 Bft)
19.08.2016 19:34 18,8 C 18,8 C 83 % 1011,3 hPa 0,0 mm 0,0 km/h (0 Bft) O 91 0 min 0,000 mm 0,0 UV-I 53 W/m 15,8 C 0,0 km/h (0 Bft)
19.08.2016 19:35 18,8 C 18,8 C 83 % 1011,3 hPa 0,0 mm 0,1 km/h (0 Bft) O 91 0 min 0,000 mm 0,0 UV-I 56 W/m 15,8 C 1,6 km/h (1 Bft)
19.08.2016 19:36 18,8 C 18,8 C 83 % 1011,3 hPa 0,0 mm 0,8 km/h (0 Bft) O 91 0 min 0,000 mm 0,0 UV-I 58 W/m 15,8 C 1,6 km/h (1 Bft)
19.08.2016 19:37 18,8 C 18,8 C 82 % 1011,3 hPa 0,0 mm 0,6 km/h (0 Bft) O 91 0 min 0,000 mm 0,0 UV-I 58 W/m 15,7 C 1,6 km/h (1 Bft)
19.08.2016 19:38 18,8 C 18,8 C 83 % 1011,3 hPa 0,0 mm 0,8 km/h (0 Bft) O 91 1 min 0,000 mm 0,0 UV-I 58 W/m 15,8 C 1,6 km/h (1 Bft)
19.08.2016 19:39 18,9 C 18,9 C 82 % 1011,3 hPa 0,0 mm 1,2 km/h (1 Bft) O 91 1 min 0,000 mm 0,0 UV-I 58 W/m 15,8 C 1,6 km/h (1 Bft)
19.08.2016 19:40 18,9 C 18,9 C 82 % 1011,3 hPa 0,0 mm 1,0 km/h (0 Bft) O 91 1 min 0,000 mm 0,0 UV-I 58 W/m 15,8 C 1,6 km/h (1 Bft)
19.08.2016 19:41 18,9 C 18,9 C 82 % 1011,3 hPa 0,0 mm 0,9 km/h (0 Bft) O 91 0 min 0,000 mm 0,0 UV-I 44 W/m 15,8 C 1,6 km/h (1 Bft)
19.08.2016 19:42 18,9 C 18,9 C 81 % 1011,2 hPa 0,0 mm 1,1 km/h (1 Bft) O 91 0 min 0,000 mm 0,0 UV-I 44 W/m 15,6 C 1,6 km/h (1 Bft)
19.08.2016 19:43 18,9 C 19,0 C 81 % 1011,2 hPa 0,0 mm 1,6 km/h (1 Bft) O 91 0 min 0,000 mm 0,0 UV-I 44 W/m 15,6 C 3,2 km/h (1 Bft)
19.08.2016 19:44 18,9 C 18,9 C 81 % 1011,3 hPa 0,0 mm 1,3 km/h (1 Bft) O 91 0 min 0,000 mm 0,0 UV-I 40 W/m 15,6 C 3,2 km/h (1 Bft)
19.08.2016 19:45 18,9 C 18,9 C 82 % 1011,3 hPa 0,0 mm 1,3 km/h (1 Bft) O 91 0 min 0,000 mm 0,0 UV-I 39 W/m 15,8 C 1,6 km/h (1 Bft)
19.08.2016 19:46 18,9 C 18,9 C 82 % 1011,3 hPa 0,0 mm 1,9 km/h (1 Bft) O 91 0 min 0,000 mm 0,0 UV-I 37 W/m 15,8 C 3,2 km/h (1 Bft)
19.08.2016 19:47 18,9 C 18,9 C 82 % 1011,3 hPa 0,0 mm 1,4 km/h (1 Bft) O 91 0 min 0,000 mm 0,0 UV-I 33 W/m 15,8 C 1,6 km/h (1 Bft)
19.08.2016 19:48 18,8 C 18,9 C 82 % 1011,3 hPa 0,0 mm 1,2 km/h (1 Bft) O 91 0 min 0,000 mm 0,0 UV-I 32 W/m 15,7 C 1,6 km/h (1 Bft)
19.08.2016 19:49 18,8 C 18,9 C 82 % 1011,3 hPa 0,0 mm 1,6 km/h (1 Bft) O 91 0 min 0,000 mm 0,0 UV-I 32 W/m 15,7 C 3,2 km/h (1 Bft)
19.08.2016 19:50 18,8 C 18,9 C 83 % 1011,3 hPa 0,0 mm 1,7 km/h (1 Bft) O 91 0 min 0,000 mm 0,0 UV-I 30 W/m 15,8 C 3,2 km/h (1 Bft)
19.08.2016 19:51 18,8 C 18,8 C 83 % 1011,3 hPa 0,0 mm 1,4 km/h (1 Bft) O-SO 117 0 min 0,000 mm 0,0 UV-I 30 W/m 15,8 C 3,2 km/h (1 Bft)
19.08.2016 19:52 18,8 C 18,8 C 83 % 1011,4 hPa 0,0 mm 1,6 km/h (1 Bft) O-SO 117 0 min 0,000 mm 0,0 UV-I 28 W/m 15,8 C 3,2 km/h (1 Bft)
19.08.2016 19:53 18,7 C 18,8 C 83 % 1011,3 hPa 0,0 mm 1,4 km/h (1 Bft) O-SO 117 0 min 0,000 mm 0,0 UV-I 26 W/m 15,8 C 3,2 km/h (1 Bft)
19.08.2016 19:54 18,7 C 18,8 C 83 % 1011,3 hPa 0,0 mm 1,9 km/h (1 Bft) O-SO 117 0 min 0,000 mm 0,0 UV-I 26 W/m 15,8 C 3,2 km/h (1 Bft)
19.08.2016 19:55 18,7 C 18,7 C 83 % 1011,3 hPa 0,0 mm 2,4 km/h (1 Bft) O-SO 117 0 min 0,000 mm 0,0 UV-I 25 W/m 15,8 C 3,2 km/h (1 Bft)
19.08.2016 19:56 18,6 C 18,7 C 83 % 1011,3 hPa 0,0 mm 2,0 km/h (1 Bft) O-SO 117 0 min 0,000 mm 0,0 UV-I 25 W/m 15,7 C 3,2 km/h (1 Bft)
19.08.2016 19:57 18,6 C 18,6 C 83 % 1011,3 hPa 0,0 mm 1,5 km/h (1 Bft) O-SO 117 0 min 0,000 mm 0,0 UV-I 25 W/m 15,7 C 3,2 km/h (1 Bft)
19.08.2016 19:58 18,6 C 18,6 C 83 % 1011,3 hPa 0,0 mm 1,7 km/h (1 Bft) O-SO 117 0 min 0,000 mm 0,0 UV-I 23 W/m 15,7 C 3,2 km/h (1 Bft)
19.08.2016 19:59 18,4 C 18,6 C 83 % 1011,3 hPa 0,0 mm 1,1 km/h (1 Bft) O-SO 117 0 min 0,000 mm 0,0 UV-I 23 W/m 15,5 C 1,6 km/h (1 Bft)
19.08.2016 20:00 18,4 C 18,4 C 83 % 1011,3 hPa 0,0 mm 0,5 km/h (0 Bft) O-SO 117 0 min 0,000 mm 0,0 UV-I 23 W/m 15,5 C 1,6 km/h (1 Bft)
19.08.2016 20:01 18,3 C 18,4 C 83 % 1011,3 hPa 0,0 mm 0,5 km/h (0 Bft) O-SO 117 1 min 0,025 mm 0,0 UV-I 23 W/m 15,4 C 1,6 km/h (1 Bft)
19.08.2016 20:02 18,3 C 18,3 C 84 % 1011,3 hPa 0,0 mm 0,4 km/h (0 Bft) O-SO 117 1 min 0,000 mm 0,0 UV-I 21 W/m 15,5 C 1,6 km/h (1 Bft)
19.08.2016 20:03 18,3 C 18,3 C 84 % 1011,3 hPa 0,0 mm 0,1 km/h (0 Bft) O-SO 117 1 min 0,000 mm 0,0 UV-I 21 W/m 15,5 C 1,6 km/h (1 Bft)
19.08.2016 20:04 18,2 C 18,3 C 83 % 1011,4 hPa 0,0 mm 0,3 km/h (0 Bft) O-SO 117 1 min 0,000 mm 0,0 UV-I 19 W/m 15,3 C 1,6 km/h (1 Bft)
19.08.2016 20:05 18,1 C 18,2 C 84 % 1011,3 hPa 0,0 mm 0,0 km/h (0 Bft) O-SO 117 1 min 0,000 mm 0,0 UV-I 19 W/m 15,4 C 0,0 km/h (0 Bft)
19.08.2016 20:06 18,1 C 18,2 C 84 % 1011,4 hPa 0,0 mm 0,0 km/h (0 Bft) O-SO 117 1 min 0,000 mm 0,0 UV-I 18 W/m 15,4 C 0,0 km/h (0 Bft)
19.08.2016 20:07 18,0 C 18,1 C 85 % 1011,4 hPa 0,0 mm 0,2 km/h (0 Bft) O-SO 117 1 min 0,000 mm 0,0 UV-I 16 W/m 15,4 C 1,6 km/h (1 Bft)
19.08.2016 20:08 17,9 C 18,0 C 85 % 1011,4 hPa 0,0 mm 0,0 km/h (0 Bft) O-SO 117 1 min 0,000 mm 0,0 UV-I 14 W/m 15,3 C 0,0 km/h (0 Bft)
19.08.2016 20:09 17,9 C 17,9 C 85 % 1011,4 hPa 0,0 mm 0,0 km/h (0 Bft) O-SO 117 1 min 0,000 mm 0,0 UV-I 12 W/m 15,3 C 0,0 km/h (0 Bft)
19.08.2016 20:10 17,9 C 17,9 C 86 % 1011,4 hPa 0,0 mm 0,1 km/h (0 Bft) O-SO 117 1 min 0,000 mm 0,0 UV-I 9 W/m 15,5 C 1,6 km/h (1 Bft)
19.08.2016 20:11 17,8 C 17,9 C 86 % 1011,4 hPa 0,0 mm 0,1 km/h (0 Bft) O-SO 117 0 min 0,000 mm 0,0 UV-I 7 W/m 15,4 C 1,6 km/h (1 Bft)
19.08.2016 20:12 17,8 C 17,8 C 86 % 1011,4 hPa 0,0 mm 1,1 km/h (1 Bft) O-SO 117 0 min 0,000 mm 0,0 UV-I 7 W/m 15,4 C 1,6 km/h (1 Bft)
19.08.2016 20:13 17,7 C 17,8 C 86 % 1011,4 hPa 0,0 mm 1,5 km/h (1 Bft) O-SO 117 0 min 0,000 mm 0,0 UV-I 5 W/m 15,3 C 3,2 km/h (1 Bft)
19.08.2016 20:14 17,7 C 17,7 C 86 % 1011,4 hPa 0,0 mm 0,4 km/h (0 Bft) O-SO 117 0 min 0,000 mm 0,0 UV-I 5 W/m 15,3 C 1,6 km/h (1 Bft)
19.08.2016 20:15 17,7 C 17,7 C 86 % 1011,4 hPa 0,0 mm 0,6 km/h (0 Bft) O-SO 117 0 min 0,000 mm 0,0 UV-I 0 W/m 15,3 C 1,6 km/h (1 Bft)
19.08.2016 20:16 17,7 C 17,7 C 86 % 1011,5 hPa 0,0 mm 0,8 km/h (0 Bft) O-SO 117 0 min 0,000 mm 0,0 UV-I 0 W/m 15,3 C 3,2 km/h (1 Bft)
19.08.2016 20:17 17,6 C 17,7 C 85 % 1011,5 hPa 0,0 mm 0,6 km/h (0 Bft) O-SO 117 0 min 0,000 mm 0,0 UV-I 0 W/m 15,0 C 1,6 km/h (1 Bft)
19.08.2016 20:18 17,6 C 17,6 C 85 % 1011,4 hPa 0,0 mm 1,1 km/h (1 Bft) O-SO 117 0 min 0,000 mm 0,0 UV-I 0 W/m 15,0 C 1,6 km/h (1 Bft)
19.08.2016 20:19 17,6 C 17,6 C 85 % 1011,4 hPa 0,0 mm 0,8 km/h (0 Bft) O-SO 117 0 min 0,000 mm 0,0 UV-I 0 W/m 15,0 C 1,6 km/h (1 Bft)
19.08.2016 20:20 17,6 C 17,6 C 85 % 1011,5 hPa 0,0 mm 1,0 km/h (0 Bft) O-SO 117 0 min 0,000 mm 0,0 UV-I 0 W/m 15,0 C 1,6 km/h (1 Bft)
19.08.2016 20:21 17,5 C 17,6 C 85 % 1011,5 hPa 0,0 mm 0,4 km/h (0 Bft) O-SO 117 0 min 0,000 mm 0,0 UV-I 0 W/m 14,9 C 1,6 km/h (1 Bft)
19.08.2016 20:22 17,4 C 17,5 C 85 % 1011,5 hPa 0,0 mm 0,0 km/h (0 Bft) O-SO 117 0 min 0,000 mm 0,0 UV-I 0 W/m 14,8 C 0,0 km/h (0 Bft)
19.08.2016 20:23 17,3 C 17,4 C 85 % 1011,5 hPa 0,0 mm 0,4 km/h (0 Bft) O-SO 117 0 min 0,000 mm 0,0 UV-I 0 W/m 14,8 C 1,6 km/h (1 Bft)
19.08.2016 20:24 17,2 C 17,3 C 86 % 1011,5 hPa 0,0 mm 0,4 km/h (0 Bft) O-SO 117 0 min 0,000 mm 0,0 UV-I 0 W/m 14,8 C 1,6 km/h (1 Bft)
19.08.2016 20:25 17,0 C 17,2 C 86 % 1011,5 hPa 0,0 mm 1,8 km/h (1 Bft) O-SO 117 0 min 0,000 mm 0,0 UV-I 0 W/m 14,6 C 3,2 km/h (1 Bft)
19.08.2016 20:26 16,9 C 17,0 C 86 % 1011,5 hPa 0,0 mm 2,6 km/h (1 Bft) O-SO 117 0 min 0,000 mm 0,0 UV-I 0 W/m 14,5 C 3,2 km/h (1 Bft)
19.08.2016 20:27 16,8 C 16,9 C 87 % 1011,5 hPa 0,0 mm 1,7 km/h (1 Bft) O-SO 117 0 min 0,000 mm 0,0 UV-I 0 W/m 14,6 C 3,2 km/h (1 Bft)
19.08.2016 20:28 16,7 C 16,8 C 87 % 1011,5 hPa 0,0 mm 1,8 km/h (1 Bft) O-SO 117 0 min 0,000 mm 0,0 UV-I 0 W/m 14,5 C 3,2 km/h (1 Bft)
19.08.2016 20:29 16,6 C 16,7 C 87 % 1011,5 hPa 0,0 mm 3,0 km/h (1 Bft) O-SO 118 0 min 0,000 mm 0,0 UV-I 0 W/m 14,4 C 3,2 km/h (1 Bft)
19.08.2016 20:30 16,4 C 16,6 C 88 % 1011,6 hPa 0,0 mm 1,8 km/h (1 Bft) O-SO 119 0 min 0,000 mm 0,0 UV-I 0 W/m 14,4 C 3,2 km/h (1 Bft)
19.08.2016 20:31 16,4 C 16,4 C 89 % 1011,6 hPa 0,0 mm 0,9 km/h (0 Bft) O-SO 119 0 min 0,000 mm 0,0 UV-I 0 W/m 14,6 C 3,2 km/h (1 Bft)
19.08.2016 20:32 16,3 C 16,4 C 89 % 1011,6 hPa 0,0 mm 1,5 km/h (1 Bft) O-SO 119 0 min 0,000 mm 0,0 UV-I 0 W/m 14,5 C 3,2 km/h (1 Bft)
19.08.2016 20:33 16,3 C 16,3 C 89 % 1011,6 hPa 0,0 mm 1,7 km/h (1 Bft) O-SO 119 0 min 0,000 mm 0,0 UV-I 0 W/m 14,5 C 3,2 km/h (1 Bft)
19.08.2016 20:34 16,3 C 16,3 C 89 % 1011,7 hPa 0,0 mm 2,0 km/h (1 Bft) O-SO 119 0 min 0,000 mm 0,0 UV-I 0 W/m 14,5 C 3,2 km/h (1 Bft)
19.08.2016 20:35 16,3 C 16,3 C 89 % 1011,7 hPa 0,0 mm 1,8 km/h (1 Bft) O-SO 119 0 min 0,000 mm 0,0 UV-I 0 W/m 14,5 C 3,2 km/h (1 Bft)
19.08.2016 20:36 16,4 C 16,4 C 89 % 1011,7 hPa 0,0 mm 2,0 km/h (1 Bft) O-SO 119 0 min 0,000 mm 0,0 UV-I 0 W/m 14,6 C 3,2 km/h (1 Bft)
19.08.2016 20:37 16,3 C 16,4 C 88 % 1011,8 hPa 0,0 mm 1,6 km/h (1 Bft) O-SO 119 0 min 0,000 mm 0,0 UV-I 0 W/m 14,3 C 1,6 km/h (1 Bft)
19.08.2016 20:38 16,3 C 16,4 C 88 % 1011,8 hPa 0,0 mm 0,3 km/h (0 Bft) O-SO 119 0 min 0,000 mm 0,0 UV-I 0 W/m 14,3 C 1,6 km/h (1 Bft)
19.08.2016 20:39 16,3 C 16,4 C 88 % 1011,7 hPa 0,0 mm 0,0 km/h (0 Bft) O-SO 119 0 min 0,000 mm 0,0 UV-I 0 W/m 14,3 C 0,0 km/h (0 Bft)
19.08.2016 20:40 16,3 C 16,3 C 88 % 1011,8 hPa 0,0 mm 0,0 km/h (0 Bft) O-SO 119 0 min 0,000 mm 0,0 UV-I 0 W/m 14,3 C 0,0 km/h (0 Bft)
19.08.2016 20:41 16,3 C 16,3 C 88 % 1011,7 hPa 0,0 mm 0,0 km/h (0 Bft) O-SO 119 0 min 0,000 mm 0,0 UV-I 0 W/m 14,3 C 0,0 km/h (0 Bft)
19.08.2016 20:42 16,3 C 16,3 C 88 % 1011,8 hPa 0,0 mm 0,0 km/h (0 Bft) O-SO 119 0 min 0,000 mm 0,0 UV-I 0 W/m 14,3 C 0,0 km/h (0 Bft)
19.08.2016 20:43 16,3 C 16,3 C 89 % 1011,8 hPa 0,0 mm 0,0 km/h (0 Bft) O-SO 119 0 min 0,000 mm 0,0 UV-I 0 W/m 14,5 C 0,0 km/h (0 Bft)
19.08.2016 20:44 16,3 C 16,3 C 88 % 1011,8 hPa 0,0 mm 1,7 km/h (1 Bft) O-SO 119 0 min 0,000 mm 0,0 UV-I 0 W/m 14,3 C 3,2 km/h (1 Bft)
19.08.2016 20:45 16,3 C 16,3 C 89 % 1011,8 hPa 0,0 mm 2,4 km/h (1 Bft) O-SO 121 0 min 0,000 mm 0,0 UV-I 0 W/m 14,5 C 3,2 km/h (1 Bft)
19.08.2016 20:46 16,3 C 16,3 C 88 % 1011,8 hPa 0,0 mm 1,9 km/h (1 Bft) O-SO 121 0 min 0,000 mm 0,0 UV-I 0 W/m 14,3 C 3,2 km/h (1 Bft)
19.08.2016 20:47 16,3 C 16,3 C 88 % 1011,8 hPa 0,0 mm 1,5 km/h (1 Bft) O-SO 121 0 min 0,000 mm 0,0 UV-I 0 W/m 14,3 C 3,2 km/h (1 Bft)
19.08.2016 20:48 16,3 C 16,3 C 88 % 1011,8 hPa 0,0 mm 1,9 km/h (1 Bft) O-SO 121 0 min 0,000 mm 0,0 UV-I 0 W/m 14,3 C 3,2 km/h (1 Bft)
19.08.2016 20:49 16,2 C 16,3 C 88 % 1011,8 hPa 0,0 mm 2,1 km/h (1 Bft) O-SO 121 0 min 0,000 mm 0,0 UV-I 0 W/m 14,2 C 3,2 km/h (1 Bft)
19.08.2016 20:50 16,2 C 16,3 C 88 % 1011,8 hPa 0,0 mm 1,9 km/h (1 Bft) O-SO 121 0 min 0,000 mm 0,0 UV-I 0 W/m 14,2 C 3,2 km/h (1 Bft)
19.08.2016 20:51 16,1 C 16,2 C 88 % 1011,8 hPa 0,0 mm 1,9 km/h (1 Bft) O-SO 121 0 min 0,000 mm 0,0 UV-I 0 W/m 14,1 C 3,2 km/h (1 Bft)
19.08.2016 20:52 16,1 C 16,1 C 89 % 1011,9 hPa 0,0 mm 1,7 km/h (1 Bft) O-SO 121 0 min 0,000 mm 0,0 UV-I 0 W/m 14,3 C 3,2 km/h (1 Bft)
19.08.2016 20:53 16,1 C 16,1 C 89 % 1011,9 hPa 0,0 mm 1,8 km/h (1 Bft) O-SO 121 0 min 0,000 mm 0,0 UV-I 0 W/m 14,3 C 3,2 km/h (1 Bft)
19.08.2016 20:54 16,1 C 16,1 C 89 % 1011,9 hPa 0,0 mm 1,8 km/h (1 Bft) O-SO 121 0 min 0,000 mm 0,0 UV-I 0 W/m 14,3 C 3,2 km/h (1 Bft)
19.08.2016 20:55 16,0 C 16,1 C 89 % 1011,9 hPa 0,0 mm 2,1 km/h (1 Bft) O-SO 121 0 min 0,000 mm 0,0 UV-I 0 W/m 14,2 C 3,2 km/h (1 Bft)
19.08.2016 20:56 16,0 C 16,1 C 89 % 1011,9 hPa 0,0 mm 1,9 km/h (1 Bft) O-SO 121 0 min 0,000 mm 0,0 UV-I 0 W/m 14,2 C 3,2 km/h (1 Bft)
19.08.2016 20:57 15,9 C 16,0 C 89 % 1012,0 hPa 0,0 mm 2,1 km/h (1 Bft) O-SO 121 0 min 0,000 mm 0,0 UV-I 0 W/m 14,1 C 3,2 km/h (1 Bft)
19.08.2016 20:58 15,9 C 15,9 C 90 % 1011,9 hPa 0,0 mm 1,5 km/h (1 Bft) O-SO 121 0 min 0,000 mm 0,0 UV-I 0 W/m 14,3 C 3,2 km/h (1 Bft)
19.08.2016 20:59 15,7 C 15,9 C 89 % 1012,0 hPa 0,0 mm 1,7 km/h (1 Bft) O-SO 121 0 min 0,000 mm 0,0 UV-I 0 W/m 13,9 C 3,2 km/h (1 Bft)
19.08.2016 21:00 15,6 C 15,7 C 89 % 1012,0 hPa 0,0 mm 1,5 km/h (1 Bft) O-SO 121 0 min 0,000 mm 0,0 UV-I 0 W/m 13,8 C 1,6 km/h (1 Bft)
19.08.2016 21:01 15,4 C 15,6 C 90 % 1012,0 hPa 0,0 mm 0,7 km/h (0 Bft) O-SO 121 0 min 0,000 mm 0,0 UV-I 0 W/m 13,8 C 1,6 km/h (1 Bft)
19.08.2016 21:02 15,4 C 15,4 C 91 % 1012,0 hPa 0,0 mm 1,0 km/h (0 Bft) O-SO 121 0 min 0,000 mm 0,0 UV-I 0 W/m 13,9 C 1,6 km/h (1 Bft)
19.08.2016 21:03 15,3 C 15,4 C 91 % 1012,0 hPa 0,0 mm 1,3 km/h (1 Bft) O-SO 121 0 min 0,000 mm 0,0 UV-I 0 W/m 13,8 C 1,6 km/h (1 Bft)
19.08.2016 21:04 15,2 C 15,3 C 91 % 1012,0 hPa 0,0 mm 1,5 km/h (1 Bft) O-SO 121 0 min 0,000 mm 0,0 UV-I 0 W/m 13,7 C 3,2 km/h (1 Bft)
19.08.2016 21:05 15,3 C 15,3 C 92 % 1012,0 hPa 0,0 mm 0,5 km/h (0 Bft) O-SO 121 0 min 0,000 mm 0,0 UV-I 0 W/m 14,0 C 1,6 km/h (1 Bft)
19.08.2016 21:06 15,4 C 15,4 C 92 % 1012,0 hPa 0,0 mm 0,1 km/h (0 Bft) O-SO 121 0 min 0,000 mm 0,0 UV-I 0 W/m 14,1 C 1,6 km/h (1 Bft)
19.08.2016 21:07 15,3 C 15,4 C 91 % 1012,0 hPa 0,0 mm 1,7 km/h (1 Bft) O-SO 121 0 min 0,000 mm 0,0 UV-I 0 W/m 13,8 C 3,2 km/h (1 Bft)
19.08.2016 21:08 15,3 C 15,3 C 91 % 1012,1 hPa 0,0 mm 2,7 km/h (1 Bft) O-SO 121 0 min 0,000 mm 0,0 UV-I 0 W/m 13,8 C 3,2 km/h (1 Bft)
19.08.2016 21:09 15,2 C 15,3 C 91 % 1012,1 hPa 0,0 mm 2,3 km/h (1 Bft) O-SO 121 0 min 0,000 mm 0,0 UV-I 0 W/m 13,7 C 3,2 km/h (1 Bft)
19.08.2016 21:10 15,2 C 15,2 C 92 % 1012,1 hPa 0,0 mm 0,9 km/h (0 Bft) O-SO 121 0 min 0,000 mm 0,0 UV-I 0 W/m 13,9 C 1,6 km/h (1 Bft)
19.08.2016 21:11 15,2 C 15,2 C 92 % 1012,0 hPa 0,0 mm 0,1 km/h (0 Bft) O-SO 121 0 min 0,000 mm 0,0 UV-I 0 W/m 13,9 C 1,6 km/h (1 Bft)
19.08.2016 21:12 15,2 C 15,2 C 91 % 1012,1 hPa 0,0 mm 0,4 km/h (0 Bft) O-SO 121 0 min 0,000 mm 0,0 UV-I 0 W/m 13,7 C 1,6 km/h (1 Bft)
19.08.2016 21:13 15,1 C 15,2 C 91 % 1012,1 hPa 0,0 mm 0,3 km/h (0 Bft) O-SO 121 0 min 0,000 mm 0,0 UV-I 0 W/m 13,6 C 1,6 km/h (1 Bft)
19.08.2016 21:14 15,0 C 15,1 C 91 % 1012,1 hPa 0,0 mm 0,6 km/h (0 Bft) O-SO 121 0 min 0,000 mm 0,0 UV-I 0 W/m 13,5 C 1,6 km/h (1 Bft)
19.08.2016 21:15 15,0 C 15,0 C 92 % 1012,1 hPa 0,0 mm 0,5 km/h (0 Bft) O-SO 121 0 min 0,000 mm 0,0 UV-I 0 W/m 13,7 C 1,6 km/h (1 Bft)
19.08.2016 21:16 14,9 C 15,0 C 92 % 1012,1 hPa 0,0 mm 0,8 km/h (0 Bft) O-SO 121 0 min 0,000 mm 0,0 UV-I 0 W/m 13,6 C 3,2 km/h (1 Bft)
19.08.2016 21:17 15,0 C 15,0 C 92 % 1012,1 hPa 0,0 mm 0,0 km/h (0 Bft) O-SO 121 0 min 0,000 mm 0,0 UV-I 0 W/m 13,7 C 0,0 km/h (0 Bft)
19.08.2016 21:18 14,9 C 15,0 C 92 % 1012,1 hPa 0,0 mm 0,0 km/h (0 Bft) O-SO 121 0 min 0,000 mm 0,0 UV-I 0 W/m 13,6 C 0,0 km/h (0 Bft)
19.08.2016 21:19 15,0 C 15,0 C 93 % 1012,1 hPa 0,0 mm 0,0 km/h (0 Bft) O-SO 121 0 min 0,000 mm 0,0 UV-I 0 W/m 13,9 C 0,0 km/h (0 Bft)
19.08.2016 21:20 15,0 C 15,0 C 93 % 1012,1 hPa 0,0 mm 1,3 km/h (1 Bft) O-SO 121 0 min 0,000 mm 0,0 UV-I 0 W/m 13,9 C 3,2 km/h (1 Bft)
19.08.2016 21:21 15,1 C 15,1 C 93 % 1012,1 hPa 0,0 mm 0,5 km/h (0 Bft) O-SO 121 0 min 0,000 mm 0,0 UV-I 0 W/m 14,0 C 1,6 km/h (1 Bft)
19.08.2016 21:22 15,1 C 15,1 C 93 % 1012,1 hPa 0,0 mm 0,2 km/h (0 Bft) O-SO 121 0 min 0,000 mm 0,0 UV-I 0 W/m 14,0 C 1,6 km/h (1 Bft)
19.08.2016 21:23 15,2 C 15,2 C 93 % 1012,2 hPa 0,0 mm 1,0 km/h (0 Bft) O-SO 121 0 min 0,000 mm 0,0 UV-I 0 W/m 14,1 C 3,2 km/h (1 Bft)
19.08.2016 21:24 15,2 C 15,2 C 93 % 1012,2 hPa 0,0 mm 1,9 km/h (1 Bft) S-SO 161 0 min 0,000 mm 0,0 UV-I 0 W/m 14,1 C 3,2 km/h (1 Bft)
19.08.2016 21:25 15,3 C 15,3 C 92 % 1012,2 hPa 0,0 mm 3,4 km/h (1 Bft) S-SO 167 0 min 0,000 mm 0,0 UV-I 0 W/m 14,0 C 6,4 km/h (2 Bft)
19.08.2016 21:26 15,3 C 15,3 C 92 % 1012,2 hPa 0,0 mm 1,1 km/h (1 Bft) S-SO 167 0 min 0,000 mm 0,0 UV-I 0 W/m 14,0 C 1,6 km/h (1 Bft)
19.08.2016 21:27 15,4 C 15,4 C 92 % 1012,1 hPa 0,0 mm 0,9 km/h (0 Bft) S-SO 167 0 min 0,000 mm 0,0 UV-I 0 W/m 14,1 C 1,6 km/h (1 Bft)
19.08.2016 21:28 15,5 C 15,5 C 93 % 1012,1 hPa 0,0 mm 0,8 km/h (0 Bft) S-SO 167 0 min 0,000 mm 0,0 UV-I 0 W/m 14,4 C 1,6 km/h (1 Bft)
19.08.2016 21:29 15,6 C 15,6 C 93 % 1012,1 hPa 0,0 mm 0,2 km/h (0 Bft) S-SO 167 0 min 0,000 mm 0,0 UV-I 0 W/m 14,5 C 1,6 km/h (1 Bft)
19.08.2016 21:30 15,6 C 15,6 C 91 % 1012,1 hPa 0,0 mm 0,5 km/h (0 Bft) S-SO 167 0 min 0,000 mm 0,0 UV-I 0 W/m 14,1 C 1,6 km/h (1 Bft)
19.08.2016 21:31 15,6 C 15,6 C 91 % 1012,2 hPa 0,0 mm 0,6 km/h (0 Bft) S-SO 167 0 min 0,000 mm 0,0 UV-I 0 W/m 14,1 C 1,6 km/h (1 Bft)
19.08.2016 21:32 15,5 C 15,6 C 91 % 1012,1 hPa 0,0 mm 0,0 km/h (0 Bft) S-SO 167 0 min 0,000 mm 0,0 UV-I 0 W/m 14,0 C 0,0 km/h (0 Bft)
19.08.2016 21:33 15,4 C 15,5 C 91 % 1012,1 hPa 0,0 mm 0,3 km/h (0 Bft) S-SO 167 0 min 0,000 mm 0,0 UV-I 0 W/m 13,9 C 1,6 km/h (1 Bft)
19.08.2016 21:34 15,5 C 15,5 C 91 % 1012,1 hPa 0,0 mm 0,1 km/h (0 Bft) S-SO 167 0 min 0,000 mm 0,0 UV-I 0 W/m 14,0 C 1,6 km/h (1 Bft)
19.08.2016 21:35 15,5 C 15,5 C 91 % 1012,1 hPa 0,0 mm 0,0 km/h (0 Bft) S-SO 167 0 min 0,000 mm 0,0 UV-I 0 W/m 14,0 C 0,0 km/h (0 Bft)
19.08.2016 21:36 15,4 C 15,5 C 91 % 1012,1 hPa 0,0 mm 0,0 km/h (0 Bft) S-SO 167 0 min 0,000 mm 0,0 UV-I 0 W/m 13,9 C 0,0 km/h (0 Bft)
19.08.2016 21:37 15,4 C 15,4 C 91 % 1012,1 hPa 0,0 mm 0,0 km/h (0 Bft) S-SO 167 0 min 0,000 mm 0,0 UV-I 0 W/m 13,9 C 0,0 km/h (0 Bft)
19.08.2016 21:38 15,4 C 15,4 C 91 % 1012,1 hPa 0,0 mm 0,1 km/h (0 Bft) S-SO 167 0 min 0,000 mm 0,0 UV-I 0 W/m 13,9 C 1,6 km/h (1 Bft)
19.08.2016 21:39 15,4 C 15,4 C 91 % 1012,1 hPa 0,0 mm 0,0 km/h (0 Bft) S-SO 167 0 min 0,000 mm 0,0 UV-I 0 W/m 13,9 C 0,0 km/h (0 Bft)
19.08.2016 21:40 15,4 C 15,5 C 91 % 1012,1 hPa 0,0 mm 0,0 km/h (0 Bft) S-SO 167 0 min 0,000 mm 0,0 UV-I 0 W/m 13,9 C 0,0 km/h (0 Bft)
19.08.2016 21:41 15,4 C 15,5 C 91 % 1012,1 hPa 0,0 mm 0,0 km/h (0 Bft) S-SO 167 0 min 0,000 mm 0,0 UV-I 0 W/m 13,9 C 0,0 km/h (0 Bft)
19.08.2016 21:42 15,4 C 15,5 C 91 % 1012,1 hPa 0,0 mm 0,0 km/h (0 Bft) S-SO 167 0 min 0,000 mm 0,0 UV-I 0 W/m 13,9 C 0,0 km/h (0 Bft)
19.08.2016 21:43 15,5 C 15,5 C 91 % 1012,1 hPa 0,0 mm 0,0 km/h (0 Bft) S-SO 167 0 min 0,000 mm 0,0 UV-I 0 W/m 14,0 C 0,0 km/h (0 Bft)
19.08.2016 21:44 15,5 C 15,6 C 91 % 1012,1 hPa 0,0 mm 0,0 km/h (0 Bft) S-SO 167 0 min 0,000 mm 0,0 UV-I 0 W/m 14,0 C 0,0 km/h (0 Bft)
19.08.2016 21:45 15,6 C 15,6 C 91 % 1012,1 hPa 0,0 mm 0,0 km/h (0 Bft) S-SO 167 0 min 0,000 mm 0,0 UV-I 0 W/m 14,1 C 0,0 km/h (0 Bft)
19.08.2016 21:46 15,5 C 15,6 C 91 % 1012,2 hPa 0,0 mm 0,0 km/h (0 Bft) S-SO 167 0 min 0,000 mm 0,0 UV-I 0 W/m 14,0 C 0,0 km/h (0 Bft)
19.08.2016 21:47 15,5 C 15,5 C 91 % 1012,1 hPa 0,0 mm 0,0 km/h (0 Bft) S-SO 167 0 min 0,000 mm 0,0 UV-I 0 W/m 14,0 C 0,0 km/h (0 Bft)
19.08.2016 21:48 15,5 C 15,5 C 91 % 1012,2 hPa 0,0 mm 0,0 km/h (0 Bft) S-SO 167 0 min 0,000 mm 0,0 UV-I 0 W/m 14,0 C 0,0 km/h (0 Bft)
19.08.2016 21:49 15,6 C 15,6 C 91 % 1012,2 hPa 0,0 mm 0,0 km/h (0 Bft) S-SO 167 0 min 0,000 mm 0,0 UV-I 0 W/m 14,1 C 0,0 km/h (0 Bft)
19.08.2016 21:50 15,6 C 15,6 C 91 % 1012,1 hPa 0,0 mm 0,3 km/h (0 Bft) S-SO 167 0 min 0,000 mm 0,0 UV-I 0 W/m 14,1 C 1,6 km/h (1 Bft)
19.08.2016 21:51 15,6 C 15,6 C 91 % 1012,2 hPa 0,0 mm 0,5 km/h (0 Bft) S-SO 167 0 min 0,000 mm 0,0 UV-I 0 W/m 14,1 C 1,6 km/h (1 Bft)
19.08.2016 21:52 15,6 C 15,6 C 90 % 1012,2 hPa 0,0 mm 0,2 km/h (0 Bft) S-SO 167 0 min 0,000 mm 0,0 UV-I 0 W/m 14,0 C 1,6 km/h (1 Bft)
19.08.2016 21:53 15,6 C 15,6 C 91 % 1012,2 hPa 0,0 mm 0,7 km/h (0 Bft) S-SO 167 0 min 0,000 mm 0,0 UV-I 0 W/m 14,1 C 1,6 km/h (1 Bft)
19.08.2016 21:54 15,6 C 15,6 C 91 % 1012,2 hPa 0,0 mm 0,0 km/h (0 Bft) S-SO 167 0 min 0,000 mm 0,0 UV-I 0 W/m 14,1 C 0,0 km/h (0 Bft)
19.08.2016 21:55 15,6 C 15,7 C 90 % 1012,2 hPa 0,0 mm 0,0 km/h (0 Bft) S-SO 167 0 min 0,000 mm 0,0 UV-I 0 W/m 14,0 C 0,0 km/h (0 Bft)
19.08.2016 21:56 15,6 C 15,7 C 90 % 1012,2 hPa 0,0 mm 0,0 km/h (0 Bft) S-SO 167 0 min 0,000 mm 0,0 UV-I 0 W/m 14,0 C 0,0 km/h (0 Bft)
19.08.2016 21:57 15,6 C 15,6 C 91 % 1012,2 hPa 0,0 mm 0,0 km/h (0 Bft) S-SO 167 0 min 0,000 mm 0,0 UV-I 0 W/m 14,1 C 0,0 km/h (0 Bft)
19.08.2016 21:58 15,5 C 15,6 C 91 % 1012,2 hPa 0,0 mm 0,0 km/h (0 Bft) S-SO 167 0 min 0,000 mm 0,0 UV-I 0 W/m 14,0 C 0,0 km/h (0 Bft)
19.08.2016 21:59 15,5 C 15,5 C 91 % 1012,3 hPa 0,0 mm 0,0 km/h (0 Bft) S-SO 167 0 min 0,000 mm 0,0 UV-I 0 W/m 14,0 C 0,0 km/h (0 Bft)
19.08.2016 22:00 15,5 C 15,5 C 91 % 1012,2 hPa 0,0 mm 0,0 km/h (0 Bft) S-SO 167 0 min 0,000 mm 0,0 UV-I 0 W/m 14,0 C 0,0 km/h (0 Bft)
19.08.2016 22:01 15,5 C 15,5 C 91 % 1012,2 hPa 0,0 mm 0,0 km/h (0 Bft) S-SO 167 0 min 0,000 mm 0,0 UV-I 0 W/m 14,0 C 0,0 km/h (0 Bft)
19.08.2016 22:02 15,5 C 15,5 C 91 % 1012,2 hPa 0,0 mm 0,0 km/h (0 Bft) S-SO 167 0 min 0,000 mm 0,0 UV-I 0 W/m 14,0 C 0,0 km/h (0 Bft)
19.08.2016 22:03 15,5 C 15,5 C 91 % 1012,3 hPa 0,0 mm 0,0 km/h (0 Bft) S-SO 167 0 min 0,000 mm 0,0 UV-I 0 W/m 14,0 C 0,0 km/h (0 Bft)
19.08.2016 22:04 15,4 C 15,5 C 91 % 1012,3 hPa 0,0 mm 0,0 km/h (0 Bft) S-SO 167 0 min 0,000 mm 0,0 UV-I 0 W/m 13,9 C 0,0 km/h (0 Bft)
19.08.2016 22:05 15,4 C 15,4 C 91 % 1012,3 hPa 0,0 mm 0,0 km/h (0 Bft) S-SO 167 0 min 0,000 mm 0,0 UV-I 0 W/m 13,9 C 0,0 km/h (0 Bft)
19.08.2016 22:06 15,4 C 15,5 C 91 % 1012,3 hPa 0,0 mm 0,0 km/h (0 Bft) S-SO 167 0 min 0,000 mm 0,0 UV-I 0 W/m 13,9 C 0,0 km/h (0 Bft)
19.08.2016 22:07 15,5 C 15,5 C 91 % 1012,3 hPa 0,0 mm 0,0 km/h (0 Bft) S-SO 167 0 min 0,000 mm 0,0 UV-I 0 W/m 14,0 C 0,0 km/h (0 Bft)
19.08.2016 22:08 15,4 C 15,5 C 91 % 1012,3 hPa 0,0 mm 0,0 km/h (0 Bft) S-SO 167 0 min 0,000 mm 0,0 UV-I 0 W/m 13,9 C 0,0 km/h (0 Bft)
19.08.2016 22:09 15,5 C 15,5 C 91 % 1012,3 hPa 0,0 mm 0,0 km/h (0 Bft) S-SO 167 0 min 0,000 mm 0,0 UV-I 0 W/m 14,0 C 0,0 km/h (0 Bft)
19.08.2016 22:10 15,5 C 15,5 C 91 % 1012,4 hPa 0,0 mm 0,0 km/h (0 Bft) S-SO 167 0 min 0,000 mm 0,0 UV-I 0 W/m 14,0 C 0,0 km/h (0 Bft)
19.08.2016 22:11 15,4 C 15,5 C 91 % 1012,4 hPa 0,0 mm 0,1 km/h (0 Bft) S-SO 167 0 min 0,000 mm 0,0 UV-I 0 W/m 13,9 C 1,6 km/h (1 Bft)
19.08.2016 22:12 15,4 C 15,4 C 91 % 1012,4 hPa 0,0 mm 0,0 km/h (0 Bft) S-SO 167 0 min 0,000 mm 0,0 UV-I 0 W/m 13,9 C 0,0 km/h (0 Bft)
19.08.2016 22:13 15,4 C 15,4 C 91 % 1012,4 hPa 0,0 mm 0,0 km/h (0 Bft) S-SO 167 0 min 0,000 mm 0,0 UV-I 0 W/m 13,9 C 0,0 km/h (0 Bft)
19.08.2016 22:14 15,4 C 15,4 C 91 % 1012,4 hPa 0,0 mm 0,0 km/h (0 Bft) S-SO 167 0 min 0,000 mm 0,0 UV-I 0 W/m 13,9 C 0,0 km/h (0 Bft)
19.08.2016 22:15 15,4 C 15,4 C 91 % 1012,4 hPa 0,0 mm 0,0 km/h (0 Bft) S-SO 167 0 min 0,000 mm 0,0 UV-I 0 W/m 13,9 C 0,0 km/h (0 Bft)
19.08.2016 22:16 15,4 C 15,4 C 92 % 1012,4 hPa 0,0 mm 0,0 km/h (0 Bft) S-SO 167 0 min 0,000 mm 0,0 UV-I 0 W/m 14,1 C 0,0 km/h (0 Bft)
19.08.2016 22:17 15,4 C 15,4 C 92 % 1012,5 hPa 0,0 mm 0,0 km/h (0 Bft) S-SO 167 0 min 0,000 mm 0,0 UV-I 0 W/m 14,1 C 0,0 km/h (0 Bft)
19.08.2016 22:18 15,4 C 15,4 C 92 % 1012,5 hPa 0,0 mm 0,0 km/h (0 Bft) S-SO 167 0 min 0,000 mm 0,0 UV-I 0 W/m 14,1 C 0,0 km/h (0 Bft)
19.08.2016 22:19 15,4 C 15,4 C 92 % 1012,4 hPa 0,0 mm 0,0 km/h (0 Bft) S-SO 167 0 min 0,000 mm 0,0 UV-I 0 W/m 14,1 C 0,0 km/h (0 Bft)
19.08.2016 22:20 15,4 C 15,4 C 92 % 1012,5 hPa 0,0 mm 0,1 km/h (0 Bft) S-SO 167 0 min 0,000 mm 0,0 UV-I 0 W/m 14,1 C 1,6 km/h (1 Bft)
19.08.2016 22:21 15,4 C 15,4 C 92 % 1012,5 hPa 0,0 mm 0,0 km/h (0 Bft) S-SO 167 0 min 0,000 mm 0,0 UV-I 0 W/m 14,1 C 0,0 km/h (0 Bft)
19.08.2016 22:22 15,4 C 15,4 C 92 % 1012,5 hPa 0,0 mm 0,0 km/h (0 Bft) S-SO 167 0 min 0,000 mm 0,0 UV-I 0 W/m 14,1 C 0,0 km/h (0 Bft)
19.08.2016 22:23 15,4 C 15,4 C 92 % 1012,5 hPa 0,0 mm 0,0 km/h (0 Bft) S-SO 167 0 min 0,000 mm 0,0 UV-I 0 W/m 14,1 C 0,0 km/h (0 Bft)
19.08.2016 22:24 15,4 C 15,4 C 92 % 1012,5 hPa 0,0 mm 0,0 km/h (0 Bft) S-SO 167 0 min 0,000 mm 0,0 UV-I 0 W/m 14,1 C 0,0 km/h (0 Bft)
19.08.2016 22:25 15,4 C 15,4 C 92 % 1012,5 hPa 0,0 mm 0,0 km/h (0 Bft) S-SO 167 0 min 0,000 mm 0,0 UV-I 0 W/m 14,1 C 0,0 km/h (0 Bft)
19.08.2016 22:26 15,4 C 15,4 C 92 % 1012,6 hPa 0,0 mm 0,0 km/h (0 Bft) S-SO 167 0 min 0,000 mm 0,0 UV-I 0 W/m 14,1 C 0,0 km/h (0 Bft)
19.08.2016 22:27 15,4 C 15,4 C 92 % 1012,5 hPa 0,0 mm 0,0 km/h (0 Bft) S-SO 167 0 min 0,000 mm 0,0 UV-I 0 W/m 14,1 C 0,0 km/h (0 Bft)
19.08.2016 22:28 15,4 C 15,4 C 92 % 1012,5 hPa 0,0 mm 0,0 km/h (0 Bft) S-SO 167 0 min 0,000 mm 0,0 UV-I 0 W/m 14,1 C 0,0 km/h (0 Bft)
19.08.2016 22:29 15,4 C 15,4 C 92 % 1012,6 hPa 0,0 mm 0,0 km/h (0 Bft) S-SO 167 0 min 0,000 mm 0,0 UV-I 0 W/m 14,1 C 0,0 km/h (0 Bft)
19.08.2016 22:30 15,5 C 15,5 C 92 % 1012,6 hPa 0,0 mm 0,0 km/h (0 Bft) S-SO 167 0 min 0,000 mm 0,0 UV-I 0 W/m 14,2 C 0,0 km/h (0 Bft)
19.08.2016 22:31 15,5 C 15,5 C 92 % 1012,6 hPa 0,0 mm 0,0 km/h (0 Bft) S-SO 167 0 min 0,000 mm 0,0 UV-I 0 W/m 14,2 C 0,0 km/h (0 Bft)
19.08.2016 22:32 15,4 C 15,5 C 92 % 1012,7 hPa 0,0 mm 0,0 km/h (0 Bft) S-SO 167 0 min 0,000 mm 0,0 UV-I 0 W/m 14,1 C 0,0 km/h (0 Bft)
19.08.2016 22:33 15,4 C 15,5 C 91 % 1012,7 hPa 0,0 mm 0,0 km/h (0 Bft) S-SO 167 0 min 0,000 mm 0,0 UV-I 0 W/m 13,9 C 0,0 km/h (0 Bft)
19.08.2016 22:34 15,5 C 15,5 C 91 % 1012,7 hPa 0,0 mm 0,3 km/h (0 Bft) S-SO 167 0 min 0,000 mm 0,0 UV-I 0 W/m 14,0 C 1,6 km/h (1 Bft)
19.08.2016 22:35 15,5 C 15,5 C 91 % 1012,7 hPa 0,0 mm 0,6 km/h (0 Bft) S-SO 167 0 min 0,000 mm 0,0 UV-I 0 W/m 14,0 C 1,6 km/h (1 Bft)
19.08.2016 22:36 15,6 C 15,6 C 91 % 1012,7 hPa 0,0 mm 1,3 km/h (1 Bft) S-SO 167 0 min 0,000 mm 0,0 UV-I 0 W/m 14,1 C 1,6 km/h (1 Bft)
19.08.2016 22:37 15,6 C 15,6 C 91 % 1012,8 hPa 0,0 mm 1,1 km/h (1 Bft) S-SO 167 0 min 0,000 mm 0,0 UV-I 0 W/m 14,1 C 1,6 km/h (1 Bft)
19.08.2016 22:38 15,7 C 15,7 C 91 % 1012,7 hPa 0,0 mm 2,0 km/h (1 Bft) S-SO 167 0 min 0,000 mm 0,0 UV-I 0 W/m 14,2 C 4,8 km/h (1 Bft)
19.08.2016 22:39 15,7 C 15,7 C 91 % 1012,7 hPa 0,0 mm 2,0 km/h (1 Bft) S-SO 167 0 min 0,000 mm 0,0 UV-I 0 W/m 14,2 C 4,8 km/h (1 Bft)
19.08.2016 22:40 15,7 C 15,7 C 90 % 1012,8 hPa 0,0 mm 3,8 km/h (1 Bft) S 190 0 min 0,000 mm 0,0 UV-I 0 W/m 14,1 C 8,0 km/h (2 Bft)
19.08.2016 22:41 15,7 C 15,7 C 90 % 1012,8 hPa 0,0 mm 3,9 km/h (1 Bft) S 189 0 min 0,000 mm 0,0 UV-I 0 W/m 14,1 C 8,0 km/h (2 Bft)
19.08.2016 22:42 15,8 C 15,8 C 90 % 1012,7 hPa 0,0 mm 3,5 km/h (1 Bft) S 178 0 min 0,000 mm 0,0 UV-I 0 W/m 14,2 C 4,8 km/h (1 Bft)
19.08.2016 22:43 15,8 C 15,8 C 90 % 1012,8 hPa 0,0 mm 1,3 km/h (1 Bft) S 178 0 min 0,000 mm 0,0 UV-I 0 W/m 14,2 C 1,6 km/h (1 Bft)
19.08.2016 22:44 15,7 C 15,8 C 90 % 1012,8 hPa 0,0 mm 1,9 km/h (1 Bft) S 178 0 min 0,000 mm 0,0 UV-I 0 W/m 14,1 C 3,2 km/h (1 Bft)
19.08.2016 22:45 15,7 C 15,7 C 91 % 1012,8 hPa 0,0 mm 0,9 km/h (0 Bft) S 178 0 min 0,000 mm 0,0 UV-I 0 W/m 14,2 C 1,6 km/h (1 Bft)
19.08.2016 22:46 15,7 C 15,7 C 91 % 1012,9 hPa 0,0 mm 0,0 km/h (0 Bft) S 178 0 min 0,000 mm 0,0 UV-I 0 W/m 14,2 C 0,0 km/h (0 Bft)
19.08.2016 22:47 15,6 C 15,7 C 90 % 1012,9 hPa 0,0 mm 0,0 km/h (0 Bft) S 178 0 min 0,000 mm 0,0 UV-I 0 W/m 14,0 C 0,0 km/h (0 Bft)
19.08.2016 22:48 15,6 C 15,7 C 90 % 1012,9 hPa 0,0 mm 1,6 km/h (1 Bft) SW 232 0 min 0,000 mm 0,0 UV-I 0 W/m 14,0 C 3,2 km/h (1 Bft)
19.08.2016 22:49 15,7 C 15,7 C 90 % 1012,9 hPa 0,0 mm 1,7 km/h (1 Bft) SW 236 0 min 0,000 mm 0,0 UV-I 0 W/m 14,1 C 3,2 km/h (1 Bft)
19.08.2016 22:50 15,7 C 15,7 C 90 % 1012,9 hPa 0,0 mm 5,6 km/h (1 Bft) S 175 0 min 0,000 mm 0,0 UV-I 0 W/m 14,1 C 9,7 km/h (2 Bft)
19.08.2016 22:51 15,7 C 15,7 C 90 % 1012,9 hPa 0,0 mm 7,2 km/h (2 Bft) S 173 0 min 0,000 mm 0,0 UV-I 0 W/m 14,1 C 9,7 km/h (2 Bft)
19.08.2016 22:52 15,7 C 15,7 C 89 % 1012,9 hPa 0,0 mm 6,2 km/h (2 Bft) S 190 0 min 0,000 mm 0,0 UV-I 0 W/m 13,9 C 8,0 km/h (2 Bft)
19.08.2016 22:53 15,7 C 15,8 C 89 % 1012,9 hPa 0,0 mm 5,2 km/h (1 Bft) S 184 0 min 0,000 mm 0,0 UV-I 0 W/m 13,9 C 8,0 km/h (2 Bft)
19.08.2016 22:54 15,8 C 15,8 C 90 % 1012,9 hPa 0,0 mm 3,4 km/h (1 Bft) SO 142 0 min 0,000 mm 0,0 UV-I 0 W/m 14,2 C 6,4 km/h (2 Bft)
19.08.2016 22:55 15,8 C 15,8 C 90 % 1012,9 hPa 0,0 mm 1,7 km/h (1 Bft) SO 142 0 min 0,000 mm 0,0 UV-I 0 W/m 14,2 C 3,2 km/h (1 Bft)
19.08.2016 22:56 15,7 C 15,8 C 89 % 1012,9 hPa 0,0 mm 0,8 km/h (0 Bft) SO 142 0 min 0,000 mm 0,0 UV-I 0 W/m 13,9 C 1,6 km/h (1 Bft)
19.08.2016 22:57 15,7 C 15,7 C 89 % 1013,0 hPa 0,0 mm 0,2 km/h (0 Bft) SO 142 0 min 0,000 mm 0,0 UV-I 0 W/m 13,9 C 1,6 km/h (1 Bft)
19.08.2016 22:58 15,6 C 15,7 C 90 % 1012,9 hPa 0,0 mm 0,5 km/h (0 Bft) SO 142 0 min 0,000 mm 0,0 UV-I 0 W/m 14,0 C 1,6 km/h (1 Bft)
19.08.2016 22:59 15,6 C 15,6 C 90 % 1013,0 hPa 0,0 mm 1,2 km/h (1 Bft) S-SO 156 0 min 0,000 mm 0,0 UV-I 0 W/m 14,0 C 3,2 km/h (1 Bft)
19.08.2016 23:00 15,6 C 15,6 C 90 % 1013,0 hPa 0,0 mm 2,0 km/h (1 Bft) S-SO 156 0 min 0,000 mm 0,0 UV-I 0 W/m 14,0 C 3,2 km/h (1 Bft)
19.08.2016 23:01 15,6 C 15,6 C 90 % 1012,9 hPa 0,0 mm 0,1 km/h (0 Bft) S-SO 156 0 min 0,000 mm 0,0 UV-I 0 W/m 14,0 C 1,6 km/h (1 Bft)
19.08.2016 23:02 15,5 C 15,6 C 90 % 1013,0 hPa 0,0 mm 0,0 km/h (0 Bft) S-SO 156 0 min 0,000 mm 0,0 UV-I 0 W/m 13,9 C 0,0 km/h (0 Bft)
19.08.2016 23:03 15,5 C 15,6 C 90 % 1013,0 hPa 0,0 mm 0,5 km/h (0 Bft) S-SO 156 0 min 0,000 mm 0,0 UV-I 0 W/m 13,9 C 1,6 km/h (1 Bft)
19.08.2016 23:04 15,5 C 15,6 C 90 % 1013,0 hPa 0,0 mm 2,0 km/h (1 Bft) S-SO 156 0 min 0,000 mm 0,0 UV-I 0 W/m 13,9 C 3,2 km/h (1 Bft)
19.08.2016 23:05 15,4 C 15,5 C 91 % 1013,0 hPa 0,0 mm 1,8 km/h (1 Bft) S-SO 156 0 min 0,000 mm 0,0 UV-I 0 W/m 13,9 C 3,2 km/h (1 Bft)
19.08.2016 23:06 15,4 C 15,4 C 91 % 1013,0 hPa 0,0 mm 0,1 km/h (0 Bft) S-SO 156 0 min 0,000 mm 0,0 UV-I 0 W/m 13,9 C 1,6 km/h (1 Bft)
19.08.2016 23:07 15,3 C 15,4 C 90 % 1013,0 hPa 0,0 mm 0,9 km/h (0 Bft) S-SO 156 0 min 0,000 mm 0,0 UV-I 0 W/m 13,7 C 1,6 km/h (1 Bft)
19.08.2016 23:08 15,3 C 15,3 C 91 % 1013,0 hPa 0,0 mm 0,0 km/h (0 Bft) S-SO 156 0 min 0,000 mm 0,0 UV-I 0 W/m 13,8 C 0,0 km/h (0 Bft)
19.08.2016 23:09 15,3 C 15,3 C 91 % 1013,0 hPa 0,0 mm 0,0 km/h (0 Bft) S-SO 156 0 min 0,000 mm 0,0 UV-I 0 W/m 13,8 C 0,0 km/h (0 Bft)
19.08.2016 23:10 15,3 C 15,3 C 91 % 1013,0 hPa 0,0 mm 0,1 km/h (0 Bft) S-SO 156 0 min 0,000 mm 0,0 UV-I 0 W/m 13,8 C 1,6 km/h (1 Bft)
19.08.2016 23:11 15,2 C 15,3 C 91 % 1013,0 hPa 0,0 mm 1,5 km/h (1 Bft) S-SO 156 0 min 0,000 mm 0,0 UV-I 0 W/m 13,7 C 1,6 km/h (1 Bft)
19.08.2016 23:12 15,2 C 15,2 C 91 % 1013,0 hPa 0,0 mm 0,7 km/h (0 Bft) S-SO 156 0 min 0,000 mm 0,0 UV-I 0 W/m 13,7 C 1,6 km/h (1 Bft)
19.08.2016 23:13 15,2 C 15,2 C 92 % 1013,0 hPa 0,0 mm 0,1 km/h (0 Bft) S-SO 156 0 min 0,000 mm 0,0 UV-I 0 W/m 13,9 C 1,6 km/h (1 Bft)
19.08.2016 23:14 15,2 C 15,2 C 91 % 1013,0 hPa 0,0 mm 0,3 km/h (0 Bft) S-SO 163 0 min 0,000 mm 0,0 UV-I 0 W/m 13,7 C 3,2 km/h (1 Bft)
19.08.2016 23:15 15,3 C 15,3 C 91 % 1013,0 hPa 0,0 mm 1,2 km/h (1 Bft) S-SO 165 0 min 0,000 mm 0,0 UV-I 0 W/m 13,8 C 3,2 km/h (1 Bft)
19.08.2016 23:16 15,3 C 15,3 C 91 % 1013,0 hPa 0,0 mm 1,5 km/h (1 Bft) S-SO 165 0 min 0,000 mm 0,0 UV-I 0 W/m 13,8 C 3,2 km/h (1 Bft)
19.08.2016 23:17 15,3 C 15,3 C 91 % 1013,1 hPa 0,0 mm 0,0 km/h (0 Bft) S-SO 165 0 min 0,000 mm 0,0 UV-I 0 W/m 13,8 C 0,0 km/h (0 Bft)
19.08.2016 23:18 15,2 C 15,3 C 91 % 1013,1 hPa 0,0 mm 0,3 km/h (0 Bft) S-SO 165 0 min 0,000 mm 0,0 UV-I 0 W/m 13,7 C 1,6 km/h (1 Bft)
19.08.2016 23:19 15,2 C 15,3 C 91 % 1013,0 hPa 0,0 mm 2,2 km/h (1 Bft) S 169 0 min 0,000 mm 0,0 UV-I 0 W/m 13,7 C 6,4 km/h (2 Bft)
19.08.2016 23:20 15,2 C 15,2 C 92 % 1013,0 hPa 0,0 mm 1,5 km/h (1 Bft) S 169 0 min 0,000 mm 0,0 UV-I 0 W/m 13,9 C 1,6 km/h (1 Bft)
19.08.2016 23:21 15,2 C 15,2 C 92 % 1013,0 hPa 0,0 mm 1,9 km/h (1 Bft) S-SO 168 0 min 0,000 mm 0,0 UV-I 0 W/m 13,9 C 3,2 km/h (1 Bft)
19.08.2016 23:22 15,2 C 15,2 C 92 % 1013,0 hPa 0,0 mm 0,1 km/h (0 Bft) S-SO 168 0 min 0,000 mm 0,0 UV-I 0 W/m 13,9 C 1,6 km/h (1 Bft)
19.08.2016 23:23 15,2 C 15,2 C 92 % 1013,0 hPa 0,0 mm 0,4 km/h (0 Bft) S 181 0 min 0,000 mm 0,0 UV-I 0 W/m 13,9 C 1,6 km/h (1 Bft)
19.08.2016 23:24 15,2 C 15,3 C 92 % 1013,0 hPa 0,0 mm 1,1 km/h (1 Bft) S 177 0 min 0,000 mm 0,0 UV-I 0 W/m 13,9 C 3,2 km/h (1 Bft)
19.08.2016 23:25 15,3 C 15,3 C 92 % 1013,0 hPa 0,0 mm 0,1 km/h (0 Bft) S 177 0 min 0,000 mm 0,0 UV-I 0 W/m 14,0 C 1,6 km/h (1 Bft)
19.08.2016 23:26 15,3 C 15,3 C 92 % 1013,0 hPa 0,0 mm 0,0 km/h (0 Bft) S 177 0 min 0,000 mm 0,0 UV-I 0 W/m 14,0 C 0,0 km/h (0 Bft)
19.08.2016 23:27 15,4 C 15,4 C 92 % 1013,0 hPa 0,0 mm 2,1 km/h (1 Bft) S 179 0 min 0,000 mm 0,0 UV-I 0 W/m 14,1 C 3,2 km/h (1 Bft)
19.08.2016 23:28 15,4 C 15,4 C 91 % 1013,0 hPa 0,0 mm 0,0 km/h (0 Bft) S 179 0 min 0,000 mm 0,0 UV-I 0 W/m 13,9 C 0,0 km/h (0 Bft)
19.08.2016 23:29 15,4 C 15,4 C 91 % 1013,0 hPa 0,0 mm 1,0 km/h (0 Bft) S 179 0 min 0,000 mm 0,0 UV-I 0 W/m 13,9 C 1,6 km/h (1 Bft)
19.08.2016 23:30 15,4 C 15,5 C 91 % 1013,1 hPa 0,0 mm 0,5 km/h (0 Bft) S 179 0 min 0,000 mm 0,0 UV-I 0 W/m 13,9 C 1,6 km/h (1 Bft)
19.08.2016 23:31 15,5 C 15,5 C 91 % 1013,1 hPa 0,0 mm 0,3 km/h (0 Bft) S 179 0 min 0,000 mm 0,0 UV-I 0 W/m 14,0 C 1,6 km/h (1 Bft)
19.08.2016 23:32 15,4 C 15,5 C 91 % 1013,1 hPa 0,0 mm 0,1 km/h (0 Bft) S 179 0 min 0,000 mm 0,0 UV-I 0 W/m 13,9 C 1,6 km/h (1 Bft)
19.08.2016 23:33 15,4 C 15,4 C 91 % 1013,1 hPa 0,0 mm 0,7 km/h (0 Bft) S 179 0 min 0,000 mm 0,0 UV-I 0 W/m 13,9 C 1,6 km/h (1 Bft)
19.08.2016 23:34 15,4 C 15,4 C 91 % 1013,1 hPa 0,0 mm 0,1 km/h (0 Bft) S 179 0 min 0,000 mm 0,0 UV-I 0 W/m 13,9 C 1,6 km/h (1 Bft)
19.08.2016 23:35 15,4 C 15,4 C 91 % 1013,1 hPa 0,0 mm 0,0 km/h (0 Bft) S 179 0 min 0,000 mm 0,0 UV-I 0 W/m 13,9 C 0,0 km/h (0 Bft)
19.08.2016 23:36 15,4 C 15,4 C 91 % 1013,1 hPa 0,0 mm 0,0 km/h (0 Bft) S 179 0 min 0,000 mm 0,0 UV-I 0 W/m 13,9 C 0,0 km/h (0 Bft)
19.08.2016 23:37 15,4 C 15,4 C 91 % 1013,1 hPa 0,0 mm 1,7 km/h (1 Bft) S 179 0 min 0,000 mm 0,0 UV-I 0 W/m 13,9 C 3,2 km/h (1 Bft)
19.08.2016 23:38 15,4 C 15,4 C 91 % 1013,1 hPa 0,0 mm 1,9 km/h (1 Bft) S 179 0 min 0,000 mm 0,0 UV-I 0 W/m 13,9 C 3,2 km/h (1 Bft)
19.08.2016 23:39 15,4 C 15,4 C 91 % 1013,0 hPa 0,0 mm 0,3 km/h (0 Bft) S 179 0 min 0,000 mm 0,0 UV-I 0 W/m 13,9 C 1,6 km/h (1 Bft)
19.08.2016 23:40 15,4 C 15,4 C 91 % 1013,0 hPa 0,0 mm 1,0 km/h (0 Bft) S 179 0 min 0,000 mm 0,0 UV-I 0 W/m 13,9 C 1,6 km/h (1 Bft)
19.08.2016 23:41 15,4 C 15,4 C 91 % 1013,0 hPa 0,0 mm 0,7 km/h (0 Bft) S 179 0 min 0,000 mm 0,0 UV-I 0 W/m 13,9 C 1,6 km/h (1 Bft)
19.08.2016 23:42 15,4 C 15,4 C 91 % 1013,0 hPa 0,0 mm 0,0 km/h (0 Bft) S 179 0 min 0,000 mm 0,0 UV-I 0 W/m 13,9 C 0,0 km/h (0 Bft)
19.08.2016 23:43 15,3 C 15,4 C 92 % 1013,0 hPa 0,0 mm 0,0 km/h (0 Bft) S 179 0 min 0,000 mm 0,0 UV-I 0 W/m 14,0 C 0,0 km/h (0 Bft)
19.08.2016 23:44 15,3 C 15,3 C 92 % 1013,0 hPa 0,0 mm 0,0 km/h (0 Bft) S 179 0 min 0,000 mm 0,0 UV-I 0 W/m 14,0 C 0,0 km/h (0 Bft)
19.08.2016 23:45 15,3 C 15,3 C 92 % 1013,0 hPa 0,0 mm 0,0 km/h (0 Bft) S 179 0 min 0,000 mm 0,0 UV-I 0 W/m 14,0 C 0,0 km/h (0 Bft)
19.08.2016 23:46 15,3 C 15,3 C 92 % 1013,0 hPa 0,0 mm 0,0 km/h (0 Bft) S 179 0 min 0,000 mm 0,0 UV-I 0 W/m 14,0 C 0,0 km/h (0 Bft)
19.08.2016 23:47 15,3 C 15,3 C 92 % 1013,0 hPa 0,0 mm 0,0 km/h (0 Bft) S 179 0 min 0,000 mm 0,0 UV-I 0 W/m 14,0 C 0,0 km/h (0 Bft)
19.08.2016 23:48 15,3 C 15,3 C 92 % 1012,9 hPa 0,0 mm 0,0 km/h (0 Bft) S 179 0 min 0,000 mm 0,0 UV-I 0 W/m 14,0 C 0,0 km/h (0 Bft)
19.08.2016 23:49 15,3 C 15,4 C 92 % 1012,9 hPa 0,0 mm 0,0 km/h (0 Bft) S 179 0 min 0,000 mm 0,0 UV-I 0 W/m 14,0 C 0,0 km/h (0 Bft)
19.08.2016 23:50 15,3 C 15,4 C 92 % 1013,0 hPa 0,0 mm 0,0 km/h (0 Bft) S 179 0 min 0,000 mm 0,0 UV-I 0 W/m 14,0 C 0,0 km/h (0 Bft)
19.08.2016 23:51 15,3 C 15,4 C 92 % 1013,0 hPa 0,0 mm 0,0 km/h (0 Bft) S 179 0 min 0,000 mm 0,0 UV-I 0 W/m 14,0 C 0,0 km/h (0 Bft)
19.08.2016 23:52 15,4 C 15,4 C 92 % 1013,0 hPa 0,0 mm 0,1 km/h (0 Bft) S 179 0 min 0,000 mm 0,0 UV-I 0 W/m 14,1 C 1,6 km/h (1 Bft)
19.08.2016 23:53 15,4 C 15,4 C 92 % 1012,9 hPa 0,0 mm 0,5 km/h (0 Bft) S 179 0 min 0,000 mm 0,0 UV-I 0 W/m 14,1 C 1,6 km/h (1 Bft)
19.08.2016 23:54 15,4 C 15,4 C 92 % 1013,0 hPa 0,0 mm 0,5 km/h (0 Bft) S 179 0 min 0,000 mm 0,0 UV-I 0 W/m 14,1 C 1,6 km/h (1 Bft)
19.08.2016 23:55 15,4 C 15,4 C 92 % 1013,0 hPa 0,0 mm 0,7 km/h (0 Bft) S 179 0 min 0,000 mm 0,0 UV-I 0 W/m 14,1 C 1,6 km/h (1 Bft)
19.08.2016 23:56 15,5 C 15,5 C 91 % 1013,0 hPa 0,0 mm 0,5 km/h (0 Bft) S 179 0 min 0,000 mm 0,0 UV-I 0 W/m 14,0 C 1,6 km/h (1 Bft)
19.08.2016 23:57 15,4 C 15,5 C 91 % 1013,0 hPa 0,0 mm 0,1 km/h (0 Bft) S 179 0 min 0,000 mm 0,0 UV-I 0 W/m 13,9 C 1,6 km/h (1 Bft)
19.08.2016 23:58 15,4 C 15,5 C 91 % 1013,0 hPa 0,0 mm 0,8 km/h (0 Bft) S 179 0 min 0,000 mm 0,0 UV-I 0 W/m 13,9 C 3,2 km/h (1 Bft)
19.08.2016 23:59 15,4 C 15,5 C 92 % 1013,0 hPa 0,0 mm 1,4 km/h (1 Bft) S 179 0 min 0,000 mm 0,0 UV-I 0 W/m 14,1 C 3,2 km/h (1 Bft)
_ Min-Zeit 01:23 01:18 14:36 05:10 - 23:51 - - - - - - 00:37 23:51
Minimum _ 12,2 C 12,2 C 65 % 1010,1 hPa - 0,0 km/h (0 Bft) - - - - - - 11,1 C 0,0 km/h (0 Bft)
_ Max-Zeit 14:51 15:00 07:14 23:38 02:55 11:41 - - 20:10 14:01 12:44 13:02 17:08 11:41
Maximum _ 22,0 C 22,0 C 96 % 1013,1 hPa 0,2 mm 10,3 km/h
NW (2 Bft)
- - 1 min 0,406 mm 7,0 UV-I 1072 W/m 17,0 C 14,5 km/h
NW (3 Bft)
Durchschnitt _ 16,5 C 16,5 C 85 % 1011,2 hPa #0,4 mm 1,6 km/h (1 Bft) O-NO - #4:38 h #2,616 mm 3,1 UV-I 180 W/m 13,9 C 2,8 km/h (1 Bft)